[[{"header":{"parameterUnit":"m.s-1","parameterCategory":1,"la1":30.6,"la2":29.2853,"lo1":-89.7004,"lo2":-87.6739,"dy":0.0162,"dx":0.0183,"nx":112,"ny":82,"refTime":"2023-09-04T00:00:00:Z","depth":0,"parameterNumber":2,"parameterNumberName":"U-component_of_WINDS"},"data":[0.0,0.0,0.0,0.0,0.0,0.0,0.0,0.0,0.0,0.0,0.0,0.0,0.0,0.0,0.0,0.0,0.0,0.0,0.0,0.0,0.0,0.0,0.0,0.0,0.0,0.0,0.0,0.0,0.0,0.0,0.0,0.0,0.0,0.0,0.0,0.0,0.0,0.0,0.0,0.0,0.0,0.0,0.0,0.0,0.0,0.0,0.0,0.0,0.0,0.0,0.0,0.0,0.0,0.0,0.0,0.0,0.0,0.0,0.0,0.0,0.0,0.0,0.0,0.0,0.0,0.0,0.0,0.0,0.0,0.0,0.0,0.0,0.0,0.0,0.0,0.0,0.0,0.0,0.0,0.0,0.0,0.0,0.0,0.0,0.0,0.0,0.0,0.0,0.0,0.0,0.0,-2.7549,-2.7181,-2.6765,-2.627,-2.5687,-2.5077,-2.4481,0.0,0.0,0.0,0.0,0.0,0.0,0.0,0.0,0.0,0.0,0.0,0.0,0.0,0.0,0.0,0.0,0.0,0.0,0.0,0.0,0.0,0.0,0.0,0.0,0.0,0.0,0.0,0.0,0.0,0.0,0.0,0.0,0.0,0.0,0.0,0.0,0.0,0.0,0.0,0.0,0.0,0.0,0.0,0.0,0.0,0.0,0.0,0.0,0.0,0.0,0.0,0.0,0.0,0.0,0.0,0.0,0.0,0.0,0.0,0.0,0.0,0.0,0.0,0.0,0.0,0.0,0.0,0.0,0.0,0.0,0.0,0.0,0.0,0.0,0.0,0.0,0.0,0.0,0.0,0.0,0.0,0.0,0.0,0.0,0.0,0.0,0.0,0.0,0.0,0.0,0.0,0.0,0.0,0.0,0.0,0.0,0.0,0.0,0.0,0.0,0.0,0.0,0.0,0.0,-2.7524,-2.7284,-2.6959,-2.6525,-2.6002,-2.5411,-2.4793,-2.4205,0.0,0.0,0.0,0.0,0.0,0.0,0.0,0.0,0.0,0.0,0.0,0.0,0.0,0.0,0.0,0.0,0.0,0.0,0.0,0.0,0.0,0.0,0.0,0.0,0.0,0.0,0.0,0.0,0.0,0.0,0.0,0.0,0.0,0.0,0.0,0.0,0.0,0.0,0.0,0.0,0.0,0.0,0.0,0.0,0.0,0.0,0.0,0.0,0.0,0.0,0.0,0.0,0.0,0.0,0.0,0.0,0.0,0.0,0.0,0.0,0.0,0.0,0.0,0.0,0.0,0.0,0.0,0.0,0.0,0.0,0.0,0.0,0.0,0.0,0.0,0.0,0.0,0.0,0.0,0.0,0.0,0.0,0.0,0.0,0.0,0.0,0.0,0.0,0.0,0.0,0.0,0.0,0.0,0.0,0.0,0.0,0.0,0.0,0.0,0.0,0.0,0.0,0.0,-2.7549,-2.7499,-2.7233,-2.6893,-2.6498,-2.5948,-2.5342,-2.4736,-2.4131,-2.391,0.0,0.0,0.0,0.0,0.0,0.0,0.0,0.0,0.0,0.0,0.0,0.0,0.0,0.0,0.0,0.0,0.0,0.0,0.0,0.0,0.0,0.0,0.0,0.0,0.0,0.0,0.0,0.0,0.0,0.0,0.0,0.0,0.0,0.0,0.0,0.0,0.0,0.0,0.0,0.0,0.0,0.0,0.0,0.0,0.0,0.0,0.0,0.0,0.0,0.0,0.0,0.0,0.0,0.0,0.0,0.0,0.0,0.0,0.0,0.0,0.0,0.0,0.0,0.0,0.0,0.0,0.0,0.0,0.0,0.0,0.0,0.0,0.0,0.0,0.0,0.0,0.0,0.0,0.0,0.0,0.0,0.0,0.0,0.0,0.0,0.0,0.0,0.0,0.0,0.0,0.0,0.0,0.0,0.0,0.0,0.0,0.0,0.0,0.0,0.0,0.0,0.0,-2.76,-2.7499,-2.7233,-2.6893,-2.6498,-2.5948,-2.5342,-2.4736,-2.4131,-2.3793,0.0,0.0,0.0,0.0,0.0,0.0,0.0,0.0,0.0,0.0,0.0,0.0,0.0,0.0,0.0,0.0,0.0,0.0,0.0,0.0,0.0,0.0,0.0,0.0,0.0,0.0,0.0,0.0,0.0,0.0,0.0,0.0,0.0,0.0,0.0,0.0,0.0,0.0,0.0,0.0,0.0,0.0,0.0,0.0,0.0,0.0,0.0,0.0,0.0,0.0,0.0,0.0,0.0,0.0,0.0,0.0,0.0,0.0,0.0,0.0,0.0,0.0,0.0,0.0,0.0,0.0,0.0,0.0,0.0,0.0,0.0,0.0,0.0,0.0,0.0,0.0,0.0,0.0,0.0,0.0,0.0,0.0,0.0,0.0,0.0,0.0,0.0,0.0,0.0,0.0,0.0,0.0,0.0,0.0,0.0,0.0,0.0,0.0,0.0,0.0,0.0,0.0,-2.76,-2.7499,-2.7233,-2.6893,-2.6498,-2.5948,-2.5342,-2.4736,-2.4131,-2.3793,0.0,0.0,0.0,0.0,0.0,0.0,0.0,0.0,0.0,0.0,0.0,0.0,0.0,0.0,0.0,0.0,0.0,0.0,0.0,0.0,0.0,0.0,0.0,0.0,0.0,0.0,0.0,0.0,0.0,0.0,0.0,0.0,0.0,0.0,0.0,0.0,0.0,0.0,0.0,0.0,0.0,0.0,0.0,0.0,0.0,0.0,0.0,0.0,0.0,0.0,0.0,0.0,0.0,0.0,0.0,0.0,0.0,0.0,0.0,0.0,0.0,0.0,0.0,0.0,0.0,0.0,0.0,0.0,0.0,0.0,0.0,0.0,0.0,0.0,0.0,0.0,0.0,0.0,0.0,0.0,0.0,0.0,0.0,0.0,0.0,0.0,0.0,0.0,0.0,0.0,0.0,0.0,0.0,0.0,0.0,0.0,0.0,0.0,0.0,0.0,0.0,0.0,-2.76,-2.7499,0.0,-2.6893,-2.6498,-2.5948,-2.5342,-2.4736,-2.4131,0.0,0.0,0.0,0.0,0.0,0.0,0.0,0.0,0.0,0.0,0.0,0.0,0.0,0.0,0.0,0.0,0.0,0.0,0.0,0.0,0.0,0.0,0.0,0.0,0.0,0.0,0.0,0.0,0.0,0.0,0.0,0.0,0.0,0.0,0.0,0.0,0.0,0.0,0.0,0.0,0.0,0.0,0.0,0.0,0.0,0.0,0.0,0.0,0.0,0.0,0.0,0.0,0.0,0.0,0.0,0.0,0.0,0.0,0.0,0.0,0.0,0.0,0.0,0.0,0.0,0.0,0.0,0.0,0.0,0.0,0.0,0.0,0.0,0.0,0.0,0.0,0.0,0.0,0.0,0.0,0.0,0.0,0.0,0.0,0.0,0.0,0.0,0.0,0.0,0.0,0.0,0.0,0.0,0.0,0.0,0.0,0.0,0.0,0.0,0.0,0.0,0.0,-2.76,-2.76,-2.7499,0.0,-2.6893,-2.6498,-2.5948,-2.5342,-2.4765,-2.4218,0.0,0.0,0.0,0.0,0.0,0.0,0.0,0.0,0.0,0.0,0.0,0.0,0.0,0.0,0.0,0.0,0.0,0.0,0.0,0.0,0.0,0.0,0.0,0.0,0.0,0.0,0.0,0.0,0.0,0.0,0.0,0.0,0.0,0.0,0.0,0.0,0.0,0.0,0.0,0.0,0.0,0.0,0.0,0.0,0.0,0.0,0.0,0.0,0.0,0.0,0.0,0.0,0.0,0.0,0.0,0.0,0.0,0.0,0.0,0.0,0.0,0.0,0.0,0.0,0.0,0.0,0.0,0.0,0.0,0.0,0.0,0.0,0.0,0.0,0.0,0.0,0.0,0.0,0.0,0.0,0.0,0.0,0.0,0.0,0.0,0.0,0.0,0.0,0.0,0.0,0.0,0.0,0.0,0.0,0.0,0.0,0.0,0.0,0.0,0.0,0.0,0.0,-2.76,-2.76,-2.7499,-2.7233,-2.6893,-2.6498,-2.5948,-2.5342,-2.4793,0.0,0.0,0.0,0.0,0.0,0.0,0.0,0.0,0.0,0.0,0.0,0.0,0.0,0.0,0.0,0.0,0.0,0.0,0.0,0.0,0.0,0.0,0.0,0.0,0.0,0.0,0.0,0.0,0.0,0.0,0.0,0.0,0.0,0.0,0.0,0.0,0.0,0.0,0.0,0.0,0.0,0.0,0.0,0.0,0.0,0.0,0.0,0.0,0.0,0.0,0.0,0.0,0.0,0.0,0.0,0.0,0.0,0.0,0.0,0.0,0.0,0.0,0.0,0.0,0.0,0.0,0.0,0.0,0.0,0.0,0.0,0.0,0.0,0.0,0.0,0.0,0.0,0.0,0.0,0.0,0.0,0.0,0.0,0.0,0.0,0.0,0.0,0.0,0.0,0.0,0.0,0.0,0.0,0.0,0.0,0.0,0.0,0.0,0.0,0.0,0.0,0.0,0.0,-2.76,-2.76,-2.7499,-2.7233,-2.6893,-2.6498,-2.5948,-2.5425,-2.4907,-2.435,0.0,0.0,0.0,0.0,0.0,0.0,0.0,0.0,0.0,0.0,0.0,0.0,0.0,0.0,0.0,0.0,0.0,0.0,0.0,0.0,0.0,0.0,0.0,0.0,0.0,0.0,0.0,0.0,0.0,0.0,0.0,0.0,0.0,0.0,0.0,0.0,0.0,0.0,0.0,0.0,0.0,0.0,0.0,0.0,0.0,0.0,0.0,0.0,0.0,0.0,0.0,0.0,0.0,0.0,0.0,0.0,0.0,0.0,0.0,0.0,0.0,0.0,0.0,0.0,0.0,0.0,0.0,0.0,0.0,0.0,0.0,0.0,0.0,0.0,0.0,0.0,0.0,0.0,0.0,0.0,0.0,0.0,0.0,0.0,0.0,0.0,0.0,0.0,0.0,0.0,0.0,0.0,0.0,0.0,0.0,0.0,0.0,0.0,0.0,0.0,0.0,0.0,-2.76,-2.76,-2.7499,-2.7233,-2.6893,-2.6498,-2.6029,-2.5508,-2.4991,-2.4536,0.0,0.0,0.0,0.0,0.0,0.0,0.0,0.0,0.0,0.0,0.0,0.0,0.0,0.0,0.0,0.0,0.0,0.0,0.0,0.0,0.0,0.0,0.0,0.0,0.0,0.0,0.0,0.0,0.0,0.0,0.0,0.0,0.0,0.0,0.0,0.0,0.0,0.0,0.0,0.0,0.0,0.0,0.0,0.0,0.0,0.0,0.0,0.0,0.0,0.0,0.0,0.0,0.0,0.0,0.0,0.0,0.0,0.0,0.0,0.0,0.0,0.0,0.0,0.0,0.0,0.0,0.0,0.0,0.0,0.0,0.0,0.0,0.0,0.0,0.0,0.0,0.0,0.0,0.0,0.0,0.0,0.0,0.0,0.0,0.0,0.0,0.0,0.0,0.0,0.0,0.0,0.0,0.0,0.0,0.0,0.0,0.0,0.0,0.0,0.0,0.0,0.0,-2.7779,-2.7779,-2.7678,-2.741,-2.7083,-2.6724,-2.6308,-2.5675,-2.5199,-2.4916,0.0,0.0,0.0,0.0,0.0,0.0,0.0,0.0,0.0,0.0,0.0,0.0,0.0,0.0,0.0,0.0,0.0,0.0,0.0,0.0,0.0,0.0,0.0,0.0,0.0,0.0,0.0,0.0,0.0,0.0,0.0,0.0,0.0,0.0,0.0,0.0,0.0,0.0,0.0,0.0,0.0,0.0,0.0,0.0,0.0,0.0,0.0,0.0,0.0,0.0,0.0,0.0,0.0,0.0,0.0,0.0,0.0,0.0,0.0,0.0,-3.4161,0.0,0.0,0.0,0.0,0.0,0.0,0.0,0.0,0.0,0.0,0.0,0.0,0.0,0.0,0.0,0.0,0.0,0.0,0.0,0.0,0.0,0.0,0.0,0.0,0.0,0.0,0.0,0.0,0.0,0.0,0.0,0.0,0.0,0.0,0.0,0.0,0.0,0.0,0.0,0.0,0.0,-2.9112,-2.9172,-2.9039,-2.8727,-2.8453,-2.8093,-2.7627,-2.6691,-2.6013,-2.5697,-2.4932,0.0,0.0,0.0,0.0,0.0,0.0,0.0,0.0,0.0,0.0,0.0,0.0,0.0,0.0,0.0,0.0,0.0,0.0,0.0,0.0,0.0,0.0,0.0,0.0,0.0,0.0,0.0,0.0,0.0,0.0,0.0,0.0,0.0,0.0,0.0,0.0,0.0,0.0,0.0,0.0,0.0,0.0,0.0,0.0,0.0,0.0,0.0,0.0,0.0,0.0,0.0,0.0,0.0,0.0,0.0,0.0,0.0,0.0,0.0,0.0,-3.4086,0.0,0.0,0.0,0.0,0.0,0.0,0.0,0.0,0.0,0.0,0.0,0.0,0.0,0.0,0.0,0.0,0.0,0.0,0.0,0.0,0.0,0.0,0.0,0.0,0.0,0.0,0.0,0.0,0.0,0.0,0.0,0.0,0.0,0.0,0.0,0.0,0.0,0.0,0.0,0.0,-2.9562,-2.9606,-2.9456,-2.9125,-2.8904,-2.8666,-2.8254,-2.7525,-2.6812,-2.6162,-2.5573,0.0,0.0,0.0,0.0,0.0,0.0,0.0,0.0,0.0,0.0,0.0,0.0,0.0,0.0,0.0,0.0,0.0,0.0,0.0,0.0,0.0,0.0,0.0,0.0,0.0,0.0,0.0,0.0,0.0,0.0,0.0,0.0,0.0,0.0,0.0,0.0,0.0,0.0,0.0,0.0,0.0,0.0,0.0,0.0,0.0,0.0,0.0,0.0,0.0,0.0,0.0,0.0,0.0,-3.8016,-3.7886,-3.7816,-3.775,-3.7214,-3.6308,-3.5274,-3.4506,-3.3972,-3.3947,0.0,0.0,0.0,0.0,0.0,0.0,0.0,0.0,0.0,0.0,0.0,0.0,0.0,0.0,0.0,0.0,0.0,0.0,0.0,0.0,0.0,0.0,0.0,0.0,-3.1396,-3.1427,0.0,0.0,0.0,0.0,0.0,0.0,0.0,0.0,0.0,0.0,0.0,0.0,-2.9909,-2.9924,-2.9799,-2.9479,-2.9325,-2.9127,-2.8828,-2.828,-2.7618,-2.6855,-2.6272,-2.5554,0.0,0.0,0.0,0.0,0.0,0.0,0.0,0.0,0.0,0.0,0.0,0.0,0.0,0.0,0.0,0.0,0.0,0.0,0.0,0.0,0.0,0.0,0.0,0.0,0.0,0.0,0.0,0.0,0.0,0.0,0.0,0.0,-3.617,-3.6872,0.0,0.0,0.0,0.0,0.0,0.0,0.0,0.0,0.0,0.0,0.0,0.0,0.0,-4.0169,-4.0169,-3.9477,-3.913,-3.913,-3.8354,-3.7959,-3.7874,-3.7825,-3.7647,-3.7376,-3.7055,0.0,-3.4233,-3.4124,0.0,0.0,0.0,0.0,0.0,0.0,0.0,0.0,0.0,0.0,0.0,0.0,0.0,0.0,0.0,0.0,0.0,0.0,0.0,0.0,0.0,0.0,-3.136,-3.2005,-3.2158,-3.2327,0.0,-3.1941,-3.1015,-3.1376,-3.0973,0.0,0.0,0.0,0.0,0.0,0.0,0.0,-3.1167,-3.1256,-3.1127,-3.0881,-3.0661,-3.041,-3.0097,-2.916,-2.8535,-2.839,-2.7002,-2.6033,-2.5691,-2.5076,0.0,0.0,0.0,0.0,0.0,0.0,0.0,0.0,0.0,0.0,0.0,0.0,0.0,0.0,0.0,0.0,0.0,0.0,0.0,0.0,0.0,0.0,0.0,0.0,0.0,0.0,0.0,0.0,0.0,-3.6245,-3.6646,-3.699,-3.7432,-3.8064,0.0,0.0,0.0,0.0,0.0,0.0,0.0,0.0,0.0,-4.0496,-4.0496,-4.0496,-4.0496,-4.015,-3.9977,-3.9977,-3.9592,-3.9396,-3.9349,-3.9328,-3.8976,-3.8384,-3.8203,-3.7318,-3.5961,-3.5726,-3.5514,-3.5361,0.0,0.0,0.0,0.0,-3.4192,-3.3807,-3.3807,-3.3807,0.0,-3.3807,0.0,0.0,0.0,0.0,0.0,0.0,0.0,0.0,0.0,0.0,-3.2608,-3.2852,-3.2916,-3.3,-3.3339,-3.2774,-3.2232,0.0,-3.1792,-3.1477,-3.1665,0.0,0.0,0.0,0.0,-3.1167,-3.1466,-3.1511,-3.1424,-3.1234,-3.1146,-3.0969,-3.0598,-3.0081,-2.9495,-2.884,-2.805,-2.7096,-2.5943,-2.5585,-2.5085,0.0,0.0,0.0,0.0,0.0,0.0,0.0,0.0,0.0,0.0,0.0,0.0,0.0,0.0,0.0,0.0,0.0,0.0,0.0,0.0,0.0,0.0,0.0,0.0,0.0,0.0,0.0,0.0,-3.676,-3.7355,-3.76,-3.8136,-3.8841,0.0,0.0,0.0,0.0,0.0,0.0,-4.0573,-4.0531,-4.0496,-4.0496,-4.0496,-4.0496,-4.0496,-4.0496,-4.0496,-4.0496,-4.0496,-4.05,-4.0499,-4.051,-4.0079,-3.9343,-3.9223,-3.8705,-3.7907,-3.7147,-3.6719,-3.6513,-3.6454,-3.597,-3.5334,-3.5334,-3.4963,-3.4431,-3.4431,-3.4431,-3.4431,-3.4431,-3.4431,-3.4417,-3.432,0.0,0.0,0.0,0.0,-3.4332,-3.3999,-3.3755,-3.362,-3.3664,-3.3677,-3.3744,-3.3909,-3.3912,-3.3705,0.0,-3.2676,-3.2402,-3.252,0.0,0.0,0.0,0.0,-3.1568,-3.1511,-3.1511,-3.1438,-3.1307,-3.1307,-3.1161,-3.0821,-3.0672,-3.0215,-2.9261,-2.8911,-2.8075,-2.6626,-2.6255,-2.5741,-2.5033,0.0,0.0,0.0,0.0,0.0,0.0,0.0,0.0,0.0,0.0,0.0,0.0,0.0,0.0,0.0,0.0,0.0,0.0,0.0,0.0,0.0,0.0,0.0,0.0,0.0,0.0,0.0,0.0,0.0,-3.9186,-3.9315,0.0,0.0,0.0,0.0,-4.0595,-4.0607,-4.0573,-4.0516,-4.0496,-4.0496,-4.0496,-4.0496,-4.0496,-4.0496,-4.0496,-4.0496,-4.0496,-4.0496,-4.0496,-4.0489,-4.0507,-4.0438,-4.0313,-4.0177,-3.9992,-3.9624,-3.7765,-3.6839,-3.6581,-3.6505,-3.6394,-3.6229,-3.6229,-3.6211,-3.6156,-3.6156,-3.6156,-3.6156,-3.6156,-3.6156,-3.6127,-3.5944,-3.5815,0.0,0.0,-3.4799,-3.4409,-3.4002,-3.3755,-3.3739,-3.4312,-3.4438,-3.4641,-3.5329,-3.5448,-3.5104,0.0,-3.3617,-3.334,-3.3431,0.0,-3.2555,-3.2066,-3.187,-3.1727,-3.1511,-3.1511,-3.1438,-3.1307,-3.1307,-3.1161,-3.0821,-3.0672,-3.0447,-3.0068,-2.9332,-2.8723,-2.8379,-2.7207,-2.6408,-2.612,-2.5361,0.0,0.0,0.0,0.0,0.0,0.0,0.0,0.0,0.0,0.0,0.0,0.0,0.0,0.0,0.0,0.0,0.0,0.0,0.0,0.0,0.0,0.0,0.0,0.0,0.0,0.0,0.0,0.0,-3.9302,-3.9783,0.0,-4.0515,-4.0542,-4.0534,-4.0539,-4.0531,-4.0531,-4.0496,-4.0496,-4.0496,-4.0496,-4.0496,-4.0496,-4.0496,-4.0496,-4.0496,-4.0496,-4.0496,-4.0496,-4.0496,-4.05,-4.0463,-4.0379,-4.0252,-4.0059,-3.9769,-3.8954,-3.8452,-3.8206,-3.8085,-3.7661,-3.707,-3.707,-3.6725,-3.6303,-3.6303,-3.6303,-3.6303,-3.6303,-3.6303,-3.6366,-3.6678,-3.6653,-3.6537,-3.6666,-3.641,-3.6009,-3.5569,-3.5299,-3.5172,-3.5209,-3.5216,-3.5278,-3.5532,-3.5594,-3.5459,-3.5048,-3.4502,-3.4015,-3.3688,-3.3166,-3.2641,-3.2206,-3.194,-3.1727,-3.1539,-3.1511,-3.1467,-3.1438,-3.1438,-3.1351,-3.1146,-3.1014,-3.0702,-3.028,-2.9883,-2.931,-2.8521,-2.8045,-2.7357,-2.6362,-2.6042,-2.5612,0.0,0.0,0.0,0.0,0.0,0.0,0.0,0.0,0.0,0.0,0.0,0.0,0.0,0.0,0.0,0.0,0.0,0.0,0.0,0.0,0.0,0.0,0.0,0.0,0.0,0.0,-3.9692,-3.9708,-4.0189,-4.0496,-4.0496,-4.0496,-4.0496,-4.0496,-4.0496,-4.0631,-4.0912,-4.0931,-4.1066,-4.1381,-4.1381,-4.1381,-4.1381,-4.1381,-4.1381,-4.1381,-4.1381,-4.1227,-4.0931,-4.0931,-4.0748,-4.0379,-4.0271,-4.007,-3.9815,-3.9599,-3.935,-3.9087,-3.895,-3.849,-3.7915,-3.7915,-3.7569,-3.711,-3.711,-3.711,-3.711,-3.711,-3.711,-3.7173,-3.7499,-3.7453,-3.7332,-3.7488,-3.7242,-3.6831,-3.6364,-3.6105,-3.5866,-3.5644,-3.56,-3.56,-3.56,-3.56,-3.5571,-3.5452,-3.5041,-3.4521,-3.3924,-3.3377,-3.2846,-3.2274,-3.2025,-3.1784,-3.1539,-3.1511,-3.1511,-3.1511,-3.1511,-3.1438,-3.1307,-3.119,-3.0895,-3.0447,-3.0249,-2.9789,-2.8968,-2.8757,-2.8176,-2.7204,-2.6744,-2.6131,-2.5272,0.0,0.0,0.0,0.0,0.0,0.0,0.0,0.0,0.0,0.0,0.0,0.0,0.0,0.0,0.0,0.0,0.0,0.0,0.0,0.0,0.0,0.0,0.0,-3.9443,-4.006,-4.0496,-4.0496,-4.0496,-4.0496,-4.0496,-4.0496,-4.0516,-4.0535,-4.0535,-4.0912,-4.1788,-4.1846,-4.2239,-4.3066,-4.3104,-4.3104,-4.3104,-4.3104,-4.3104,-4.3104,-4.3104,-4.2662,-4.1846,-4.1846,-4.1344,-4.0475,-4.0309,-4.0128,-3.9916,-3.963,-3.935,-3.9087,-3.895,-3.8825,-3.8707,-3.8707,-3.8707,-3.8707,-3.8707,-3.8707,-3.8707,-3.8707,-3.8707,-3.8658,-3.8465,-3.8269,-3.8,-3.7523,-3.711,-3.6713,-3.6314,-3.5993,-3.5773,-3.5622,-3.56,-3.56,-3.56,-3.56,-3.5532,-3.5337,-3.5198,-3.4899,-3.4226,-3.3745,-3.3198,-3.233,-3.2094,0.0,-3.1539,-3.1511,-3.1511,-3.1511,-3.1511,-3.1438,-3.1322,-3.119,-3.0955,-3.0628,-3.0417,-3.016,-2.9839,-2.9242,-2.8856,-2.8719,-2.7453,-2.6358,-2.5453,0.0,0.0,0.0,0.0,0.0,0.0,0.0,0.0,0.0,0.0,0.0,0.0,0.0,0.0,0.0,0.0,0.0,0.0,0.0,0.0,0.0,0.0,-4.0326,-4.0282,-4.0411,-4.0496,-4.0496,-4.0496,-4.0496,-4.0496,-4.0496,-4.0766,-4.1393,-4.145,-4.1816,-4.2701,-4.2739,-4.2854,-4.3085,-4.3104,-4.3104,-4.3104,-4.3104,-4.3104,-4.3104,-4.3104,-4.297,-4.2739,-4.2739,-4.2554,-4.2179,-4.1447,-4.1013,-4.0704,-3.9844,-3.9311,-3.9021,-3.8921,-3.8825,-3.8707,-3.8707,-3.8707,-3.8707,-3.8707,-3.8707,-3.8707,-3.8707,-3.8707,-3.8658,-3.8465,-3.8269,-3.8,-3.7523,-3.711,-3.6713,-3.6314,-3.5993,-3.5773,-3.5622,-3.56,-3.56,-3.56,-3.56,-3.5571,-3.5469,-3.5268,-3.4899,-3.4226,-3.3684,-3.3134,-3.2453,-3.215,0.0,-3.1539,-3.1511,-3.1511,-3.1511,-3.1511,-3.1511,-3.1438,-3.1322,-3.1131,-3.0911,-3.0657,-3.0417,-3.016,-2.9925,-2.9549,-2.9064,-2.7897,-2.7113,0.0,0.0,0.0,0.0,0.0,0.0,0.0,0.0,0.0,0.0,0.0,0.0,0.0,0.0,0.0,0.0,0.0,0.0,0.0,0.0,0.0,0.0,-4.0707,-4.0631,-4.0573,-4.0531,-4.0496,-4.0496,-4.0496,-4.065,-4.1008,-4.1046,-4.1412,-4.2277,-4.2335,-4.272,-4.3566,-4.3605,-4.3778,-4.4143,-4.4143,-4.4143,-4.4143,-4.4143,-4.4143,-4.4143,-4.4143,-4.3951,-4.3605,-4.3605,-4.3351,-4.2869,-4.2297,-4.189,-4.1548,-4.052,-3.9892,0.0,0.0,0.0,0.0,0.0,-3.8707,-3.8707,-3.8707,-3.8707,-3.8707,-3.8707,-3.8707,-3.8658,-3.8465,-3.8269,-3.8,-3.7523,-3.711,-3.6713,-3.6314,-3.5993,-3.5773,-3.5622,-3.56,-3.56,-3.56,-3.56,-3.5554,-3.5429,-3.5198,0.0,-3.4201,-3.3642,-3.3022,-3.2398,-3.2094,-3.1826,-3.1539,-3.1511,-3.1511,-3.1511,-3.1511,-3.1511,-3.1511,-3.138,0.0,0.0,0.0,-3.0732,-3.0507,-3.0371,0.0,0.0,0.0,-2.8204,-2.7544,0.0,0.0,0.0,-2.4865,-2.4536,0.0,0.0,0.0,0.0,0.0,0.0,0.0,0.0,0.0,0.0,0.0,0.0,0.0,0.0,0.0,0.0,-4.064,-4.0573,-4.0504,-4.0573,-4.065,-4.065,-4.065,-4.0989,-4.1854,-4.1942,-4.2297,-4.3162,-4.3239,-4.3585,-4.4393,0.0,0.0,0.0,0.0,-4.5594,-4.5594,-4.5594,-4.5594,-4.5594,-4.5594,-4.519,-4.4451,-4.4451,-4.3985,-4.3185,-4.3015,-4.278,-4.2458,-4.1448,-4.0825,-4.0391,-3.9305,-3.8792,-3.8707,-3.8707,-3.8707,-3.8707,-3.8707,0.0,0.0,-3.8707,-3.8707,-3.8658,-3.8465,-3.8269,-3.8017,-3.7523,-3.7129,-3.6733,-3.6314,-3.6014,-3.5773,-3.5644,-3.5622,-3.56,-3.56,-3.56,-3.5532,-3.5337,-3.5105,-3.4756,-3.4201,-3.3626,-3.298,-3.2342,-3.1981,-3.1756,-3.1568,-3.1511,-3.1511,-3.1511,0.0,0.0,-3.1511,-3.138,-3.1322,-3.1322,-3.119,-3.1043,-3.0821,-3.0732,-3.0469,-3.0045,-2.9972,-2.9356,-2.8184,-2.8037,-2.7469,-2.6531,-2.5688,-2.5146,0.0,0.0,0.0,0.0,0.0,0.0,0.0,0.0,0.0,0.0,0.0,0.0,0.0,0.0,0.0,-4.0713,-4.0639,-4.0573,-4.0504,-4.1104,-4.1546,-4.1546,-4.1546,-4.1893,-4.2758,-4.2854,-4.3181,-4.4008,-4.4066,-4.4432,-4.5306,-4.5344,-4.5441,-4.5594,-4.5594,-4.5594,-4.5594,-4.5594,-4.5594,-4.5594,0.0,0.0,-4.5344,-4.5344,-4.5213,-4.4948,-4.4183,-4.3699,-4.3373,-4.2309,-4.1562,-4.0972,-3.9347,-3.8719,-3.8707,-3.8707,-3.8707,-3.8707,-3.8707,-3.8707,-3.8707,-3.8707,-3.8707,-3.8658,-3.8465,-3.8336,0.0,-3.7559,-3.715,-3.6799,-3.6385,-3.6041,-3.5795,-3.5773,-3.5667,-3.56,-3.56,-3.56,-3.5532,-3.5337,-3.5175,-3.4851,-3.4226,-3.3642,-3.3118,-3.2602,-3.2191,-3.1912,-3.1756,-3.1597,-3.1511,-3.1511,-3.1511,-3.1511,-3.1511,-3.1467,-3.1467,-3.1467,-3.1322,-3.122,-3.1043,-3.1014,-3.0955,-3.0867,-3.0451,-3.0094,-2.9842,-2.8791,-2.8187,-2.7974,-2.6554,-2.5688,0.0,0.0,0.0,0.0,0.0,0.0,0.0,0.0,0.0,0.0,0.0,-4.1068,0.0,0.0,-4.0767,-4.0674,-4.0957,-4.1185,-4.1162,-4.1893,-4.2297,-4.1846,-4.22,-4.2777,-4.3624,-4.3701,-4.4047,-4.4902,-4.496,-4.5152,-4.5575,-4.5594,-4.5594,-4.5594,-4.5594,-4.5594,-4.5594,-4.5594,-4.5594,-4.5594,-4.5594,-4.5594,-4.5594,-4.5594,-4.5568,-4.5475,-4.4959,-4.4598,-4.4246,-4.2978,-4.1994,-4.1203,-4.0276,-3.9662,-3.9239,-3.8854,-3.8707,-3.8707,-3.8707,-3.8707,-3.8707,-3.8707,-3.8707,-3.8658,-3.8512,-3.8368,-3.8206,-3.7775,-3.7393,-3.6993,-3.6553,-3.6233,-3.5971,-3.5839,-3.5689,-3.56,-3.56,-3.56,-3.5554,-3.5429,-3.5291,-3.5018,-3.4497,-3.4075,-3.3549,-3.2803,-3.237,-3.2066,-3.2025,-3.1855,-3.1712,-3.167,-3.167,-3.1597,-3.1511,-3.1511,-3.1511,-3.1511,-3.1438,-3.138,-3.1307,-3.1307,-3.1307,-3.1307,-3.1038,-3.0753,-3.041,-2.9468,-2.8773,-2.8378,-2.7267,-2.6472,0.0,0.0,0.0,0.0,0.0,0.0,0.0,0.0,-4.1172,-4.1109,-4.1091,-4.1091,-4.1147,-4.1087,-4.1048,-4.1091,-4.164,-4.2038,-4.2038,-4.2797,-4.3066,-4.2374,-4.2912,-4.3643,-4.447,-4.4547,-4.4836,-4.5556,-4.5594,-4.5594,-4.5594,-4.5594,-4.5594,-4.5594,-4.5594,-4.5594,-4.5594,-4.5594,-4.5594,-4.5594,-4.5594,-4.5594,-4.5594,-4.5594,-4.5568,-4.5513,-4.539,-4.5186,-4.4838,-4.3563,-4.2539,-4.1757,-4.1452,-4.0946,-4.0267,-3.946,-3.9166,-3.9166,-3.9166,-3.9166,-3.9166,-3.9166,-3.9166,-3.915,-3.9017,-3.8907,-3.8761,-3.8454,-3.8007,-3.7509,-3.7044,-3.6589,-3.6187,-3.5927,-3.5773,-3.5622,-3.56,-3.56,-3.5594,-3.5514,-3.5423,-3.5222,-3.4851,-3.457,-3.4084,-3.3124,-3.2629,-3.237,-3.2315,-3.2163,-3.2025,-3.1898,-3.1841,-3.1784,-3.1626,-3.1568,-3.1568,-3.1568,-3.1511,-3.1511,-3.1511,-3.1511,-3.1511,-3.1511,-3.1511,-3.1227,-3.0702,-3.0073,-2.9376,-2.8624,-2.7958,-2.7273,-4.0873,-4.0977,0.0,-4.1101,-4.1109,-4.1112,0.0,0.0,-4.1172,-4.1109,-4.1048,-4.1215,-4.1937,-4.1959,-4.2086,-4.2809,-4.293,-4.2951,-4.2951,-4.3643,-4.4124,-4.4028,-4.4105,-4.4509,-4.5364,-4.546,-4.5498,-4.5594,-4.5594,-4.5594,-4.5594,-4.5594,-4.5594,-4.5594,-4.5594,-4.5594,-4.5594,-4.5594,-4.5594,-4.5594,-4.5594,-4.5594,-4.5594,-4.5594,-4.5605,-4.5568,-4.5269,-4.4979,-4.4693,-4.4106,-4.3743,-4.3437,-4.2518,-4.2103,-4.1937,-4.1132,-4.082,-4.082,-4.082,-4.082,-4.082,-4.082,-4.082,-4.0822,-4.0738,-4.0723,-4.0604,-4.0239,-3.9445,-3.8631,-3.821,-3.7298,-3.6419,-3.6187,-3.5949,-3.5751,-3.5622,-3.56,-3.5594,-3.5514,-3.5492,-3.54,-3.5088,-3.4923,-3.4546,-3.372,-3.3298,-3.2991,-3.2761,-3.252,-3.2287,-3.2178,-3.2053,-3.1968,-3.194,-3.1826,-3.1756,-3.1756,-3.1597,-3.1511,-3.1511,-3.1511,-3.1511,-3.1511,-3.1511,-3.1466,-3.1391,-3.0731,-3.0073,-2.946,-2.8775,-2.7913,-4.1007,0.0,0.0,0.0,-4.1131,-4.1172,-4.1191,-4.1562,-4.1894,-4.185,-4.2217,-4.2599,-4.2895,-4.2851,-4.2859,0.0,-4.3527,-4.3797,-4.3797,-4.4509,-4.5056,-4.5056,-4.5056,-4.521,-4.5556,-4.5594,-4.5594,-4.5594,-4.5594,-4.5594,-4.5594,-4.5594,-4.5594,-4.5594,-4.5594,-4.5594,-4.5594,-4.5594,-4.5594,-4.5594,-4.5594,-4.5594,-4.5594,-4.5594,-4.5569,-4.5467,-4.5213,-4.4938,-4.4619,-4.4188,-4.3913,-4.3751,-4.3198,-4.3002,-4.2837,-4.1572,-4.1095,-4.1095,-4.1095,-4.1095,-4.1095,-4.1095,-4.1095,-4.1095,-4.1062,-4.1029,-4.0946,-4.0704,-4.0221,-3.9606,-3.8803,-3.7983,-3.7168,-3.6443,-3.6019,-3.5773,-3.5622,-3.56,-3.56,-3.5571,-3.5549,-3.552,-3.536,-3.5291,-3.5065,-3.4594,-3.4059,-3.3688,-3.3585,-3.3245,-3.2915,-3.2574,-3.237,-3.2247,-3.2247,-3.2163,-3.2122,-3.2038,-3.1953,-3.1868,-3.1798,-3.1712,-3.167,-3.167,-3.1568,-3.1511,-3.1511,-3.0836,-3.0178,-2.9592,-2.8906,-2.8155,-4.1095,0.0,0.0,-4.1405,-4.1504,-4.1582,-4.1836,-4.2344,-4.2754,-4.2768,-4.3212,-4.3652,-4.3833,-4.3724,-4.3684,-4.3863,-4.4317,-4.4662,-4.4662,-4.521,-4.5594,-4.5594,-4.5594,-4.5594,-4.5594,-4.5594,-4.5594,-4.5594,-4.5594,-4.5594,-4.5594,-4.5594,-4.5594,-4.5594,-4.5594,-4.5594,-4.5594,-4.5594,-4.5594,-4.5594,-4.5594,-4.5594,-4.5594,-4.5577,-4.5505,-4.5398,-4.517,-4.4883,-4.4565,-4.4173,-4.3913,-4.3788,-4.3566,-4.3515,-4.3368,-4.2194,-4.1772,-4.1772,-4.1772,-4.1772,-4.1772,-4.1772,-4.1772,-4.1772,-4.1772,-4.1722,-4.1672,-4.155,-4.1178,-4.0564,-3.9478,-3.8685,-3.7837,-3.6662,-3.6148,-3.5861,-3.5689,-3.5622,-3.56,-3.56,-3.56,-3.5577,-3.5543,-3.552,-3.5452,-3.5274,-3.4811,-3.4423,-3.4226,-3.3848,-3.3461,-3.3033,-3.2819,-3.2699,-3.2645,-3.259,-3.2535,-3.2441,-3.2342,-3.2274,-3.2178,-3.1996,-3.1912,-3.1912,-3.1741,-3.1626,-3.1568,-3.1102,-3.0428,-2.9592,-2.9086,-2.8438,0.0,0.0,-4.1307,-4.2148,-4.2363,-4.2578,-4.3437,-4.3633,-4.3652,-4.3667,-4.3622,-4.3847,-4.4623,-4.4597,-4.4728,-4.5503,-4.5596,-4.5556,-4.5556,-4.5575,-4.5594,-4.5594,-4.5594,-4.5594,0.0,-4.5594,-4.5594,-4.5594,-4.5594,-4.5594,-4.5594,-4.5594,-4.5594,-4.5594,-4.5594,-4.5594,-4.5594,-4.5594,-4.5594,-4.5594,-4.5594,-4.5594,-4.5594,-4.5522,-4.5467,-4.5398,-4.5125,-4.4846,-4.4565,-4.4173,-4.3913,-4.3788,-4.3566,-4.3515,-4.3496,-4.346,-4.3441,-4.3441,-4.3441,-4.3441,-4.3441,-4.3441,-4.3441,-4.3441,-4.3441,-4.3441,-4.3407,-4.3338,-4.2612,-4.1615,-4.0527,-3.9362,-3.8172,-3.6888,-3.6381,-3.6118,-3.5839,-3.5689,-3.56,-3.56,-3.56,-3.56,-3.56,-3.56,-3.56,-3.5577,-3.552,-3.5222,-3.457,-3.4151,-3.3771,-3.3503,-3.3477,-3.3424,-3.3266,-3.3076,-3.298,-3.298,-3.2738,-3.2602,-3.2574,-3.2315,-3.2191,-3.2191,-3.2038,-3.1912,-3.1799,-3.1769,-3.1035,-2.9606,-2.9592,-2.8858,-4.197,0.0,-4.289,-4.3183,-4.3262,-4.334,-4.3633,-4.4141,-4.455,-4.4565,-4.4976,-4.5382,-4.5628,-4.5531,-4.5497,-4.5665,-4.5635,-4.5594,-4.5594,-4.5594,-4.5594,-4.5594,-4.5594,0.0,0.0,0.0,0.0,-4.5594,-4.5594,-4.5594,-4.5594,-4.5594,-4.5594,-4.5594,-4.5594,-4.5594,-4.5594,-4.5594,-4.5594,-4.5594,-4.5594,-4.5594,-4.5594,-4.5577,-4.5515,-4.5398,-4.5159,-4.4883,-4.4565,-4.4173,-4.3913,-4.3788,-4.3566,-4.3515,-4.3515,-4.3515,-4.3515,-4.3515,-4.3515,-4.3515,-4.3515,-4.3515,-4.3515,-4.3515,-4.3515,-4.3515,-4.3369,-4.2821,-4.2388,-4.1738,-4.0181,-3.9265,-3.8464,-3.7226,-3.6652,-3.6335,-3.6101,-3.5883,-3.5728,-3.5728,-3.5667,-3.56,-3.56,-3.56,-3.56,-3.56,-3.5543,-3.5337,-3.4947,-3.4691,-3.4448,-3.4201,-3.4075,-3.3975,-3.3848,-3.3771,-3.3704,-3.3601,-3.3523,-3.3393,-3.3182,-3.298,-3.2792,-3.2586,-3.2465,-3.2302,-3.2066,-3.1625,-3.0873,-2.986,-2.9328,-2.8583,-4.2772,-4.3261,-4.3769,-4.4082,-4.416,-4.4258,-4.4551,-4.5058,-4.5468,-4.5463,-4.5854,-4.6181,-4.6115,-4.5978,-4.5826,-4.5723,-4.5635,-4.5594,-4.5594,-4.5594,-4.5594,-4.5594,-4.5594,0.0,0.0,0.0,0.0,-4.5594,-4.5594,-4.5594,-4.5594,-4.5594,-4.5594,-4.5594,-4.5594,-4.5594,-4.5594,-4.5594,-4.5594,-4.5594,-4.5594,-4.5594,-4.5594,-4.5577,-4.5495,-4.5398,-4.5181,-4.4919,-4.4605,-4.4229,-4.3989,-4.3851,-4.3615,-4.3549,-4.3531,-4.3515,-4.3515,-4.3515,-4.3515,-4.3515,-4.3515,-4.3515,-4.3515,-4.3515,-4.3515,-4.3313,-4.2947,-4.2451,-4.2035,-4.1403,-3.9901,-3.9263,-3.8707,-3.7495,-3.6952,-3.665,-3.6402,-3.6148,-3.5975,-3.5949,-3.5795,-3.5667,-3.5667,-3.5622,-3.56,-3.56,-3.5571,-3.5475,-3.5268,-3.5128,-3.497,-3.4739,-3.4643,-3.4521,-3.4399,-3.4399,-3.4349,-3.425,-3.4226,-3.4101,-3.3873,-3.3652,-3.3429,-3.3203,-3.3007,-3.2683,-3.2191,-3.1667,-3.0883,-2.9806,-2.9214,-2.8551,-4.3535,-4.3808,-4.4023,-4.4863,-4.5078,-4.5273,-4.6113,-4.6308,-4.6308,-4.6303,-4.6259,-4.6189,0.0,0.0,-4.5786,-4.5723,-4.5635,-4.5594,-4.5594,-4.5594,-4.5594,0.0,0.0,0.0,0.0,0.0,0.0,-4.5594,0.0,-4.5594,-4.5594,-4.5594,-4.5594,-4.5594,-4.5594,-4.5594,-4.5594,-4.5594,-4.5594,-4.5594,-4.5594,-4.5594,-4.5594,-4.5522,-4.5467,-4.5379,-4.5192,-4.4955,-4.468,-4.4355,-4.4136,-4.3989,-4.3716,-4.3599,-4.3582,-4.3513,-4.3515,-4.3496,-4.346,-4.3478,-4.3515,-4.3515,-4.3478,-4.3441,-4.3441,-4.2873,-4.2231,-4.2194,-4.1541,-4.0635,-3.9683,-3.9295,-3.8869,-3.77,-3.728,-3.7032,-3.6716,-3.6489,-3.6301,-3.6251,-3.6014,-3.5817,-3.5817,-3.5689,-3.5622,-3.5622,-3.5622,-3.5577,-3.5514,-3.5383,-3.5268,-3.5111,-3.5128,-3.5065,-3.4923,-3.4923,-3.4923,-3.4923,-3.4804,-3.4667,-3.4546,-3.43,-3.4075,-3.3949,-3.3636,-3.3079,-3.2254,-3.1924,-3.0974,-2.9534,-2.931,-2.8772,-4.4433,-4.5137,-4.5683,-4.5918,-4.5976,-4.6035,-4.625,-4.6308,-4.6306,-4.6297,-4.6253,-4.6167,-4.605,0.0,0.0,-4.5723,-4.5635,0.0,-4.5594,-4.5594,0.0,0.0,0.0,-4.5594,-4.5594,-4.5594,0.0,0.0,-4.5594,-4.5594,-4.5594,-4.5594,-4.5594,-4.5594,-4.5594,-4.5594,-4.5594,-4.5594,-4.5594,-4.5594,-4.5594,-4.5594,-4.5594,-4.5577,-4.5504,-4.54,-4.5231,-4.5045,-4.4821,-4.4527,-4.4288,-4.4048,-4.3832,-4.3684,-4.3582,-4.3513,-4.3515,-4.3423,-4.28,-4.3002,-4.3515,-4.3515,-4.3075,-4.2598,-4.2598,-4.2047,-4.1295,-4.0671,-4.0343,-3.9944,-3.9008,-3.8676,-3.8474,-3.7969,-3.7685,-3.7468,-3.7245,-3.6956,-3.6719,-3.6673,-3.636,-3.6058,-3.5971,-3.591,-3.5888,-3.5888,-3.5888,-3.5822,-3.56,-3.5532,-3.5481,-3.5423,-3.54,-3.5337,-3.5198,-3.5198,-3.5198,-3.5198,-3.5175,-3.5105,-3.4947,-3.4875,-3.4715,-3.4497,-3.3787,-3.3234,-3.2779,-3.155,-3.0672,-3.0085,-2.9327,-2.8745,-4.5332,-4.5937,-4.6308,-4.6308,-4.6308,-4.6308,-4.6307,-4.6305,-4.628,-4.6266,-4.6194,0.0,-4.5988,0.0,0.0,0.0,0.0,0.0,-4.5594,-4.5594,-4.5594,0.0,-4.5594,0.0,-4.5594,-4.5594,-4.5594,0.0,-4.5594,-4.5594,-4.5594,-4.5594,-4.5594,-4.5594,-4.5594,-4.5594,-4.5594,-4.5594,-4.5594,-4.5594,-4.5594,-4.5594,-4.5594,-4.5594,-4.5531,-4.5438,0.0,-4.5178,-4.5003,-4.477,-4.4519,-4.4248,-4.3992,-4.3818,-4.3667,-4.3549,-4.3277,-4.291,-4.2451,-4.2359,-4.2451,-4.2451,-4.2139,-4.1772,-4.1772,-4.1222,-4.0487,-4.0029,-3.9643,-3.9242,-3.8653,-3.8478,-3.8382,-3.8188,-3.8036,-3.7915,-3.7703,-3.745,-3.7169,-3.6898,-3.6652,-3.6423,-3.6255,-3.6212,-3.6212,-3.6212,-3.6237,-3.6195,-3.6019,-3.5822,-3.5684,-3.5633,-3.5588,-3.5503,-3.5435,-3.5435,-3.5435,-3.5435,-3.5435,-3.5367,-3.5268,-3.4933,-3.4658,-3.4482,-3.3598,-3.2915,-3.2466,-3.1472,-3.0739,-3.0245,-2.9601,-2.9136,-4.6055,-4.6308,-4.6308,-4.6307,-4.6306,-4.6305,-4.6281,-4.6294,-4.6264,-4.6201,0.0,-4.605,-4.5925,-4.5841,-4.5777,-4.5717,0.0,-4.5594,-4.5594,-4.5594,-4.5594,-4.5594,-4.5594,-4.5594,-4.5594,-4.5594,-4.5594,-4.5594,-4.5594,-4.5594,-4.5594,-4.5594,-4.5594,-4.5594,-4.5594,-4.5594,-4.5594,-4.5594,-4.5594,-4.5594,-4.5594,-4.5594,-4.5594,-4.5594,-4.5568,-4.5495,-4.5438,0.0,-4.5192,-4.501,-4.4776,-4.4482,-4.4158,-4.3945,-4.3804,-4.3583,-4.3001,-4.2286,-4.2176,-4.1625,-4.0948,-4.1058,-4.1022,-4.093,-4.093,-4.0377,-3.9735,-3.9735,-3.9239,-3.8673,-3.8559,-3.8525,-3.8478,-3.8354,-3.834,-3.8272,-3.8086,-3.7897,-3.7595,-3.7094,-3.6937,-3.6816,-3.6629,-3.6588,-3.6588,-3.6588,-3.6652,-3.6673,-3.6609,-3.617,-3.5861,-3.5861,-3.5728,-3.5622,-3.5622,-3.5622,-3.56,-3.56,-3.5498,-3.5419,-3.5363,-3.4605,-3.4157,-3.4091,-3.3173,-3.2429,-3.185,-3.1504,-3.0973,-3.0253,-3.0006,-2.9722,-4.6055,-4.6308,-4.6307,-4.6307,-4.6302,-4.6295,-4.6228,-4.6214,0.0,0.0,0.0,-4.5997,-4.5918,-4.5805,0.0,-4.5709,0.0,0.0,0.0,0.0,-4.5594,0.0,0.0,0.0,0.0,0.0,0.0,0.0,0.0,-4.5594,-4.5594,-4.5594,-4.5594,-4.5594,-4.5594,-4.5594,-4.5594,-4.5594,-4.5594,-4.5594,-4.5594,-4.5594,-4.5594,-4.5594,-4.5568,-4.5504,-4.5495,0.0,-4.5275,-4.5125,-4.4907,-4.4627,-4.4298,-4.4048,-4.3867,-4.3667,-4.3034,-4.2194,-4.1535,-4.0781,-4.0212,-4.0875,-4.0653,-4.0102,-4.0102,-3.9551,-3.8909,-3.8909,-3.8817,-3.8692,-3.8673,-3.8658,-3.8624,-3.8512,-3.8462,-3.843,-3.835,-3.8168,-3.7931,-3.7613,-3.7468,-3.7302,-3.7111,-3.7073,-3.7073,-3.7073,-3.7092,-3.7092,-3.7073,-3.6574,-3.6191,-3.6122,-3.5905,-3.5773,-3.5773,-3.5667,-3.56,-3.56,-3.503,-3.4692,-3.467,-3.3938,-3.355,-3.3545,-3.2681,-3.2165,-3.2047,-3.134,-3.0866,-3.0609,-3.0447,-3.0199,-4.6191,-4.6307,-4.6284,-4.6256,-4.6241,-4.624,-4.6159,0.0,0.0,0.0,-4.5961,-4.5918,-4.5812,0.0,0.0,0.0,0.0,0.0,0.0,0.0,0.0,0.0,0.0,0.0,0.0,0.0,0.0,0.0,0.0,-4.5594,-4.5594,-4.5594,-4.5594,-4.5594,-4.5594,-4.5594,-4.5594,-4.5594,-4.5594,-4.5594,-4.5594,-4.5594,-4.5594,-4.5594,-4.5577,-4.5559,-4.5559,0.0,-4.5341,-4.5277,-4.5068,-4.4719,-4.4421,-4.4166,-4.3855,-4.3219,-4.2441,-4.1618,-4.0779,-3.9955,-3.935,-3.9735,-3.9588,-3.9276,-3.9276,-3.9019,-3.8707,-3.8707,-3.8707,-3.8707,-3.8707,-3.8707,-3.8673,-3.8624,-3.8609,-3.8593,-3.8478,-3.8382,-3.8252,-3.8053,-3.7897,-3.7774,-3.7632,-3.7632,-3.7632,-3.7632,-3.765,-3.765,-3.7614,-3.7264,-3.6895,-3.655,-3.6255,-3.6041,-3.6014,-3.5465,-3.5135,-3.5135,-3.4358,-3.3931,-3.3931,-3.322,-3.2831,-3.2831,-3.2046,-3.1618,-3.1618,-3.124,-3.0992,-3.0855,-3.0794,-3.0613,-4.6306,-4.6282,-4.6273,-4.6208,-4.6195,-4.6157,-4.6072,-4.6027,0.0,0.0,-4.5867,-4.5812,-4.5715,0.0,0.0,0.0,0.0,0.0,0.0,0.0,0.0,0.0,0.0,0.0,0.0,0.0,0.0,0.0,0.0,0.0,-4.5594,-4.5594,-4.5594,-4.5594,-4.5594,-4.5594,-4.5594,-4.5594,-4.5594,-4.5594,-4.5594,-4.5594,-4.5594,-4.5594,-4.5594,-4.5594,-4.5594,0.0,0.0,-4.5409,-4.5192,-4.4839,-4.4376,-4.406,-4.371,-4.2646,-4.1691,-4.087,-4.0165,-3.9383,-3.8707,-3.8707,-3.8707,-3.8707,-3.8707,-3.8707,-3.8707,-3.8707,-3.8707,-3.8707,-3.8707,-3.8707,-3.8707,-3.8707,-3.8707,-3.8673,-3.8575,-3.8525,-3.8512,-3.837,-3.8271,-3.8152,-3.8103,-3.8086,-3.8086,-3.8086,-3.8136,-3.808,-3.7851,-3.768,-3.731,-3.6635,-3.6347,-3.6143,-3.6094,-3.5137,-3.4525,-3.4542,-3.3698,-3.3207,-3.3207,-3.2462,-3.2056,-3.2056,-3.1515,-3.119,-3.119,-3.119,-3.1151,-3.1035,-3.1035,-3.0935,-4.6297,-4.6264,-4.6206,-4.6198,-4.615,-4.6089,-4.5952,0.0,0.0,-4.5812,-4.5754,-4.5708,-4.5698,-4.5648,-4.5614,0.0,0.0,0.0,0.0,0.0,0.0,0.0,0.0,0.0,0.0,0.0,0.0,0.0,0.0,0.0,-4.5594,-4.5594,-4.5594,-4.5594,-4.5594,-4.5594,-4.5594,-4.5594,-4.5594,-4.5594,-4.5594,-4.5594,-4.5594,-4.5594,-4.5594,-4.5594,-4.5594,0.0,0.0,-4.5429,-4.5307,-4.506,-4.3999,-4.3459,-4.3151,-4.2126,-4.1089,-4.0173,-4.0041,-3.943,-3.8707,-3.8707,-3.8707,-3.8707,-3.8707,-3.8707,-3.8707,-3.8707,-3.8707,-3.8707,-3.8707,-3.8707,-3.8707,-3.8707,-3.8707,-3.8692,-3.8673,-3.8673,-3.8643,-3.851,-3.8478,-3.8446,-3.8366,-3.8366,-3.8366,-3.8366,-3.8366,-3.8111,-3.7385,-3.7214,-3.6812,-3.5907,-3.5847,-3.5784,-3.5686,-3.4676,-3.4043,-3.3976,-3.3093,-3.2584,-3.2584,-3.1758,-3.1292,-3.1292,-3.1224,-3.119,-3.119,-3.119,-3.119,-3.1171,-3.1171,-3.1112,-4.6245,-4.6199,-4.6141,-4.615,-4.6052,-4.596,-4.5861,0.0,-4.5764,-4.5746,-4.5722,-4.569,-4.5648,-4.5622,-4.5594,-4.5594,0.0,0.0,0.0,0.0,0.0,0.0,0.0,0.0,0.0,0.0,0.0,0.0,0.0,0.0,-4.5594,-4.5594,-4.5594,-4.5594,-4.5594,-4.5594,-4.5594,-4.5594,-4.5594,-4.5594,-4.5594,-4.5594,-4.5594,-4.5594,-4.5594,-4.5594,-4.5594,0.0,0.0,-4.4747,-4.4336,-4.3649,-4.3106,-4.2789,-4.2536,-4.1429,-4.0719,-4.021,-3.9597,-3.9124,-3.8807,-3.8807,-3.8837,-3.8866,-3.8777,-3.8765,-3.8765,-3.8765,-3.8765,-3.875,-3.8723,-3.8707,-3.8707,-3.8707,-3.8707,-3.8707,-3.8707,-3.8707,-3.8673,-3.8624,-3.8624,-3.8609,-3.8596,-3.8578,-3.8413,-3.7918,-3.7845,-3.7571,-3.6765,-3.6562,-3.6355,-3.5982,-3.5675,-3.5439,-3.5313,-3.4316,-3.3655,-3.3542,-3.2622,-3.204,-3.1963,-3.1502,-3.1254,-3.1254,-3.123,-3.119,-3.119,-3.119,-3.119,-3.119,-3.119,-3.1171,-4.6182,-4.6141,-4.6084,-4.6056,-4.5943,-4.5847,0.0,0.0,-4.5695,-4.5673,-4.5665,-4.5648,-4.5622,-4.5594,-4.5594,-4.5594,0.0,-4.5594,0.0,0.0,0.0,0.0,0.0,0.0,0.0,0.0,0.0,0.0,0.0,0.0,-4.5594,-4.5594,-4.5594,-4.5594,-4.5594,-4.5594,-4.5594,-4.5594,-4.5594,-4.5594,-4.5594,-4.5594,-4.5594,-4.5325,-4.5229,-4.521,-4.496,0.0,0.0,-4.3929,-4.3473,-4.2757,-4.239,-4.2159,-4.1897,-4.0791,-4.027,-4.0042,-3.9333,-3.9036,-3.8964,-3.8979,-3.9021,-3.905,-3.8989,-3.8935,-3.8892,-3.8892,-3.8862,-3.8851,-3.878,-3.8765,-3.8765,-3.8765,-3.8765,-3.8765,-3.8765,-3.8765,-3.875,-3.8735,-3.8719,-3.8646,-3.8377,-3.834,-3.8065,-3.7272,-3.7144,-3.685,-3.6028,-3.5823,-3.5685,-3.5447,-3.5069,-3.486,-3.4928,-3.3965,-3.3283,-3.3161,-3.2405,-3.1911,-3.1766,-3.1579,-3.1428,-3.1391,-3.1274,-3.1232,-3.1232,-3.121,-3.119,-3.119,-3.119,-3.119,-4.6144,-4.6092,-4.6066,-4.5944,-4.5854,-4.5778,0.0,0.0,-4.5684,-4.5603,-4.5594,-4.5594,-4.5594,-4.5594,-4.5594,-4.5594,-4.5594,0.0,0.0,0.0,0.0,0.0,0.0,0.0,0.0,0.0,0.0,0.0,0.0,0.0,-4.5594,-4.5594,-4.5594,-4.5594,-4.5594,-4.5594,-4.5594,-4.5594,-4.5594,-4.5594,-4.5594,-4.5594,-4.5575,-4.4701,-4.4316,0.0,0.0,0.0,0.0,-4.3035,-4.3009,-4.2904,-4.1961,-4.1543,-4.1291,-4.0279,-3.9747,-3.9489,-3.935,-3.9205,-3.9115,-3.917,-3.9197,-3.9224,-3.935,-3.9245,-3.9101,-3.9101,-3.9064,-3.8979,-3.8925,-3.891,-3.891,-3.891,-3.891,-3.891,-3.891,-3.891,-3.8881,-3.8822,-3.8807,-3.8519,-3.7654,-3.7511,-3.7235,-3.6431,-3.6303,-3.6009,-3.5133,-3.5009,-3.4711,-3.3917,-3.3758,-3.3966,-3.4552,-3.3633,-3.2943,-3.2813,-3.2487,-3.2266,-3.2197,-3.1947,-3.1727,-3.1598,-3.1391,-3.1295,-3.1295,-3.1232,-3.119,-3.119,-3.119,-3.119,-4.6125,-4.6065,-4.5994,-4.5874,-4.5776,-4.573,-4.569,-4.5657,-4.5631,-4.5594,-4.5594,-4.5594,-4.5594,-4.5594,-4.5594,-4.5594,-4.5594,0.0,0.0,0.0,0.0,0.0,0.0,0.0,0.0,0.0,0.0,0.0,0.0,0.0,-4.5594,-4.5594,-4.5594,-4.5594,-4.5594,-4.5594,-4.5594,-4.5594,-4.5594,-4.5594,-4.4998,-4.4701,-4.4682,-4.3855,-4.347,0.0,0.0,0.0,0.0,-4.2184,-4.183,-4.1253,-4.0965,-4.0764,-4.0606,-4.0243,-3.9956,-3.9751,-3.9623,-3.9551,-3.9514,-3.9477,-3.9545,-3.9611,-3.9647,-3.9502,-3.9317,-3.9317,-3.9264,-3.9197,-3.9115,-3.912,-3.9087,-3.9045,-3.9031,-3.9031,-3.9031,-3.9031,-3.8869,-3.8303,-3.815,-3.7849,-3.7027,-3.6856,-3.6523,-3.569,-3.5547,-3.522,-3.4302,-3.4192,-3.4082,-3.3825,-3.378,-3.3835,-3.3966,-3.3593,-3.3298,-3.3226,-3.2928,-3.2718,-3.2619,-3.23,-3.2091,-3.2002,-3.1765,-3.1578,-3.1443,-3.1312,-3.1252,-3.119,-3.119,-3.119,0.0,-4.6052,-4.5968,-4.58,-4.5735,0.0,0.0,-4.5631,-4.5594,-4.5594,-4.5594,-4.5594,-4.5594,-4.5594,-4.5594,-4.5594,-4.5594,0.0,0.0,0.0,0.0,0.0,0.0,0.0,0.0,0.0,0.0,0.0,0.0,0.0,-4.5594,-4.5594,-4.5594,-4.5594,-4.5594,-4.5594,-4.5594,-4.5594,-4.5441,-4.5094,-4.4566,-4.4143,-4.3816,-4.2989,-4.2604,0.0,0.0,0.0,0.0,-4.1316,-4.0989,-4.0496,-4.0503,-4.0447,-4.037,-4.0299,-4.0167,-4.0,-3.9886,-3.9832,-3.981,-3.9788,-3.9873,-3.9948,-3.9948,-3.9785,-3.9575,-3.9551,-3.9526,-3.9477,-3.9401,-3.9389,-3.9363,-3.9298,-3.9285,-3.9197,-3.8872,-3.8798,-3.8561,-3.7689,-3.75,-3.7201,-3.6332,-3.6149,-3.5819,-3.4913,-3.4784,-3.456,-3.3915,-3.3847,-3.3834,-3.3788,-3.3807,-3.3793,-3.3739,-3.3647,-3.3549,-3.3524,-3.3316,-3.3147,-3.3019,-3.2718,-3.2521,-3.2386,-3.2109,-3.1856,-3.1653,-3.1411,-3.1293,-3.1232,-3.121,-3.119,0.0,-4.6042,0.0,0.0,0.0,0.0,0.0,-4.5594,0.0,-4.5594,-4.5594,-4.5594,-4.5594,-4.5594,-4.5594,-4.5594,-4.5594,0.0,0.0,0.0,0.0,0.0,0.0,0.0,0.0,0.0,0.0,0.0,0.0,0.0,-4.5594,-4.5594,-4.5594,-4.5594,-4.5537,-4.5518,-4.5518,-4.5518,-4.5075,-4.4201,-4.4143,-4.372,-4.2989,-4.2104,-4.1712,0.0,0.0,0.0,0.0,-4.0496,-4.0496,-4.0496,-4.0496,-4.0503,-4.0502,-4.0422,-4.0334,-4.0205,-4.0148,-4.0081,-4.0042,-4.0101,-4.0158,-4.0215,-4.0215,-4.008,-3.9911,-3.9848,-3.9837,-3.9796,-3.9751,-3.9739,-3.9717,-3.9647,-3.9585,-3.9298,-3.8498,-3.8286,-3.7962,-3.7023,-3.6861,-3.6545,-3.5615,-3.5448,-3.515,-3.426,-3.4124,-3.4074,-3.3934,-3.3908,-3.3881,-3.3802,-3.382,-3.382,-3.3807,-3.3739,-3.3712,-3.3712,-3.3591,-3.3495,-3.3422,-3.3162,-3.2943,-3.275,-3.2386,-3.2126,-3.1912,-3.1524,-3.1334,-3.1315,-3.1232,-3.121,-4.6127,0.0,-4.5886,-4.5746,-4.5671,-4.5622,0.0,-4.5594,-4.5594,-4.5594,0.0,0.0,-4.5594,-4.5594,-4.5594,-4.5594,-4.5594,0.0,0.0,0.0,0.0,0.0,0.0,0.0,0.0,0.0,0.0,0.0,0.0,-4.5594,-4.5594,-4.5594,-4.5594,-4.5594,-4.496,-4.4605,-4.4605,-4.4605,-4.4182,-4.3374,-4.272,-4.2297,-4.2085,-4.12,-4.0804,0.0,0.0,0.0,-4.0496,-4.0496,-4.0496,-4.0496,-4.0496,-4.0503,-4.0502,-4.0474,-4.0413,-4.0334,-4.0289,-4.0289,-4.0307,-4.0316,-4.0344,-4.0353,-4.0353,-4.0252,-4.0129,-4.0119,-4.0119,-4.009,-4.0021,-4.0011,-3.9991,-3.992,-3.9404,-3.8869,-3.865,-3.8066,-3.7362,-3.6529,-3.6327,-3.6012,-3.5124,-3.4918,-3.4805,-3.4514,-3.4404,-3.4281,-3.4148,-3.4086,-3.4011,-3.3881,-3.3868,-3.3873,-3.3788,-3.3793,-3.378,-3.378,-3.3698,-3.3661,-3.3633,-3.3477,-3.3283,-3.3099,-3.2655,-3.2335,-3.2126,-3.182,-3.1634,-3.1542,-3.1351,-3.1274,-4.5978,-4.598,-4.588,-4.5719,-4.5643,-4.5594,-4.5594,0.0,0.0,0.0,0.0,0.0,0.0,0.0,0.0,0.0,0.0,0.0,0.0,0.0,0.0,0.0,0.0,0.0,0.0,0.0,0.0,0.0,0.0,-4.5594,-4.5594,-4.5594,-4.5421,-4.5017,-4.4547,-4.4297,-4.4297,-4.3932,-4.3335,-4.2508,-4.2019,-4.1585,-4.1181,-4.0727,-4.0496,0.0,0.0,0.0,-4.0496,-4.0496,-4.0496,-4.0496,-4.0496,-4.05,-4.0495,-4.0495,-4.0479,-4.0436,-4.0392,-4.0419,-4.0455,-4.0455,-4.0455,-4.0455,-4.0455,-4.0402,-4.0332,-4.0307,-4.0289,-4.0289,-4.0243,-4.0233,-4.0109,-3.9643,-3.9185,-3.8623,-3.7861,-3.731,-3.6739,-3.5902,-3.5713,-3.5533,-3.503,-3.4908,-3.4849,-3.4751,-3.4649,-3.4542,-3.4397,-3.4316,-3.4221,-3.4061,-3.4011,-3.3947,-3.3842,-3.386,-3.3829,-3.3788,-3.3766,-3.3753,-3.3753,-3.3661,-3.3506,-3.3301,-3.2914,-3.2639,-3.242,-3.2126,-3.193,-3.182,-3.156,-3.1447,-4.5797,-4.5933,-4.5847,-4.5739,-4.5643,-4.5594,-4.5594,0.0,0.0,0.0,0.0,0.0,0.0,0.0,0.0,0.0,0.0,0.0,0.0,0.0,0.0,0.0,0.0,0.0,0.0,0.0,0.0,0.0,0.0,-4.5594,-4.5594,-4.5479,-4.5056,-4.4316,-4.4047,-4.3912,-4.3912,-4.3239,-4.247,-4.1604,-4.1604,-4.12,-4.0496,-4.0496,-4.0496,-4.0496,0.0,0.0,-4.0496,-4.0496,-4.0496,-4.0496,-4.0496,-4.0496,-4.0496,-4.0496,-4.0496,-4.0496,-4.0496,-4.0496,-4.0496,-4.0496,-4.0496,-4.0496,-4.0496,-4.0496,-4.05,-4.0438,-4.0413,-4.0413,-4.0413,-4.0317,-4.0032,-3.9231,-3.885,-3.8259,-3.6848,-3.6411,-3.6097,-3.5359,-3.5226,-3.519,-3.5138,-3.5134,-3.5101,-3.4973,-3.4898,-3.4802,-3.4678,-3.4604,-3.4476,-3.4281,-3.4197,-3.4099,-3.3959,-3.3934,-3.3895,-3.3815,-3.382,-3.3807,-3.3807,-3.3739,-3.3633,-3.3452,-3.3193,-3.2975,-3.2782,-3.247,-3.2266,-3.2161,-3.1857,-3.171,-4.5808,-4.5917,-4.5793,-4.5731,-4.5643,-4.5594,-4.5594,0.0,0.0,0.0,0.0,0.0,0.0,0.0,0.0,0.0,0.0,0.0,0.0,0.0,0.0,0.0,0.0,0.0,0.0,0.0,0.0,0.0,0.0,-4.5594,-4.5594,-4.4893,-4.4432,-4.4297,-4.2931,-4.2181,-4.2181,-4.2058,-4.1566,-4.0708,-4.0708,-4.0631,-4.0496,-4.0496,-4.0496,-4.0496,0.0,-4.0496,-4.0496,-4.0496,-4.0496,-4.0496,-4.0496,-4.0496,-4.0496,-4.0496,-4.0496,-4.0496,-4.0496,-4.0496,-4.0496,-4.0496,-4.0496,-4.0496,-4.0496,-4.0496,-4.0496,-4.05,-4.0473,-4.0473,-4.0473,-3.9973,-3.9435,-3.9292,-3.8128,-3.6984,-3.6727,-3.6044,-3.5446,-3.5312,-3.5274,-3.5285,-3.5266,-3.5266,-3.5253,-3.5245,-3.5132,-3.5027,-3.4955,-3.4879,-3.4752,-3.4561,-3.4484,-3.4351,-3.4173,-3.4099,-3.4023,-3.3895,-3.3815,-3.3807,-3.3807,-3.3739,-3.3684,-3.3643,-3.3506,-3.3313,-3.3111,-3.2959,-3.2752,-3.2522,-3.2301,-3.2144,-4.5099,-4.5531,-4.5776,-4.5711,-4.5646,-4.5594,-4.5594,0.0,0.0,0.0,0.0,0.0,0.0,0.0,0.0,0.0,0.0,0.0,0.0,0.0,0.0,0.0,0.0,0.0,0.0,0.0,0.0,0.0,0.0,0.0,-4.4913,-4.4509,-4.3902,-4.3022,-4.2252,-4.1659,-4.1215,-4.1215,-4.0988,-4.0546,-4.0549,-4.0549,-4.0546,-4.0546,-4.0531,-4.0496,0.0,-4.0496,-4.0496,-4.0496,-4.0496,-4.0496,-4.0496,-4.0496,-4.0496,-4.0496,-4.0496,-4.0496,-4.0496,-4.0496,-4.0496,-4.0496,-4.0496,-4.0496,-4.0496,-4.0496,-4.0496,-4.0496,-4.0496,-4.04,-3.9958,-3.9573,-3.9073,-3.8123,-3.7281,-3.6575,-3.6152,-3.5715,-3.5412,-3.5412,-3.5412,-3.5412,-3.5412,-3.5376,-3.5354,-3.5354,-3.5262,-3.5207,-3.5179,-3.5089,-3.5001,-3.4831,-3.4761,-3.4628,-3.442,-3.4351,-3.4197,-3.3908,-3.3847,-3.3807,-3.3807,-3.378,-3.3753,-3.3753,-3.3675,-3.3545,-3.343,-3.3268,-3.3086,-3.2882,-3.2669,-3.252,-4.4466,-4.5228,-4.5785,-4.5709,0.0,-4.5594,-4.5594,0.0,0.0,0.0,0.0,0.0,0.0,0.0,0.0,0.0,0.0,0.0,0.0,0.0,0.0,0.0,0.0,0.0,0.0,0.0,0.0,0.0,0.0,0.0,-4.4335,-4.394,-4.3176,-4.1952,-4.1716,-4.1335,-4.072,-4.072,-4.0688,-4.0631,-4.0621,-4.0621,-4.0631,-4.0617,-4.0603,-4.0554,-4.0527,-4.0527,-4.0527,-4.0527,-4.0527,-4.0527,-4.0527,-4.0527,-4.0527,-4.0527,-4.0527,-4.0527,-4.0527,-4.0527,-4.0527,-4.0527,-4.0527,-4.0527,-4.0527,-4.0527,-4.0527,-4.0527,-4.0385,-4.0096,-3.9457,-3.915,-3.8604,-3.7065,-3.6558,-3.625,-3.5635,-3.55,-3.55,-3.55,-3.55,-3.55,-3.55,-3.546,-3.542,-3.542,-3.5372,-3.5342,-3.5324,-3.5293,-3.5209,-3.5082,-3.501,-3.487,-3.4668,-3.4561,-3.4351,-3.4023,-3.3881,-3.382,-3.3807,-3.3807,-3.3807,-3.3807,-3.3753,-3.3684,-3.3615,-3.352,-3.3375,-3.3178,-3.3034,-3.2908,-4.4414,-4.5195,-4.5777,-4.5629,-4.5594,0.0,-4.5594,-4.5594,0.0,0.0,0.0,0.0,0.0,0.0,0.0,0.0,0.0,0.0,0.0,0.0,0.0,0.0,0.0,0.0,0.0,0.0,0.0,0.0,0.0,0.0,-4.4297,-4.2876,-4.2029,-4.1904,-4.119,-4.0797,-4.0788,-4.0787,-4.0751,-4.0687,-4.0687,-4.0687,-4.0681,-4.0688,-4.0687,-4.0687,-4.0614,-4.0588,-4.0588,-4.0588,-4.0588,-4.0588,-4.0588,-4.0588,-4.0588,-4.0588,-4.0588,-4.0588,-4.0588,-4.0588,-4.0588,-4.0588,-4.0588,-4.0588,-4.0588,-4.0588,-4.0588,-4.0588,-4.006,-3.946,-3.9338,-3.87,-3.7853,-3.6923,-3.6135,-3.5577,-3.5519,-3.55,-3.55,-3.55,-3.55,-3.55,-3.55,-3.55,-3.5493,-3.5493,-3.5493,-3.546,-3.5405,-3.5398,-3.5361,-3.5296,-3.5218,-3.5081,-3.4821,-3.4607,-3.442,-3.4281,-3.4036,-3.3855,-3.3788,-3.3807,-3.3807,-3.3807,-3.3807,-3.3766,-3.3684,-3.3684,-3.3619,-3.3462,-3.3448,-3.3342,-4.3649,-4.4402,-4.5101,-4.5547,-4.5631,0.0,0.0,-4.5594,-4.5594,0.0,0.0,0.0,0.0,0.0,0.0,0.0,0.0,0.0,0.0,0.0,0.0,0.0,0.0,0.0,0.0,0.0,0.0,0.0,0.0,0.0,-4.3588,-4.251,-4.1702,-4.1235,-4.0922,-4.0809,-4.0927,-4.0924,-4.0913,-4.0881,-4.084,-4.0798,-4.0757,-4.0765,-4.0756,-4.0758,-4.0752,-4.0694,-4.0655,-4.0655,-4.0655,-4.0655,-4.0655,-4.0655,-4.0655,-4.0655,-4.0655,-4.0655,-4.0655,-4.0655,-4.0655,-4.0655,-4.0655,-4.0655,-4.0655,-4.0655,-4.0655,-4.0655,-4.0443,-3.996,-3.8849,-3.7909,-3.7028,-3.6161,-3.5712,-3.55,-3.55,-3.55,-3.55,-3.55,-3.55,-3.55,-3.55,-3.55,-3.55,-3.55,-3.55,-3.5493,-3.546,-3.546,-3.5439,-3.5369,-3.5308,-3.5193,-3.5009,-3.487,-3.474,-3.4561,-3.4221,-3.3972,-3.3855,-3.3855,-3.3842,-3.3807,-3.3807,-3.3793,-3.3766,-3.3766,-3.3712,-3.3615,-3.3615,-3.3559,-4.2863,-4.3731,-4.4638,0.0,0.0,0.0,-4.5594,-4.5594,0.0,0.0,0.0,0.0,0.0,0.0,0.0,0.0,0.0,0.0,0.0,0.0,0.0,0.0,0.0,0.0,0.0,0.0,0.0,0.0,0.0,0.0,0.0,-4.1957,-4.13,-4.0823,-4.084,-4.0928,-4.1029,-4.1036,-4.1034,-4.1022,-4.0997,-4.0933,-4.0867,-4.0858,-4.0859,-4.0863,-4.0842,-4.0807,-4.0751,-4.0759,-4.0754,-4.0754,-4.0754,-4.0754,-4.0754,-4.0754,-4.0754,-4.0754,-4.0754,-4.0754,-4.0754,-4.0754,-4.0754,-4.0754,-4.0754,-4.0754,-4.0754,-4.0754,-4.056,-4.0006,-3.8542,-3.7694,-3.6935,-3.5791,-3.5528,-3.554,-3.554,-3.554,-3.554,-3.554,-3.5508,-3.5501,-3.5501,-3.5507,-3.55,-3.55,-3.55,-3.55,-3.55,-3.55,-3.5474,-3.5446,-3.5369,-3.53,-3.5171,-3.5098,-3.4992,-3.481,-3.4498,-3.4227,-3.3998,-3.3972,-3.3921,-3.3829,-3.3815,-3.3815,-3.3807,-3.3807,-3.378,-3.3726,-3.3726,-3.3712,-4.2131,-4.3266,0.0,0.0,0.0,0.0,0.0,0.0,0.0,0.0,0.0,0.0,0.0,0.0,0.0,0.0,0.0,0.0,0.0,0.0,0.0,0.0,0.0,0.0,0.0,0.0,0.0,0.0,0.0,0.0,0.0,-4.1145,-4.0742,-4.0805,-4.0925,-4.1033,-4.1093,-4.1099,-4.1109,-4.1109,-4.1109,-4.1068,-4.099,-4.0997,-4.1009,-4.1006,-4.0929,-4.0889,-4.0909,-4.0902,-4.0907,-4.0907,-4.0907,-4.0907,-4.0907,-4.0907,-4.0907,-4.0907,-4.0907,-4.0907,-4.0907,-4.0907,-4.0907,-4.0907,-4.0907,-4.0907,-4.0907,-4.0907,-4.0271,-3.9416,-3.8534,-3.8191,-3.7674,-3.5993,-3.5602,-3.5598,-3.5598,-3.5598,-3.5598,-3.5598,-3.5554,-3.549,-3.549,-3.5495,-3.55,-3.55,-3.55,-3.55,-3.55,-3.55,-3.55,-3.55,-3.5446,-3.5372,-3.5315,-3.5239,-3.5132,-3.5011,-3.487,-3.463,-3.4221,-3.4136,-3.4036,-3.3895,-3.3895,-3.3868,-3.3788,-3.3807,-3.3807,-3.3807,-3.3807,-3.3807,-4.2024,0.0,0.0,0.0,0.0,0.0,0.0,0.0,0.0,0.0,0.0,0.0,0.0,0.0,0.0,0.0,0.0,0.0,0.0,0.0,0.0,0.0,0.0,0.0,0.0,0.0,0.0,0.0,0.0,0.0,0.0,-4.1213,-4.082,-4.0949,-4.1022,-4.1083,-4.1099,-4.1097,-4.1103,-4.1103,-4.1103,-4.1094,-4.1072,-4.1068,-4.1064,-4.1072,-4.1044,-4.1011,-4.0968,-4.0967,-4.0979,-4.0979,-4.0979,-4.0979,-4.0979,-4.0979,-4.0979,-4.0979,-4.0979,-4.0979,-4.0979,-4.0979,-4.0979,-4.0979,-4.0979,-4.0979,-4.0979,-4.0979,-4.0785,-4.024,-3.8815,-3.8377,-3.7862,-3.6086,-3.5669,-3.5658,-3.5658,-3.5658,-3.5672,-3.5676,-3.5629,-3.5562,-3.5564,-3.5528,-3.5509,-3.5509,-3.5501,-3.55,-3.55,-3.55,-3.55,-3.55,-3.5474,-3.5446,-3.5372,-3.535,-3.5297,-3.522,-3.5089,-3.4832,-3.442,-3.434,-3.4221,-3.4049,-3.4036,-3.4011,-3.3934,-3.3895,-3.3868,-3.3868,-3.3815,-3.3807,-4.1552,0.0,0.0,0.0,0.0,0.0,0.0,0.0,0.0,0.0,0.0,0.0,0.0,0.0,0.0,0.0,0.0,0.0,0.0,0.0,0.0,0.0,0.0,0.0,0.0,0.0,0.0,0.0,0.0,0.0,0.0,-4.1101,-4.0889,-4.1,-4.1064,-4.1108,-4.1101,-4.1128,-4.1131,-4.1131,-4.1131,-4.1148,-4.1143,-4.112,-4.1095,-4.109,-4.1106,-4.1076,-4.1042,-4.1033,-4.105,-4.105,-4.105,-4.105,-4.105,-4.105,-4.105,-4.105,-4.105,-4.105,-4.105,-4.105,-4.105,-4.105,-4.105,-4.105,-4.105,-4.105,-4.105,-4.0738,-3.9372,-3.8724,-3.7999,-3.6196,-3.5752,-3.5747,-3.5747,-3.5747,-3.5743,-3.575,-3.5718,-3.5664,-3.5639,-3.5574,-3.554,-3.5527,-3.5522,-3.5501,-3.55,-3.55,-3.55,-3.55,-3.55,-3.5474,-3.5446,-3.5446,-3.5405,-3.5339,-3.5239,-3.507,-3.4792,-3.4647,-3.4484,-3.4305,-3.4245,-3.4185,-3.4124,-3.4049,-3.4011,-3.3985,-3.3934,-3.3895,-4.0939,0.0,0.0,0.0,0.0,0.0,0.0,0.0,0.0,0.0,0.0,0.0,0.0,0.0,0.0,0.0,0.0,0.0,0.0,0.0,0.0,0.0,0.0,0.0,0.0,0.0,0.0,0.0,0.0,0.0,0.0,-4.0876,-4.0948,-4.1003,-4.1064,-4.11,-4.1092,-4.1172,-4.1191,-4.1191,-4.1191,-4.1191,-4.1191,-4.113,-4.1108,-4.1108,-4.1102,-4.1098,-4.1093,-4.1091,-4.1091,-4.1091,-4.1091,-4.1091,-4.1091,-4.1091,-4.1091,-4.1091,-4.1091,-4.1091,-4.1091,-4.1091,-4.1091,-4.1091,-4.1091,-4.1091,-4.1091,-4.1091,-4.1091,-4.0896,-4.0038,-3.916,-3.8097,-3.6426,-3.5927,-3.5817,-3.5817,-3.5817,-3.5817,-3.5814,-3.5802,-3.5783,-3.572,-3.5655,-3.5607,-3.5606,-3.5547,-3.5496,-3.5507,-3.55,-3.55,-3.55,-3.55,-3.55,-3.55,-3.55,-3.5467,-3.5412,-3.5357,-3.5285,-3.5226,-3.4964,-3.4749,-3.4626,-3.4506,-3.4397,-3.4328,-3.4269,-3.4209,-3.4136,-3.4124,-3.4086,0.0,-4.1029,0.0,0.0,0.0,0.0,0.0,0.0,0.0,0.0,0.0,0.0,0.0,0.0,0.0,0.0,0.0,0.0,0.0,0.0,0.0,0.0,0.0,0.0,0.0,0.0,0.0,0.0,0.0,0.0,-4.0957,-4.0971,-4.1013,-4.1083,-4.1083,-4.111,-4.1092,-4.1172,-4.1191,0.0,-4.1191,-4.1191,-4.1191,-4.1191,-4.1172,-4.1171,-4.1111,-4.1109,-4.1108,-4.1105,-4.1104,-4.1104,-4.1104,-4.1104,-4.1104,-4.1104,-4.1104,-4.1104,-4.1104,-4.1104,-4.1104,-4.1104,-4.1104,-4.1104,-4.1104,-4.1104,-4.1104,-4.1104,-4.1104,-4.0909,-4.0089,-3.923,-3.831,-3.7252,-3.6477,-3.5956,-3.5956,-3.5956,-3.5935,-3.5888,-3.5885,-3.5878,-3.5869,-3.576,-3.5664,-3.5608,-3.5534,-3.5496,-3.5507,-3.55,-3.55,-3.55,-3.55,-3.55,-3.55,-3.55,-3.5493,-3.5486,-3.5412,-3.5364,-3.5369,-3.5143,-3.4964,-3.484,-3.4762,-3.468,-3.4623,-3.4539,-3.4484,-3.4416,-3.4305,-3.4245,0.0,0.0,0.0,0.0,0.0,0.0,0.0,0.0,0.0,0.0,0.0,0.0,0.0,0.0,0.0,0.0,0.0,0.0,0.0,0.0,0.0,0.0,0.0,0.0,0.0,0.0,0.0,0.0,0.0,-4.0941,-4.1031,-4.1042,-4.1065,-4.1102,-4.1109,-4.1112,-4.1152,-4.1172,-4.1191,-4.1191,-4.1191,-4.1191,-4.1191,-4.1191,-4.1191,-4.1191,-4.1152,-4.1152,-4.1152,-4.1151,-4.1151,-4.1151,-4.1151,-4.1151,-4.1151,-4.1151,-4.1151,-4.1151,-4.1151,-4.1151,-4.1151,-4.1151,-4.1151,-4.1151,-4.1151,-4.1151,-4.1151,-4.1151,-4.1151,-4.1053,-4.0623,-3.9881,-3.9002,-3.8123,-3.6947,-3.6002,-3.6002,-3.6002,-3.5983,-3.596,-3.595,-3.5955,-3.5951,-3.5843,-3.5726,-3.5665,-3.5583,-3.5534,-3.5502,-3.5494,-3.55,-3.55,-3.55,-3.55,-3.55,-3.55,-3.55,-3.55,-3.546,-3.5453,-3.5453,-3.5316,-3.5193,-3.5081,-3.4991,-3.4926,-3.4898,-3.4821,-3.4761,-3.468,-3.4596,-3.4531,0.0,0.0,0.0,0.0,0.0,0.0,0.0,0.0,0.0,0.0,0.0,0.0,0.0,0.0,0.0,0.0,0.0,0.0,0.0,0.0,0.0,0.0,0.0,0.0,0.0,0.0,0.0,0.0,0.0,-4.1031,-4.1097,-4.1109,-4.1101,-4.1092,-4.1112,-4.1132,-4.1191,-4.1191,-4.1191,-4.1191,-4.1191,-4.1191,-4.1191,-4.1191,-4.1191,-4.1191,-4.1191,-4.1191,-4.1191,-4.1191,-4.1191,-4.1191,-4.1191,-4.1191,-4.1191,-4.1191,-4.1191,-4.1191,-4.1191,-4.1191,-4.1191,-4.1191,-4.1191,-4.1191,-4.1191,-4.1191,-4.1191,-4.1191,-4.1191,-4.1191,-4.1191,-4.0547,-3.9687,-3.8809,-3.7382,-3.6188,-3.6031,-3.5992,-3.5992,-3.5992,-3.6009,-3.6001,-3.6002,-3.5908,-3.5784,-3.5723,-3.5657,-3.5595,-3.5534,-3.5502,-3.5494,-3.5494,-3.5507,-3.55,-3.55,-3.55,-3.55,-3.55,-3.55,-3.55,-3.55,-3.5453,-3.5383,-3.5343,-3.5198,-3.513,-3.5122,-3.5091,-3.5029,-3.4955,-3.4889,-3.4821,0.0,0.0,0.0,0.0,0.0,0.0,0.0,0.0,0.0,0.0,0.0,0.0,0.0,0.0,0.0,0.0,0.0,0.0,0.0,0.0,0.0,0.0,0.0,0.0,0.0,0.0,0.0,0.0,-4.105,-4.1095,-4.1095,-4.1106,-4.1091,-4.1092,-4.1152,-4.1191,-4.1191,-4.1191,-4.1191,-4.1191,-4.1191,-4.1191,-4.1191,-4.1191,-4.1191,-4.1191,-4.1191,-4.1191,-4.1191,-4.1191,-4.1191,-4.1191,-4.1191,-4.1191,-4.1191,-4.1191,-4.1191,-4.1191,-4.1191,-4.1191,-4.1191,-4.1191,-4.1191,-4.1191,-4.1191,-4.1191,-4.1191,-4.1191,-4.1191,-4.1191,-4.1191,-4.0547,-3.9687,-3.8809,-3.7851,-3.6914,-3.6152,-3.5996,-3.5996,-3.5996,-3.5994,-3.6005,-3.6004,-3.5931,-3.5859,-3.5795,-3.5723,-3.5657,-3.5601,-3.554,-3.5502,-3.5502,-3.5501,-3.55,-3.55,-3.55,-3.55,-3.55,-3.55,-3.55,-3.55,-3.5493,-3.5486,-3.5479,-3.5342,-3.527,-3.5269,-3.5261,-3.5237,-3.5149,-3.5088,-3.5062,0.0,0.0,0.0,0.0,0.0,0.0,0.0,0.0,0.0,0.0,0.0,0.0,0.0,0.0,0.0,0.0,0.0,0.0,0.0,0.0,0.0,0.0,0.0,0.0,0.0,0.0,0.0,0.0,-4.1088,-4.11,-4.1107,-4.1131,-4.1152,-4.1152,-4.1172,-4.1191,-4.1191,-4.1191,-4.1191,-4.1191,-4.1191,-4.1191,-4.1191,-4.1191,-4.1191,-4.1191,-4.1191,-4.1191,-4.1191,-4.1191,-4.1191,-4.1191,-4.1191,-4.1191,-4.1191,-4.1191,-4.1191,-4.1191,-4.1191,-4.1191,-4.1191,-4.1191,-4.1191,-4.1191,-4.1191,-4.1191,-4.1191,-4.1191,-4.1191,-4.1191,-4.1191,-4.0918,-4.0293,-3.8926,-3.8301,-3.7656,-3.6289,-3.5996,-3.5996,-3.5996,-3.5995,-3.5991,-3.5999,-3.5978,-3.5924,-3.5862,-3.5792,-3.5732,-3.5664,-3.5604,-3.5564,-3.5565,-3.5515,-3.5502,-3.5502,-3.5494,-3.55,-3.55,-3.55,-3.55,-3.55,-3.55,-3.55,-3.55,-3.5446,-3.5405,-3.541,-3.5369,-3.5346,-3.5312,-3.5246,-3.5215,0.0,0.0,0.0,0.0,0.0,0.0,0.0,0.0,0.0,0.0,0.0,0.0,0.0,0.0,0.0,0.0,0.0,0.0,0.0,0.0,0.0,0.0,0.0,0.0,0.0,0.0,0.0,0.0,-4.1105,-4.111,-4.1112,-4.1172,-4.1191,-4.1191,-4.1191,-4.1191,-4.1191,-4.1191,-4.1191,-4.1191,-4.1191,-4.1191,-4.1191,-4.1191,-4.1191,-4.1191,-4.1191,-4.1191,-4.1191,-4.1191,-4.1191,-4.1191,-4.1191,-4.1191,-4.1191,-4.1191,-4.1191,-4.1191,-4.1191,-4.1191,-4.1191,-4.1191,-4.1191,-4.1191,-4.1191,-4.1191,-4.1191,-4.1191,-4.1191,-4.1191,-4.1191,-4.1191,-4.0762,-3.9004,-3.8594,-3.8125,-3.6387,-3.5996,-3.5996,-3.5996,-3.5996,-3.5994,-3.6009,-3.6,-3.598,-3.5936,-3.5866,-3.5802,-3.5763,-3.5684,-3.5639,-3.5632,-3.557,-3.5521,-3.5534,-3.5534,-3.5527,-3.5501,-3.5501,-3.5494,-3.55,-3.55,-3.55,-3.55,-3.55,-3.55,-3.55,-3.5453,-3.5439,-3.542,-3.5372,-3.5342,0.0,0.0,0.0,0.0,0.0,0.0,0.0,0.0,0.0,0.0,0.0,0.0,0.0,0.0,0.0,0.0,0.0,0.0,0.0,0.0,0.0,0.0,0.0,0.0,0.0,0.0,0.0,0.0,-4.1091,-4.1132,-4.1191,-4.1191,-4.1191,-4.1191,-4.1191,-4.1191,-4.1191,-4.1191,-4.1191,-4.1191,-4.1191,-4.1191,-4.1191,-4.1191,-4.1191,-4.1191,-4.1191,-4.1191,-4.1191,-4.1191,-4.1191,-4.1191,-4.1191,-4.1191,-4.1191,-4.1191,-4.1191,-4.1191,-4.1191,-4.1191,-4.1191,-4.1191,-4.1191,-4.1191,-4.1191,-4.1191,-4.1191,-4.1191,-4.1191,-4.1191,-4.1191,-4.1191,-4.0762,-3.9004,-3.8594,-3.8125,-3.6387,-3.5996,-3.5996,-3.5996,-3.5996,-3.5996,-3.5995,-3.5992,-3.6005,-3.6001,-3.594,-3.5894,-3.5885,-3.583,-3.5758,-3.5697,-3.563,-3.559,-3.5581,-3.559,-3.5579,-3.5509,-3.5502,-3.5509,-3.55,-3.55,-3.55,-3.55,-3.55,-3.55,-3.55,-3.55,-3.55,-3.55,-3.5493,-3.5493,0.0,0.0,0.0,0.0,0.0,0.0,0.0,0.0,0.0,0.0,0.0,0.0,0.0,0.0,0.0,0.0,0.0,0.0,0.0,0.0,0.0,0.0,0.0,0.0,0.0,0.0,0.0,0.0,0.0,-4.1172,-4.1191,-4.1191,-4.1191,-4.1191,-4.1191,-4.1191,-4.1191,-4.1191,-4.1191,-4.1191,-4.1191,-4.1191,-4.1191,-4.1191,-4.1191,-4.1172,-4.0605,-4.0684,-4.1191,-4.1191,-4.1191,-4.1191,-4.1191,-4.1191,-4.1191,-4.1191,-4.1191,-4.1191,-4.1191,-4.1191,-4.1191,-4.1191,-4.1191,-4.1191,-4.1191,-4.1191,-4.1191,-4.1191,-4.1191,-4.1191,-4.1191,-4.0781,-3.9922,-3.8184,-3.7344,-3.6758,-3.6133,-3.5996,-3.5996,-3.5996,-3.5996,-3.5996,-3.5995,-3.5994,-3.5991,-3.6,-3.5974,-3.5944,-3.5903,-3.5872,-3.5843,-3.5827,-3.5779,-3.5718,-3.5674,-3.5653,-3.5643,-3.5577,-3.5552,-3.5553,-3.556,-3.5515,-3.5502,-3.5502,-3.5494,-3.55,-3.55,-3.55,-3.55,-3.55,-3.55,-3.55,0.0,0.0,0.0,0.0,0.0,0.0,0.0,0.0,0.0,0.0,0.0,0.0,0.0,0.0,0.0,0.0,0.0,0.0,0.0,0.0,0.0,0.0,0.0,0.0,0.0,0.0,0.0,0.0,0.0,0.0,-4.1191,-4.1191,-4.1191,-4.1191,-4.1191,-4.1191,-4.1191,-4.1191,-4.1191,-4.1191,-4.1191,-4.1191,-4.1191,-4.1191,-4.1035,-4.0723,-4.0156,-4.0234,-4.0742,-4.0449,-4.0332,-4.0351,-4.0644,-4.0762,-4.0801,-4.1094,-4.1191,-4.1191,-4.1191,-4.1191,-4.1191,-4.1191,-4.1191,-4.1191,-4.1191,-4.1191,-4.1191,-4.1191,-4.1191,-4.1133,-4.084,-3.9902,-3.873,-3.7578,-3.6621,-3.5996,-3.5996,-3.5996,-3.5996,-3.5996,-3.5996,-3.5996,-3.5996,-3.5995,-3.5995,-3.599,-3.6009,-3.5987,-3.5936,-3.5923,-3.5929,-3.5936,-3.5869,-3.5822,-3.5761,-3.5754,-3.5704,-3.5678,-3.5657,-3.5635,-3.5626,-3.5565,-3.5521,-3.5521,-3.5522,-3.5515,-3.5501,-3.5507,-3.55,-3.55,-3.55,-3.55,0.0,0.0,0.0,0.0,0.0,0.0,0.0,0.0,0.0,0.0,0.0,0.0,0.0,0.0,0.0,0.0,0.0,0.0,0.0,0.0,0.0,0.0,0.0,0.0,0.0,0.0,0.0,0.0,-4.1191,-4.1191,-4.1191,-4.1191,-4.1191,-4.1191,-4.1191,-4.1191,-4.1191,-4.1191,-4.1191,-4.1191,-4.1191,-4.1191,-4.1152,-4.1152,-4.0684,-3.9863,-3.9824,-3.9824,-3.9766,-3.8945,-3.8594,-3.8672,-3.9531,-3.9863,-3.9961,-4.084,-4.1152,-4.1172,-4.1191,-4.1191,-4.1191,-4.1191,-4.1191,-4.1191,-4.1191,-4.1191,-4.1191,-4.1172,-4.1152,-4.0957,-4.0059,-3.8574,-3.7285,-3.7266,-3.6621,-3.5996,-3.5996,-3.5996,-3.5996,-3.5996,-3.5996,-3.5996,-3.5996,-3.5996,-3.5996,-3.5995,-3.5995,-3.5994,-3.5992,-3.6008,-3.6002,-3.5994,-3.5931,-3.5907,-3.5894,-3.583,-3.5807,-3.5799,-3.5736,-3.5699,-3.5693,-3.564,-3.5606,-3.5606,-3.5596,-3.5566,-3.5496,-3.5508,-3.55,-3.55,-3.55,-3.55,-4.1129,0.0,0.0,0.0,0.0,0.0,0.0,0.0,0.0,0.0,0.0,0.0,0.0,0.0,0.0,0.0,0.0,0.0,0.0,0.0,0.0,0.0,0.0,0.0,0.0,0.0,0.0,0.0,-4.1191,-4.1191,-4.1191,-4.1191,-4.1191,-4.1191,-4.1191,-4.1191,-4.1191,-4.1191,-4.1191,-4.1191,-4.1191,-4.0879,-4.0254,-4.0254,-3.9785,-3.8926,-3.8281,-3.8027,-3.8047,-3.8437,-3.8594,-3.8613,-3.8867,-3.8965,-3.9062,-3.9941,-4.0254,-4.0331,-4.0937,-4.1131,-4.113,-4.113,-4.113,-4.113,-4.113,-4.113,-4.1013,-4.0427,-4.0252,-3.9901,-3.8418,-3.7656,-3.7148,-3.6504,-3.6172,-3.5996,-3.5996,-3.5996,-3.5996,-3.5996,-3.5996,-3.5996,-3.5996,-3.5996,-3.5996,-3.5996,-3.5996,-3.5996,-3.5996,-3.5994,-3.5992,-3.5992,-3.5983,-3.597,-3.598,-3.5919,-3.5872,-3.5866,-3.5843,-3.5815,-3.576,-3.575,-3.5713,-3.5674,-3.5667,-3.564,-3.5574,-3.5515,-3.5495,-3.55,-3.55,-3.55,0.0,0.0,0.0,0.0,0.0,0.0,-4.1151,-4.1151,0.0,0.0,0.0,0.0,0.0,0.0,0.0,0.0,0.0,0.0,0.0,0.0,0.0,0.0,0.0,0.0,0.0,-4.1191,-4.1191,-4.1191,-4.1191,-4.1191,-4.1191,-4.1191,-4.1191,-4.1191,-4.1191,-4.1191,-4.1191,-4.1191,-4.1016,-4.0664,-4.0664,-4.0195,-3.9355,-3.9355,-3.8887,-3.8027,-3.7519,-3.709,-3.6797,-3.7303,-3.7518,-3.7558,-3.7929,-3.8066,-3.8163,-3.9041,-3.9353,-3.9428,-3.9856,-4.001,-4.0027,-4.0027,-4.0027,-4.0027,-4.0027,-4.0027,-3.991,-3.9442,-3.9074,-3.8589,-3.7556,-3.703,-3.6621,-3.6113,-3.5996,-3.5996,-3.5996,-3.5996,-3.5996,-3.5996,-3.5996,-3.5996,-3.5996,-3.5996,-3.5996,-3.5996,-3.5996,-3.5996,-3.5996,-3.5996,-3.5996,-3.5996,-3.5993,-3.6009,-3.6005,-3.5955,-3.5942,-3.5931,-3.5914,-3.5875,-3.5833,-3.5843,-3.5815,-3.5783,-3.5754,-3.5718,-3.564,-3.5562,-3.5528,-3.5528,-3.5515,-3.5508,0.0,0.0,0.0,0.0,0.0,0.0,-4.1103,-4.1105,-4.1106,0.0,0.0,0.0,0.0,0.0,0.0,0.0,0.0,0.0,0.0,0.0,0.0,0.0,0.0,0.0,-4.1191,-4.1191,-4.1191,-4.1191,-4.1191,-4.1191,-4.1191,-4.1191,-4.1191,-4.1191,-4.1191,-4.1191,-4.1191,-4.1094,-4.0664,-3.9902,-3.9805,-3.9297,-3.8457,-3.8457,-3.7988,-3.7168,-3.7167,-3.6716,-3.5993,-3.5987,-3.5988,-3.6072,-3.6853,-3.7145,-3.7258,-3.8114,-3.8444,-3.8441,-3.8494,-3.8509,-3.8509,-3.8487,-3.8487,-3.8487,-3.8486,-3.8486,-3.8468,-3.8372,-3.7773,-3.7133,-3.7136,-3.6576,-3.5994,-3.5994,-3.5995,-3.5996,-3.5996,-3.5996,-3.5996,-3.5996,-3.5996,-3.5996,-3.5996,-3.5996,-3.5996,-3.5996,-3.5996,-3.5996,-3.5996,-3.5996,-3.5996,-3.5996,-3.5996,-3.5995,-3.5995,-3.5991,-3.6006,-3.6006,-3.5935,-3.5903,-3.5914,-3.5914,-3.5914,-3.5897,-3.5846,-3.5788,-3.5724,-3.5653,-3.562,-3.561,-3.554,-3.5502,0.0,0.0,0.0,0.0,0.0,0.0,-4.1101,-4.1108,-4.1094,0.0,0.0,0.0,0.0,0.0,0.0,0.0,0.0,0.0,0.0,0.0,0.0,0.0,0.0,0.0,-4.1191,-4.1191,-4.1191,-4.1191,-4.1191,-4.1191,-4.1191,-4.1191,-4.1191,-4.1191,-4.1191,-4.1191,-4.1191,-4.0508,-4.0078,-3.9883,-3.9199,-3.8398,-3.7559,-3.7558,-3.7089,-3.6249,-3.6244,-3.616,-3.5998,-3.5931,-3.5957,-3.6026,-3.6196,-3.6229,-3.6281,-3.7159,-3.7462,-3.7566,-3.8268,-3.8493,-3.8483,-3.8433,-3.8427,-3.8427,-3.8416,-3.8419,-3.8277,-3.7635,-3.6842,-3.6163,-3.6178,-3.609,-3.6,-3.6006,-3.5991,-3.5992,-3.6009,-3.6009,-3.6009,-3.6009,-3.5995,-3.5996,-3.5996,-3.5996,-3.5996,-3.5996,-3.5996,-3.5996,-3.5996,-3.5996,-3.5996,-3.5996,-3.5996,-3.5996,-3.5996,-3.5995,-3.5993,-3.5993,-3.599,-3.5985,-3.5979,-3.5977,-3.5968,-3.589,-3.5887,-3.5867,-3.5866,-3.5736,-3.5687,-3.5681,-3.5615,-3.5587,0.0,0.0,0.0,-4.0949,0.0,0.0,0.0,-4.1044,-4.105,-4.1057,0.0,0.0,0.0,0.0,0.0,0.0,0.0,0.0,0.0,0.0,0.0,0.0,0.0,0.0,-4.1191,-4.1191,-4.1191,-4.1191,-4.1191,-4.1191,-4.1191,-4.1191,-4.0996,-4.0566,-4.0547,-4.0332,-3.9902,-3.9473,-3.9023,-3.8594,-3.8164,-3.75,-3.664,-3.6657,-3.6419,-3.6006,-3.5952,-3.5956,-3.5945,-3.5883,-3.5875,-3.5902,-3.594,-3.5938,-3.5946,-3.6345,-3.6507,-3.655,-3.6992,-3.7131,-3.7093,-3.7067,-3.7055,-3.7047,-3.7055,-3.7047,-3.6969,-3.6579,-3.6168,-3.5852,-3.5855,-3.5895,-3.5951,-3.5946,-3.5952,-3.5955,-3.5955,-3.5952,-3.5949,-3.5949,-3.5941,-3.5951,-3.5995,-3.5996,-3.5996,-3.5996,-3.5996,-3.5996,-3.5996,-3.5996,-3.5996,-3.5996,-3.5996,-3.5996,-3.5996,-3.5996,-3.5996,-3.5996,-3.5995,-3.5994,-3.5991,-3.5991,-3.5987,-3.5955,-3.5947,-3.5958,-3.5947,-3.5852,-3.5772,-3.5745,-3.5718,-3.5674,0.0,0.0,0.0,0.0,0.0,-4.0891,0.0,0.0,0.0,-4.0769,0.0,0.0,0.0,0.0,0.0,0.0,0.0,0.0,0.0,0.0,0.0,0.0,0.0,0.0,0.0,-4.1171,-4.1172,-4.1172,-4.1035,-4.0957,-4.0957,-4.0781,-4.0371,-3.9668,-3.9648,-3.9316,-3.8613,-3.8437,-3.8008,-3.7304,-3.7127,-3.6677,-3.5992,-3.5984,-3.5973,-3.5981,-3.5907,-3.5861,-3.5862,-3.5795,-3.5775,-3.5778,-3.584,-3.5856,-3.5852,-3.5803,-3.5768,-3.576,-3.5758,-3.5736,-3.5684,-3.5679,-3.5679,-3.5679,-3.5684,-3.5679,-3.5674,-3.5679,-3.5715,-3.5753,-3.5776,-3.5824,-3.5855,-3.5885,-3.5873,-3.5875,-3.5884,-3.5877,-3.587,-3.587,-3.5877,-3.5919,-3.599,-3.5993,-3.5994,-3.5996,-3.5996,-3.5996,-3.5996,-3.5996,-3.5996,-3.5996,-3.5996,-3.5996,-3.5996,-3.5996,-3.5996,-3.5996,-3.5996,-3.5996,-3.5995,-3.5995,-3.5994,-3.6009,-3.6008,-3.6004,-3.5999,-3.5953,-3.5884,-3.5827,-3.5818,-3.5795,0.0,0.0,0.0,0.0,-4.0781,0.0,0.0,0.0,-4.0612,-3.9903,0.0,0.0,0.0,0.0,0.0,0.0,0.0,0.0,0.0,0.0,0.0,0.0,0.0,0.0,0.0,-4.1106,-4.1108,-4.1108,-4.0444,-4.0054,-4.0054,-3.9312,-3.8845,-3.8749,-3.8749,-3.869,-3.8593,-3.7831,-3.74,-3.7281,-3.6516,-3.6101,-3.5995,-3.5931,-3.5912,-3.5916,-3.5849,-3.5783,-3.572,-3.5708,-3.5674,-3.5634,-3.5697,-3.5717,-3.5713,-3.5708,-3.5674,-3.5614,-3.5629,-3.5623,-3.5618,-3.561,-3.5606,-3.5602,-3.5612,-3.5604,-3.561,-3.5612,-3.5629,-3.5644,-3.5694,-3.5726,-3.5736,-3.5802,-3.5804,-3.5811,-3.5817,-3.5813,-3.5813,-3.5813,-3.5813,-3.5849,-3.5988,-3.6002,-3.6008,-3.5992,-3.5994,-3.5995,-3.5995,-3.5996,-3.5996,-3.5996,-3.5996,-3.5996,-3.5996,-3.5996,-3.5996,-3.5996,-3.5996,-3.5996,-3.5996,-3.5996,-3.5996,-3.5996,-3.5995,-3.5994,-3.5993,-3.5991,-3.594,-3.5892,-3.589,-3.5869,0.0,0.0,0.0,0.0,0.0,0.0,-4.0082,0.0,-3.9762,0.0,0.0,0.0,0.0,0.0,0.0,0.0,-3.8278,0.0,0.0,0.0,0.0,0.0,0.0,0.0,0.0,0.0,0.0,0.0,-3.928,-3.9085,-3.9087,-3.8733,-3.8327,-3.7865,-3.7846,-3.7592,-3.7104,-3.6733,-3.6533,-3.6484,-3.6121,-3.5933,-3.5938,-3.5869,-3.581,-3.5788,-3.5712,-3.5659,-3.5634,-3.5635,-3.5595,-3.5532,-3.5574,-3.561,-3.564,-3.5643,-3.5626,-3.5595,-3.5595,-3.5564,-3.5546,-3.5547,-3.5541,-3.5534,-3.5547,-3.5528,-3.5534,-3.5546,-3.5564,-3.5606,-3.5626,-3.5648,-3.5669,-3.5722,-3.5712,-3.5693,-3.5736,-3.5708,-3.5674,-3.5674,-3.5727,-3.5767,-3.5827,-3.5887,-3.5944,-3.5936,-3.5986,-3.599,-3.599,-3.5993,-3.5995,-3.5995,-3.5996,-3.5996,-3.5996,-3.5996,-3.5996,-3.5996,-3.5996,-3.5996,-3.5996,-3.5996,-3.5996,-3.5996,-3.5996,-3.5996,-3.5996,-3.5995,-3.5994,-3.5951,-3.5956,-3.5962,-4.0496,0.0,0.0,0.0,0.0,0.0,0.0,0.0,0.0,0.0,0.0,0.0,0.0,0.0,0.0,0.0,0.0,-3.7492,0.0,0.0,0.0,0.0,0.0,0.0,0.0,0.0,0.0,-3.8477,-3.8255,-3.8116,-3.812,-3.7901,-3.7517,-3.6928,-3.6911,-3.662,-3.5974,-3.5973,-3.5944,-3.5906,-3.5875,-3.5852,-3.5833,-3.5779,-3.5727,-3.5679,-3.5607,-3.5581,-3.5577,-3.556,-3.5534,-3.5489,-3.5489,-3.5522,-3.5578,-3.5573,-3.5566,-3.5566,-3.5566,-3.5534,-3.5502,-3.5494,-3.55,-3.55,-3.55,-3.5501,-3.5489,-3.5489,-3.5547,-3.5573,-3.5571,-3.5577,-3.5595,-3.5665,-3.564,-3.561,-3.5651,-3.564,-3.5604,-3.5604,-3.564,-3.5667,-3.5674,-3.5772,-3.5872,-3.5901,-3.5941,-3.5973,-3.5977,-3.5963,-3.5987,-3.5991,-3.5992,-3.5994,-3.5995,-3.5996,-3.5996,-3.5996,-3.5996,-3.5996,-3.5996,-3.5996,-3.5996,-3.5996,-3.5996,-3.5996,-3.5996,-3.5996,-3.5996,-3.5996,-3.5992,-3.6006,0.0,0.0,0.0,-4.0496,0.0,0.0,0.0,0.0,-3.7905,0.0,0.0,0.0,0.0,0.0,0.0,-3.5681,0.0,0.0,0.0,0.0,0.0,0.0,0.0,0.0,0.0,0.0,0.0,-3.839,-3.7627,-3.7151,-3.7134,-3.6408,-3.5975,-3.595,-3.5943,-3.5931,-3.5892,-3.5899,-3.5906,-3.5908,-3.583,-3.5771,-3.5706,-3.563,-3.5615,-3.5606,-3.5521,-3.5496,-3.5509,-3.5501,-3.55,-3.55,-3.55,-3.5507,-3.5507,-3.5507,-3.5507,-3.5507,-3.5507,-3.55,-3.55,-3.55,-3.55,-3.55,-3.55,-3.55,-3.55,-3.55,-3.55,-3.5494,-3.5502,-3.549,-3.5522,-3.5591,-3.5604,-3.5598,-3.5604,-3.5604,-3.5598,-3.5598,-3.5604,-3.559,-3.5606,-3.5704,-3.5823,-3.5882,-3.5903,-3.5902,-3.5906,-3.5898,-3.5926,-3.5992,-3.6001,-3.6005,-3.6005,-3.5992,-3.5995,-3.5996,-3.5996,-3.5996,-3.5996,-3.5996,-3.5996,-3.5996,-3.5996,-3.5996,-3.5996,-3.5996,-3.5996,-3.5996,-3.5995,-3.5995,0.0,0.0,-4.0362,-3.9842,0.0,0.0,0.0,0.0,0.0,0.0,0.0,0.0,0.0,0.0,-3.5521,-3.5521,-3.5521,0.0,0.0,0.0,0.0,0.0,0.0,0.0,0.0,0.0,0.0,-3.661,-3.6341,-3.6177,-3.6166,-3.5922,-3.5783,-3.5838,-3.582,-3.5833,-3.5833,-3.5829,-3.5803,-3.5767,-3.5694,-3.5669,-3.5618,-3.555,-3.5534,-3.554,-3.5509,-3.5501,-3.5501,-3.5507,-3.55,-3.55,-3.55,-3.55,-3.55,-3.55,-3.55,-3.55,-3.55,-3.55,-3.55,-3.55,-3.55,-3.55,-3.55,-3.55,-3.55,-3.55,-3.55,-3.5507,-3.5501,-3.5501,-3.5508,-3.554,-3.5521,-3.5521,-3.5521,-3.5521,-3.5521,-3.5521,-3.5521,-3.5534,-3.5534,-3.557,-3.5643,-3.5754,-3.5819,-3.5829,-3.5837,-3.5864,-3.5902,-3.5934,-3.5927,-3.5939,-3.5931,-3.5964,-3.5992,-3.5995,-3.5995,-3.5996,-3.5996,-3.5996,-3.5996,-3.5996,-3.5996,-3.5996,-3.5996,-3.5996,-3.5996,-3.5996,-3.5996,-3.5996,-4.0496,-4.0285,0.0,-3.9438,-3.8834,0.0,-3.6962,0.0,0.0,0.0,0.0,0.0,0.0,0.0,0.0,-3.55,-3.55,-3.55,0.0,-3.5508,0.0,0.0,0.0,0.0,0.0,0.0,-3.5664,-3.5664,-3.5667,-3.5662,0.0,0.0,-3.5679,-3.5732,-3.5721,-3.5739,-3.5739,-3.5727,-3.5718,-3.5664,-3.561,-3.555,-3.5571,-3.5515,-3.5502,-3.5502,-3.5494,-3.55,-3.55,-3.55,-3.55,-3.55,-3.55,-3.55,-3.55,-3.55,-3.55,-3.55,-3.55,-3.55,-3.55,-3.55,-3.55,-3.55,-3.55,-3.55,-3.55,-3.55,-3.55,-3.55,-3.55,-3.55,-3.55,-3.55,-3.55,-3.55,-3.55,-3.55,-3.55,-3.55,-3.55,-3.5507,-3.5502,-3.5502,-3.5534,-3.5648,-3.5694,-3.5747,-3.5763,-3.5792,-3.5838,-3.5824,-3.584,-3.5869,-3.5908,-3.5946,-3.5979,-3.6009,-3.5992,-3.5993,-3.5995,-3.5995,-3.5995,-3.5996,-3.5996,-3.5996,-3.5996,-3.5996,-3.5996,-3.5996,-3.5996,-3.5996]},{"header":{"parameterUnit":"m.s-1","parameterCategory":1,"la1":30.6,"la2":29.2853,"lo1":-89.7004,"lo2":-87.6739,"dy":0.0162,"dx":0.0183,"nx":112,"ny":82,"refTime":"2023-09-04T00:00:00:Z","depth":0,"parameterNumber":3,"parameterNumberName":"V-component_of_WINDS"},"data":[0.0,0.0,0.0,0.0,0.0,0.0,0.0,0.0,0.0,0.0,0.0,0.0,0.0,0.0,0.0,0.0,0.0,0.0,0.0,0.0,0.0,0.0,0.0,0.0,0.0,0.0,0.0,0.0,0.0,0.0,0.0,0.0,0.0,0.0,0.0,0.0,0.0,0.0,0.0,0.0,0.0,0.0,0.0,0.0,0.0,0.0,0.0,0.0,0.0,0.0,0.0,0.0,0.0,0.0,0.0,0.0,0.0,0.0,0.0,0.0,0.0,0.0,0.0,0.0,0.0,0.0,0.0,0.0,0.0,0.0,0.0,0.0,0.0,0.0,0.0,0.0,0.0,0.0,0.0,0.0,0.0,0.0,0.0,0.0,0.0,0.0,0.0,0.0,0.0,0.0,0.0,-2.3168,-2.3628,-2.4099,-2.4551,-2.5133,-2.5742,-2.631,0.0,0.0,0.0,0.0,0.0,0.0,0.0,0.0,0.0,0.0,0.0,0.0,0.0,0.0,0.0,0.0,0.0,0.0,0.0,0.0,0.0,0.0,0.0,0.0,0.0,0.0,0.0,0.0,0.0,0.0,0.0,0.0,0.0,0.0,0.0,0.0,0.0,0.0,0.0,0.0,0.0,0.0,0.0,0.0,0.0,0.0,0.0,0.0,0.0,0.0,0.0,0.0,0.0,0.0,0.0,0.0,0.0,0.0,0.0,0.0,0.0,0.0,0.0,0.0,0.0,0.0,0.0,0.0,0.0,0.0,0.0,0.0,0.0,0.0,0.0,0.0,0.0,0.0,0.0,0.0,0.0,0.0,0.0,0.0,0.0,0.0,0.0,0.0,0.0,0.0,0.0,0.0,0.0,0.0,0.0,0.0,0.0,0.0,0.0,0.0,0.0,0.0,0.0,0.0,-2.3198,-2.3509,-2.3852,-2.4305,-2.4892,-2.5467,-2.6069,-2.659,0.0,0.0,0.0,0.0,0.0,0.0,0.0,0.0,0.0,0.0,0.0,0.0,0.0,0.0,0.0,0.0,0.0,0.0,0.0,0.0,0.0,0.0,0.0,0.0,0.0,0.0,0.0,0.0,0.0,0.0,0.0,0.0,0.0,0.0,0.0,0.0,0.0,0.0,0.0,0.0,0.0,0.0,0.0,0.0,0.0,0.0,0.0,0.0,0.0,0.0,0.0,0.0,0.0,0.0,0.0,0.0,0.0,0.0,0.0,0.0,0.0,0.0,0.0,0.0,0.0,0.0,0.0,0.0,0.0,0.0,0.0,0.0,0.0,0.0,0.0,0.0,0.0,0.0,0.0,0.0,0.0,0.0,0.0,0.0,0.0,0.0,0.0,0.0,0.0,0.0,0.0,0.0,0.0,0.0,0.0,0.0,0.0,0.0,0.0,0.0,0.0,0.0,0.0,-2.3168,-2.3228,-2.3569,-2.3897,-2.4334,-2.4948,-2.5564,-2.6123,-2.6683,-2.6907,0.0,0.0,0.0,0.0,0.0,0.0,0.0,0.0,0.0,0.0,0.0,0.0,0.0,0.0,0.0,0.0,0.0,0.0,0.0,0.0,0.0,0.0,0.0,0.0,0.0,0.0,0.0,0.0,0.0,0.0,0.0,0.0,0.0,0.0,0.0,0.0,0.0,0.0,0.0,0.0,0.0,0.0,0.0,0.0,0.0,0.0,0.0,0.0,0.0,0.0,0.0,0.0,0.0,0.0,0.0,0.0,0.0,0.0,0.0,0.0,0.0,0.0,0.0,0.0,0.0,0.0,0.0,0.0,0.0,0.0,0.0,0.0,0.0,0.0,0.0,0.0,0.0,0.0,0.0,0.0,0.0,0.0,0.0,0.0,0.0,0.0,0.0,0.0,0.0,0.0,0.0,0.0,0.0,0.0,0.0,0.0,0.0,0.0,0.0,0.0,0.0,0.0,-2.3108,-2.3228,-2.3569,-2.3897,-2.4334,-2.4948,-2.5564,-2.6123,-2.6683,-2.7011,0.0,0.0,0.0,0.0,0.0,0.0,0.0,0.0,0.0,0.0,0.0,0.0,0.0,0.0,0.0,0.0,0.0,0.0,0.0,0.0,0.0,0.0,0.0,0.0,0.0,0.0,0.0,0.0,0.0,0.0,0.0,0.0,0.0,0.0,0.0,0.0,0.0,0.0,0.0,0.0,0.0,0.0,0.0,0.0,0.0,0.0,0.0,0.0,0.0,0.0,0.0,0.0,0.0,0.0,0.0,0.0,0.0,0.0,0.0,0.0,0.0,0.0,0.0,0.0,0.0,0.0,0.0,0.0,0.0,0.0,0.0,0.0,0.0,0.0,0.0,0.0,0.0,0.0,0.0,0.0,0.0,0.0,0.0,0.0,0.0,0.0,0.0,0.0,0.0,0.0,0.0,0.0,0.0,0.0,0.0,0.0,0.0,0.0,0.0,0.0,0.0,0.0,-2.3108,-2.3228,-2.3569,-2.3897,-2.4334,-2.4948,-2.5564,-2.6123,-2.6683,-2.7011,0.0,0.0,0.0,0.0,0.0,0.0,0.0,0.0,0.0,0.0,0.0,0.0,0.0,0.0,0.0,0.0,0.0,0.0,0.0,0.0,0.0,0.0,0.0,0.0,0.0,0.0,0.0,0.0,0.0,0.0,0.0,0.0,0.0,0.0,0.0,0.0,0.0,0.0,0.0,0.0,0.0,0.0,0.0,0.0,0.0,0.0,0.0,0.0,0.0,0.0,0.0,0.0,0.0,0.0,0.0,0.0,0.0,0.0,0.0,0.0,0.0,0.0,0.0,0.0,0.0,0.0,0.0,0.0,0.0,0.0,0.0,0.0,0.0,0.0,0.0,0.0,0.0,0.0,0.0,0.0,0.0,0.0,0.0,0.0,0.0,0.0,0.0,0.0,0.0,0.0,0.0,0.0,0.0,0.0,0.0,0.0,0.0,0.0,0.0,0.0,0.0,0.0,-2.3108,-2.3228,0.0,-2.3897,-2.4334,-2.4948,-2.5564,-2.6123,-2.6683,0.0,0.0,0.0,0.0,0.0,0.0,0.0,0.0,0.0,0.0,0.0,0.0,0.0,0.0,0.0,0.0,0.0,0.0,0.0,0.0,0.0,0.0,0.0,0.0,0.0,0.0,0.0,0.0,0.0,0.0,0.0,0.0,0.0,0.0,0.0,0.0,0.0,0.0,0.0,0.0,0.0,0.0,0.0,0.0,0.0,0.0,0.0,0.0,0.0,0.0,0.0,0.0,0.0,0.0,0.0,0.0,0.0,0.0,0.0,0.0,0.0,0.0,0.0,0.0,0.0,0.0,0.0,0.0,0.0,0.0,0.0,0.0,0.0,0.0,0.0,0.0,0.0,0.0,0.0,0.0,0.0,0.0,0.0,0.0,0.0,0.0,0.0,0.0,0.0,0.0,0.0,0.0,0.0,0.0,0.0,0.0,0.0,0.0,0.0,0.0,0.0,0.0,-2.3108,-2.3108,-2.3228,0.0,-2.3897,-2.4334,-2.4948,-2.5564,-2.6096,-2.6604,0.0,0.0,0.0,0.0,0.0,0.0,0.0,0.0,0.0,0.0,0.0,0.0,0.0,0.0,0.0,0.0,0.0,0.0,0.0,0.0,0.0,0.0,0.0,0.0,0.0,0.0,0.0,0.0,0.0,0.0,0.0,0.0,0.0,0.0,0.0,0.0,0.0,0.0,0.0,0.0,0.0,0.0,0.0,0.0,0.0,0.0,0.0,0.0,0.0,0.0,0.0,0.0,0.0,0.0,0.0,0.0,0.0,0.0,0.0,0.0,0.0,0.0,0.0,0.0,0.0,0.0,0.0,0.0,0.0,0.0,0.0,0.0,0.0,0.0,0.0,0.0,0.0,0.0,0.0,0.0,0.0,0.0,0.0,0.0,0.0,0.0,0.0,0.0,0.0,0.0,0.0,0.0,0.0,0.0,0.0,0.0,0.0,0.0,0.0,0.0,0.0,0.0,-2.3108,-2.3108,-2.3228,-2.3569,-2.3897,-2.4334,-2.4948,-2.5564,-2.6069,0.0,0.0,0.0,0.0,0.0,0.0,0.0,0.0,0.0,0.0,0.0,0.0,0.0,0.0,0.0,0.0,0.0,0.0,0.0,0.0,0.0,0.0,0.0,0.0,0.0,0.0,0.0,0.0,0.0,0.0,0.0,0.0,0.0,0.0,0.0,0.0,0.0,0.0,0.0,0.0,0.0,0.0,0.0,0.0,0.0,0.0,0.0,0.0,0.0,0.0,0.0,0.0,0.0,0.0,0.0,0.0,0.0,0.0,0.0,0.0,0.0,0.0,0.0,0.0,0.0,0.0,0.0,0.0,0.0,0.0,0.0,0.0,0.0,0.0,0.0,0.0,0.0,0.0,0.0,0.0,0.0,0.0,0.0,0.0,0.0,0.0,0.0,0.0,0.0,0.0,0.0,0.0,0.0,0.0,0.0,0.0,0.0,0.0,0.0,0.0,0.0,0.0,0.0,-2.3108,-2.3108,-2.3228,-2.3569,-2.3897,-2.4334,-2.4948,-2.5481,-2.5961,-2.6457,0.0,0.0,0.0,0.0,0.0,0.0,0.0,0.0,0.0,0.0,0.0,0.0,0.0,0.0,0.0,0.0,0.0,0.0,0.0,0.0,0.0,0.0,0.0,0.0,0.0,0.0,0.0,0.0,0.0,0.0,0.0,0.0,0.0,0.0,0.0,0.0,0.0,0.0,0.0,0.0,0.0,0.0,0.0,0.0,0.0,0.0,0.0,0.0,0.0,0.0,0.0,0.0,0.0,0.0,0.0,0.0,0.0,0.0,0.0,0.0,0.0,0.0,0.0,0.0,0.0,0.0,0.0,0.0,0.0,0.0,0.0,0.0,0.0,0.0,0.0,0.0,0.0,0.0,0.0,0.0,0.0,0.0,0.0,0.0,0.0,0.0,0.0,0.0,0.0,0.0,0.0,0.0,0.0,0.0,0.0,0.0,0.0,0.0,0.0,0.0,0.0,0.0,-2.3108,-2.3108,-2.3228,-2.3569,-2.3897,-2.4334,-2.4863,-2.5397,-2.5879,-2.6312,0.0,0.0,0.0,0.0,0.0,0.0,0.0,0.0,0.0,0.0,0.0,0.0,0.0,0.0,0.0,0.0,0.0,0.0,0.0,0.0,0.0,0.0,0.0,0.0,0.0,0.0,0.0,0.0,0.0,0.0,0.0,0.0,0.0,0.0,0.0,0.0,0.0,0.0,0.0,0.0,0.0,0.0,0.0,0.0,0.0,0.0,0.0,0.0,0.0,0.0,0.0,0.0,0.0,0.0,0.0,0.0,0.0,0.0,0.0,0.0,0.0,0.0,0.0,0.0,0.0,0.0,0.0,0.0,0.0,0.0,0.0,0.0,0.0,0.0,0.0,0.0,0.0,0.0,0.0,0.0,0.0,0.0,0.0,0.0,0.0,0.0,0.0,0.0,0.0,0.0,0.0,0.0,0.0,0.0,0.0,0.0,0.0,0.0,0.0,0.0,0.0,0.0,-2.3258,-2.3258,-2.3379,-2.3722,-2.4066,-2.4435,-2.4911,-2.5452,-2.5868,-2.6141,0.0,0.0,0.0,0.0,0.0,0.0,0.0,0.0,0.0,0.0,0.0,0.0,0.0,0.0,0.0,0.0,0.0,0.0,0.0,0.0,0.0,0.0,0.0,0.0,0.0,0.0,0.0,0.0,0.0,0.0,0.0,0.0,0.0,0.0,0.0,0.0,0.0,0.0,0.0,0.0,0.0,0.0,0.0,0.0,0.0,0.0,0.0,0.0,0.0,0.0,0.0,0.0,0.0,0.0,0.0,0.0,0.0,0.0,0.0,0.0,-1.1223,0.0,0.0,0.0,0.0,0.0,0.0,0.0,0.0,0.0,0.0,0.0,0.0,0.0,0.0,0.0,0.0,0.0,0.0,0.0,0.0,0.0,0.0,0.0,0.0,0.0,0.0,0.0,0.0,0.0,0.0,0.0,0.0,0.0,0.0,0.0,0.0,0.0,0.0,0.0,0.0,0.0,-2.4374,-2.4424,-2.4583,-2.4917,-2.5229,-2.563,-2.6103,-2.6229,-2.6356,-2.661,-2.6503,0.0,0.0,0.0,0.0,0.0,0.0,0.0,0.0,0.0,0.0,0.0,0.0,0.0,0.0,0.0,0.0,0.0,0.0,0.0,0.0,0.0,0.0,0.0,0.0,0.0,0.0,0.0,0.0,0.0,0.0,0.0,0.0,0.0,0.0,0.0,0.0,0.0,0.0,0.0,0.0,0.0,0.0,0.0,0.0,0.0,0.0,0.0,0.0,0.0,0.0,0.0,0.0,0.0,0.0,0.0,0.0,0.0,0.0,0.0,0.0,-1.1446,0.0,0.0,0.0,0.0,0.0,0.0,0.0,0.0,0.0,0.0,0.0,0.0,0.0,0.0,0.0,0.0,0.0,0.0,0.0,0.0,0.0,0.0,0.0,0.0,0.0,0.0,0.0,0.0,0.0,0.0,0.0,0.0,0.0,0.0,0.0,0.0,0.0,0.0,0.0,0.0,-2.475,-2.4788,-2.4936,-2.5262,-2.5516,-2.5811,-2.6233,-2.6465,-2.6579,-2.6565,-2.6539,0.0,0.0,0.0,0.0,0.0,0.0,0.0,0.0,0.0,0.0,0.0,0.0,0.0,0.0,0.0,0.0,0.0,0.0,0.0,0.0,0.0,0.0,0.0,0.0,0.0,0.0,0.0,0.0,0.0,0.0,0.0,0.0,0.0,0.0,0.0,0.0,0.0,0.0,0.0,0.0,0.0,0.0,0.0,0.0,0.0,0.0,0.0,0.0,0.0,0.0,0.0,0.0,0.0,-0.6874,-0.715,-0.7608,-0.8024,-0.8549,-0.9221,-1.0198,-1.1045,-1.1781,-1.1855,0.0,0.0,0.0,0.0,0.0,0.0,0.0,0.0,0.0,0.0,0.0,0.0,0.0,0.0,0.0,0.0,0.0,0.0,0.0,0.0,0.0,0.0,0.0,0.0,-1.8081,-1.8144,0.0,0.0,0.0,0.0,0.0,0.0,0.0,0.0,0.0,0.0,0.0,0.0,-2.5096,-2.5109,-2.5227,-2.5569,-2.5717,-2.594,-2.6301,-2.672,-2.6846,-2.6564,-2.6676,-2.6694,0.0,0.0,0.0,0.0,0.0,0.0,0.0,0.0,0.0,0.0,0.0,0.0,0.0,0.0,0.0,0.0,0.0,0.0,0.0,0.0,0.0,0.0,0.0,0.0,0.0,0.0,0.0,0.0,0.0,0.0,0.0,0.0,-0.2688,-0.2983,0.0,0.0,0.0,0.0,0.0,0.0,0.0,0.0,0.0,0.0,0.0,0.0,0.0,-0.7038,-0.7038,-0.6916,-0.6856,-0.6856,-0.6763,-0.6864,-0.7105,-0.7567,-0.8131,-0.8715,-0.9454,0.0,-1.0999,-1.1335,0.0,0.0,0.0,0.0,0.0,0.0,0.0,0.0,0.0,0.0,0.0,0.0,0.0,0.0,0.0,0.0,0.0,0.0,0.0,0.0,0.0,0.0,-1.8105,-1.8432,-1.852,-1.8617,0.0,-1.8815,-1.8728,-1.9558,-2.0404,0.0,0.0,0.0,0.0,0.0,0.0,0.0,-2.621,-2.6285,-2.6409,-2.6726,-2.6948,-2.7202,-2.7519,-2.7551,-2.7556,-2.7536,-2.6943,-2.6665,-2.6778,-2.6367,0.0,0.0,0.0,0.0,0.0,0.0,0.0,0.0,0.0,0.0,0.0,0.0,0.0,0.0,0.0,0.0,0.0,0.0,0.0,0.0,0.0,0.0,0.0,0.0,0.0,0.0,0.0,0.0,0.0,-0.3211,-0.373,-0.401,-0.41,-0.4253,0.0,0.0,0.0,0.0,0.0,0.0,0.0,0.0,0.0,-0.7095,-0.7095,-0.7095,-0.7095,-0.7034,-0.7004,-0.7004,-0.6937,-0.7035,-0.7293,-0.7511,-0.7885,-0.8422,-0.8952,-0.9608,-1.0354,-1.1136,-1.1797,-1.2305,0.0,0.0,0.0,0.0,-1.2445,-1.2305,-1.2305,-1.2305,0.0,-1.2305,0.0,0.0,0.0,0.0,0.0,0.0,0.0,0.0,0.0,0.0,-1.8637,-1.8919,-1.9004,-1.9053,-1.9248,-1.9209,-1.9319,0.0,-2.0794,-2.1786,-2.3006,0.0,0.0,0.0,0.0,-2.621,-2.6461,-2.6499,-2.6602,-2.6794,-2.6897,-2.71,-2.749,-2.7565,-2.7565,-2.7548,-2.7326,-2.7096,-2.6806,-2.661,-2.6492,0.0,0.0,0.0,0.0,0.0,0.0,0.0,0.0,0.0,0.0,0.0,0.0,0.0,0.0,0.0,0.0,0.0,0.0,0.0,0.0,0.0,0.0,0.0,0.0,0.0,0.0,0.0,0.0,-0.431,-0.4752,-0.4992,-0.5105,-0.5286,0.0,0.0,0.0,0.0,0.0,0.0,-0.6881,-0.701,-0.7095,-0.7095,-0.7095,-0.7095,-0.7095,-0.7095,-0.7095,-0.7095,-0.7095,-0.7187,-0.7415,-0.7462,-0.7745,-0.8139,-0.8696,-0.9292,-0.998,-1.096,-1.1754,-1.2439,-1.273,-1.287,-1.2904,-1.2904,-1.2726,-1.2532,-1.2532,-1.2532,-1.2532,-1.2532,-1.2532,-1.2569,-1.2832,0.0,0.0,0.0,0.0,-1.7587,-1.8221,-1.8711,-1.907,-1.9387,-1.9443,-1.9482,-1.9627,-1.9777,-2.0052,0.0,-2.1119,-2.2061,-2.3357,0.0,0.0,0.0,0.0,-2.643,-2.6499,-2.6499,-2.6555,-2.6679,-2.6679,-2.685,-2.7268,-2.7436,-2.7505,-2.7586,-2.7615,-2.7469,-2.7095,-2.6775,-2.654,-2.638,0.0,0.0,0.0,0.0,0.0,0.0,0.0,0.0,0.0,0.0,0.0,0.0,0.0,0.0,0.0,0.0,0.0,0.0,0.0,0.0,0.0,0.0,0.0,0.0,0.0,0.0,0.0,0.0,0.0,-0.6163,-0.6227,0.0,0.0,0.0,0.0,-0.6748,-0.6795,-0.6881,-0.7098,-0.7095,-0.7095,-0.7095,-0.7095,-0.7095,-0.7095,-0.7095,-0.7095,-0.7095,-0.7095,-0.7095,-0.7139,-0.737,-0.7632,-0.7973,-0.8632,-0.9279,-0.9971,-1.0651,-1.1439,-1.224,-1.2525,-1.2843,-1.3186,-1.3186,-1.318,-1.316,-1.316,-1.316,-1.316,-1.316,-1.316,-1.3239,-1.3618,-1.4063,0.0,0.0,-1.6598,-1.7391,-1.8175,-1.8711,-1.9137,-1.971,-1.9883,-2.0,-2.0449,-2.0672,-2.0833,0.0,-2.1314,-2.2172,-2.3627,0.0,-2.4981,-2.5793,-2.6097,-2.627,-2.6499,-2.6499,-2.6555,-2.6679,-2.6679,-2.685,-2.7268,-2.7436,-2.7656,-2.8039,-2.7653,-2.7557,-2.7827,-2.6736,-2.6293,-2.658,-2.6147,0.0,0.0,0.0,0.0,0.0,0.0,0.0,0.0,0.0,0.0,0.0,0.0,0.0,0.0,0.0,0.0,0.0,0.0,0.0,0.0,0.0,0.0,0.0,0.0,0.0,0.0,0.0,0.0,-0.6665,-0.6747,0.0,-0.6871,-0.683,-0.6874,-0.6966,-0.701,-0.701,-0.7095,-0.7095,-0.7095,-0.7095,-0.7095,-0.7095,-0.7095,-0.7095,-0.7095,-0.7095,-0.7095,-0.7095,-0.7095,-0.7187,-0.7499,-0.794,-0.8464,-0.9248,-1.0193,-1.0895,-1.171,-1.2552,-1.2974,-1.3244,-1.3447,-1.3447,-1.3367,-1.3213,-1.3213,-1.3213,-1.3213,-1.3213,-1.3213,-1.3326,-1.3942,-1.4438,-1.5041,-1.6133,-1.7075,-1.7904,-1.8763,-1.9266,-1.9697,-2.0226,-2.0332,-2.0419,-2.0566,-2.0654,-2.0731,-2.0851,-2.1559,-2.2461,-2.3534,-2.4263,-2.4933,-2.5618,-2.598,-2.627,-2.6465,-2.6499,-2.6521,-2.6555,-2.6555,-2.6658,-2.6897,-2.7079,-2.7403,-2.7868,-2.7866,-2.7875,-2.7906,-2.7499,-2.7001,-2.6477,-2.6327,-2.612,0.0,0.0,0.0,0.0,0.0,0.0,0.0,0.0,0.0,0.0,0.0,0.0,0.0,0.0,0.0,0.0,0.0,0.0,0.0,0.0,0.0,0.0,0.0,0.0,0.0,0.0,-0.682,-0.6957,-0.7041,-0.7095,-0.7095,-0.7095,-0.7095,-0.7095,-0.7095,-0.7119,-0.7214,-0.7217,-0.7241,-0.725,-0.725,-0.725,-0.725,-0.725,-0.725,-0.725,-0.725,-0.7223,-0.7217,-0.7217,-0.746,-0.794,-0.8376,-0.9205,-1.025,-1.0982,-1.1843,-1.2747,-1.3222,-1.3536,-1.3753,-1.3753,-1.3674,-1.3507,-1.3507,-1.3507,-1.3507,-1.3507,-1.3507,-1.3622,-1.4254,-1.4753,-1.5368,-1.6495,-1.7416,-1.8313,-1.9183,-1.9706,-2.0137,-2.0527,-2.0605,-2.0605,-2.0605,-2.0605,-2.0693,-2.0935,-2.1578,-2.2365,-2.3261,-2.3973,-2.4695,-2.55,-2.5875,-2.6201,-2.6465,-2.6499,-2.6499,-2.6499,-2.6499,-2.6555,-2.6679,-2.6875,-2.7214,-2.7656,-2.7901,-2.8023,-2.8035,-2.7831,-2.7448,-2.685,-2.6454,-2.6018,-2.5605,0.0,0.0,0.0,0.0,0.0,0.0,0.0,0.0,0.0,0.0,0.0,0.0,0.0,0.0,0.0,0.0,0.0,0.0,0.0,0.0,0.0,0.0,0.0,-0.6291,-0.6749,-0.7095,-0.7095,-0.7095,-0.7095,-0.7095,-0.7095,-0.7098,-0.7102,-0.7102,-0.7214,-0.7415,-0.7426,-0.7448,-0.7594,-0.76,-0.76,-0.76,-0.76,-0.76,-0.76,-0.76,-0.7522,-0.7426,-0.7426,-0.7569,-0.7959,-0.8384,-0.9126,-1.0091,-1.0944,-1.1843,-1.2747,-1.3222,-1.3701,-1.4088,-1.4088,-1.4088,-1.4088,-1.4088,-1.4088,-1.4088,-1.4088,-1.4088,-1.4166,-1.4573,-1.5026,-1.5643,-1.6706,-1.7651,-1.8505,-1.9359,-1.9951,-2.0342,-2.0566,-2.0605,-2.0605,-2.0605,-2.0605,-2.0722,-2.1128,-2.1359,-2.1807,-2.2815,-2.3519,-2.4286,-2.543,-2.5758,0.0,-2.6465,-2.6499,-2.6499,-2.6499,-2.6499,-2.6555,-2.6692,-2.6875,-2.7146,-2.7456,-2.7689,-2.7941,-2.8254,-2.7749,-2.7503,-2.7674,-2.6511,-2.5732,-2.5398,0.0,0.0,0.0,0.0,0.0,0.0,0.0,0.0,0.0,0.0,0.0,0.0,0.0,0.0,0.0,0.0,0.0,0.0,0.0,0.0,0.0,0.0,-0.6207,-0.6605,-0.6899,-0.7095,-0.7095,-0.7095,-0.7095,-0.7095,-0.7095,-0.7142,-0.7299,-0.7309,-0.7373,-0.7529,-0.7536,-0.7556,-0.7597,-0.76,-0.76,-0.76,-0.76,-0.76,-0.76,-0.76,-0.7577,-0.7536,-0.7536,-0.7791,-0.8199,-0.8574,-0.9374,-1.0479,-1.105,-1.1972,-1.3009,-1.3307,-1.3701,-1.4088,-1.4088,-1.4088,-1.4088,-1.4088,-1.4088,-1.4088,-1.4088,-1.4088,-1.4166,-1.4573,-1.5026,-1.5643,-1.6706,-1.7651,-1.8505,-1.9359,-1.9951,-2.0342,-2.0566,-2.0605,-2.0605,-2.0605,-2.0605,-2.0693,-2.0945,-2.1244,-2.1807,-2.2815,-2.3641,-2.4406,-2.5241,-2.5688,0.0,-2.6465,-2.6499,-2.6499,-2.6499,-2.6499,-2.6499,-2.6555,-2.6692,-2.6884,-2.7108,-2.7423,-2.7689,-2.7941,-2.7906,-2.7736,-2.734,-2.6072,-2.5394,0.0,0.0,0.0,0.0,0.0,0.0,0.0,0.0,0.0,0.0,0.0,0.0,0.0,0.0,0.0,0.0,0.0,0.0,0.0,0.0,0.0,0.0,-0.5902,-0.6526,-0.6881,-0.701,-0.7095,-0.7095,-0.7095,-0.7122,-0.7231,-0.7238,-0.7302,-0.7455,-0.7465,-0.7533,-0.7682,-0.7689,-0.7719,-0.7784,-0.7784,-0.7784,-0.7784,-0.7784,-0.7784,-0.7784,-0.7784,-0.775,-0.7689,-0.7689,-0.7888,-0.8333,-0.8606,-0.9479,-1.0648,-1.1095,-1.2006,0.0,0.0,0.0,0.0,0.0,-1.4088,-1.4088,-1.4088,-1.4088,-1.4088,-1.4088,-1.4088,-1.4166,-1.4573,-1.5026,-1.5643,-1.6706,-1.7651,-1.8505,-1.9359,-1.9951,-2.0342,-2.0566,-2.0605,-2.0605,-2.0605,-2.0605,-2.0683,-2.0974,-2.1359,0.0,-2.2852,-2.3666,-2.4491,-2.5312,-2.5758,-2.6119,-2.6465,-2.6499,-2.6499,-2.6499,-2.6499,-2.6499,-2.6499,-2.6624,0.0,0.0,0.0,-2.7369,-2.759,-2.7769,0.0,0.0,0.0,-2.5507,-2.5129,0.0,0.0,0.0,-2.5974,-2.6312,0.0,0.0,0.0,0.0,0.0,0.0,0.0,0.0,0.0,0.0,0.0,0.0,0.0,0.0,0.0,0.0,-0.6346,-0.6881,-0.7051,-0.7109,-0.7122,-0.7122,-0.7122,-0.7227,-0.738,-0.7443,-0.7458,-0.7611,-0.7624,-0.7685,-0.7828,0.0,0.0,0.0,0.0,-0.7988,-0.7988,-0.7988,-0.7988,-0.7988,-0.7988,-0.7917,-0.7838,-0.7838,-0.8003,-0.8345,-0.8605,-0.9435,-1.0635,-1.1106,-1.2093,-1.3221,-1.339,-1.3737,-1.4088,-1.4088,-1.4088,-1.4088,-1.4088,0.0,0.0,-1.4088,-1.4088,-1.4166,-1.4573,-1.5026,-1.5602,-1.6706,-1.761,-1.8465,-1.9359,-1.9912,-2.0342,-2.0527,-2.0566,-2.0605,-2.0605,-2.0605,-2.0722,-2.1128,-2.1512,-2.2035,-2.2852,-2.3655,-2.4515,-2.5382,-2.5898,-2.6236,-2.643,-2.6499,-2.6499,-2.6499,0.0,0.0,-2.6499,-2.6624,-2.6692,-2.6692,-2.6875,-2.7045,-2.7268,-2.7369,-2.7135,-2.6465,-2.6401,-2.5858,-2.4826,-2.4696,-2.4571,-2.4471,-2.5244,-2.5757,0.0,0.0,0.0,0.0,0.0,0.0,0.0,0.0,0.0,0.0,0.0,0.0,0.0,0.0,0.0,-0.5858,-0.6482,-0.6881,-0.7051,-0.7248,-0.7326,-0.7326,-0.7326,-0.7387,-0.7539,-0.7556,-0.7614,-0.776,-0.777,-0.7834,-0.7938,-0.7944,-0.7961,-0.7988,-0.7988,-0.7988,-0.7988,-0.7988,-0.7988,-0.7988,0.0,0.0,-0.7944,-0.7944,-0.8125,-0.8381,-0.8738,-0.9438,-1.0513,-1.1287,-1.2558,-1.4008,-1.3982,-1.3997,-1.4088,-1.4088,-1.4088,-1.4088,-1.4088,-1.4088,-1.4088,-1.4088,-1.4088,-1.4166,-1.4573,-1.4908,0.0,-1.6673,-1.7521,-1.8247,-1.9143,-1.9824,-2.0303,-2.0342,-2.0489,-2.0605,-2.0605,-2.0605,-2.0722,-2.1128,-2.1397,-2.1883,-2.2815,-2.3666,-2.4394,-2.5016,-2.5606,-2.6015,-2.6236,-2.6396,-2.6499,-2.6499,-2.6499,-2.6499,-2.6499,-2.6521,-2.6521,-2.6521,-2.6692,-2.6841,-2.7045,-2.7079,-2.7027,-2.6891,-2.6297,-2.5874,-2.5657,-2.4753,-2.4287,-2.4264,-2.4762,-2.5188,0.0,0.0,0.0,0.0,0.0,0.0,0.0,0.0,0.0,0.0,0.0,-0.1928,0.0,0.0,-0.5322,-0.6124,-0.6716,-0.7123,-0.7258,-0.7387,-0.7458,-0.7426,-0.7441,-0.7543,-0.7692,-0.7706,-0.7767,-0.7867,-0.7877,-0.7911,-0.7985,-0.7988,-0.7988,-0.7988,-0.7988,-0.7988,-0.7988,-0.7988,-0.7988,-0.7988,-0.7988,-0.7988,-0.7988,-0.7988,-0.8137,-0.8428,-0.8739,-0.9531,-1.0725,-1.2172,-1.3341,-1.4238,-1.446,-1.4436,-1.4282,-1.4142,-1.4088,-1.4088,-1.4088,-1.4088,-1.4088,-1.4088,-1.4088,-1.4166,-1.4447,-1.4824,-1.5291,-1.6278,-1.709,-1.7893,-1.8776,-1.9469,-1.999,-2.0225,-2.045,-2.0605,-2.0605,-2.0605,-2.0683,-2.0974,-2.1205,-2.1617,-2.2402,-2.3038,-2.3765,-2.4719,-2.5347,-2.5793,-2.5875,-2.6084,-2.6258,-2.6339,-2.6339,-2.6396,-2.6499,-2.6499,-2.6499,-2.6499,-2.6555,-2.6624,-2.6739,-2.6739,-2.6739,-2.6739,-2.6392,-2.6034,-2.5744,-2.4892,-2.4412,-2.4184,-2.4123,-2.4363,0.0,0.0,0.0,0.0,0.0,0.0,0.0,0.0,-0.0135,-0.0583,-0.1345,-0.2243,-0.3419,-0.4636,-0.5723,-0.637,-0.7015,-0.746,-0.746,-0.7546,-0.7594,-0.7472,-0.7567,-0.7695,-0.7841,-0.7855,-0.7906,-0.7982,-0.7988,-0.7988,-0.7988,-0.7988,-0.7988,-0.7988,-0.7988,-0.7988,-0.7988,-0.7988,-0.7988,-0.7988,-0.7988,-0.7988,-0.7988,-0.7988,-0.8137,-0.8333,-0.8874,-0.9862,-1.1179,-1.3163,-1.413,-1.4429,-1.4883,-1.4903,-1.4656,-1.4362,-1.4255,-1.4255,-1.4255,-1.4255,-1.4255,-1.4255,-1.4255,-1.4298,-1.4491,-1.4838,-1.5268,-1.6027,-1.6723,-1.7491,-1.8368,-1.9047,-1.9597,-2.0069,-2.0342,-2.0566,-2.0605,-2.0605,-2.0654,-2.0867,-2.1022,-2.132,-2.1883,-2.2289,-2.299,-2.4288,-2.4981,-2.5347,-2.5418,-2.5641,-2.5875,-2.6062,-2.6131,-2.6201,-2.6361,-2.643,-2.643,-2.643,-2.6499,-2.6499,-2.6499,-2.6499,-2.6499,-2.6499,-2.6499,-2.626,-2.5762,-2.5234,-2.4759,-2.4286,-2.3773,-2.3761,0.4251,0.309,0.0,0.0987,0.0583,0.0314,0.0,0.0,-0.0135,-0.0583,-0.1478,-0.2476,-0.3577,-0.492,-0.6055,-0.6637,-0.7232,-0.7573,-0.7573,-0.7695,-0.778,-0.7763,-0.7777,-0.7848,-0.7948,-0.7965,-0.7971,-0.7988,-0.7988,-0.7988,-0.7988,-0.7988,-0.7988,-0.7988,-0.7988,-0.7988,-0.7988,-0.7988,-0.7988,-0.7988,-0.7988,-0.7988,-0.7988,-0.7988,-0.8041,-0.8137,-0.9571,-1.085,-1.1975,-1.359,-1.453,-1.501,-1.5266,-1.5324,-1.5264,-1.5022,-1.4908,-1.4908,-1.4908,-1.4908,-1.4908,-1.4908,-1.4908,-1.4959,-1.513,-1.5226,-1.5485,-1.636,-1.6743,-1.7099,-1.8021,-1.8647,-1.9161,-1.9597,-2.0029,-2.0381,-2.0566,-2.0605,-2.0654,-2.0867,-2.0906,-2.1061,-2.1502,-2.1769,-2.2327,-2.3556,-2.4082,-2.4468,-2.4743,-2.5123,-2.5453,-2.5653,-2.584,-2.5945,-2.598,-2.6119,-2.6236,-2.6236,-2.6396,-2.6499,-2.6499,-2.6499,-2.6499,-2.6499,-2.6499,-2.6461,-2.6399,-2.5787,-2.5234,-2.472,-2.4199,-2.3946,0.2957,0.0,0.0,0.0,0.0359,0.0135,0.0045,0.0,-0.0137,-0.0639,-0.1566,-0.2559,-0.3611,-0.5024,-0.6167,0.0,-0.7333,-0.7723,-0.7723,-0.7848,-0.7894,-0.7894,-0.7894,-0.7921,-0.7982,-0.7988,-0.7988,-0.7988,-0.7988,-0.7988,-0.7988,-0.7988,-0.7988,-0.7988,-0.7988,-0.7988,-0.7988,-0.7988,-0.7988,-0.7988,-0.7988,-0.7988,-0.7988,-0.7988,-0.824,-0.8786,-0.992,-1.11,-1.2322,-1.3721,-1.464,-1.5118,-1.551,-1.5651,-1.5591,-1.5182,-1.5008,-1.5008,-1.5008,-1.5008,-1.5008,-1.5008,-1.5008,-1.5008,-1.5098,-1.5187,-1.5411,-1.5931,-1.6404,-1.6863,-1.748,-1.827,-1.8989,-1.9326,-1.9863,-2.0342,-2.0566,-2.0605,-2.0605,-2.0693,-2.0731,-2.0819,-2.1089,-2.1205,-2.154,-2.2252,-2.3027,-2.3534,-2.368,-2.4154,-2.4635,-2.5052,-2.5347,-2.5535,-2.5535,-2.5641,-2.5723,-2.5828,-2.5933,-2.6037,-2.6154,-2.6258,-2.6339,-2.6339,-2.643,-2.6499,-2.6499,-2.5875,-2.5322,-2.4775,-2.4255,-2.3782,0.1749,0.0,0.0,0.0361,0.0136,0.0,0.0,0.0,-0.014,-0.07,-0.1603,-0.2622,-0.3642,-0.5127,-0.6334,-0.6849,-0.7466,-0.7875,-0.7875,-0.7921,-0.7988,-0.7988,-0.7988,-0.7988,-0.7988,-0.7988,-0.7988,-0.7988,-0.7988,-0.7988,-0.7988,-0.7988,-0.7988,-0.7988,-0.7988,-0.7988,-0.7988,-0.7988,-0.7988,-0.7988,-0.7988,-0.7988,-0.7988,-0.8088,-0.8485,-0.9236,-1.0117,-1.1243,-1.2516,-1.3769,-1.464,-1.5131,-1.5642,-1.5784,-1.5731,-1.5357,-1.5204,-1.5204,-1.5204,-1.5204,-1.5204,-1.5204,-1.5204,-1.5204,-1.5204,-1.534,-1.5477,-1.569,-1.6168,-1.6699,-1.7063,-1.7834,-1.8659,-1.9034,-1.9627,-2.0186,-2.045,-2.0566,-2.0605,-2.0605,-2.0605,-2.0644,-2.078,-2.0819,-2.0935,-2.1195,-2.1911,-2.2515,-2.2815,-2.3372,-2.3922,-2.4443,-2.4731,-2.4921,-2.4993,-2.5064,-2.5135,-2.5288,-2.5382,-2.55,-2.5653,-2.591,-2.6015,-2.6015,-2.6223,-2.6361,-2.643,-2.5983,-2.5419,-2.4775,-2.4406,-2.381,0.0,0.0,0.036,0.0092,0.0,0.0,0.0,0.0,-0.0143,-0.0667,-0.1619,-0.2634,-0.3806,-0.5229,-0.6485,-0.7105,-0.763,-0.7982,-0.7982,-0.7985,-0.7988,-0.7988,-0.7988,-0.7988,0.0,-0.7988,-0.7988,-0.7988,-0.7988,-0.7988,-0.7988,-0.7988,-0.7988,-0.7988,-0.7988,-0.7988,-0.7988,-0.7988,-0.7988,-0.7988,-0.7988,-0.7988,-0.7988,-0.8283,-0.8684,-0.9236,-1.0314,-1.1389,-1.2516,-1.3769,-1.464,-1.5131,-1.5642,-1.5784,-1.5778,-1.5764,-1.5758,-1.5758,-1.5758,-1.5758,-1.5758,-1.5758,-1.5758,-1.5758,-1.5758,-1.5758,-1.5852,-1.6096,-1.6304,-1.6497,-1.6891,-1.7474,-1.8054,-1.8593,-1.9192,-1.9764,-2.0225,-2.045,-2.0605,-2.0605,-2.0605,-2.0605,-2.0605,-2.0605,-2.0605,-2.0644,-2.0819,-2.132,-2.2289,-2.2927,-2.3482,-2.3897,-2.3934,-2.4007,-2.4225,-2.4419,-2.4515,-2.4515,-2.4838,-2.5016,-2.5052,-2.5418,-2.5606,-2.5606,-2.5828,-2.6015,-2.6213,-2.6188,-2.5697,-2.4788,-2.4775,-2.4161,0.0504,0.0,0.0094,0.0,0.0,0.0,0.0,0.0,-0.0146,-0.0681,-0.1472,-0.2478,-0.3741,-0.5137,-0.6344,-0.708,-0.7637,-0.7988,-0.7988,-0.7988,-0.7988,-0.7988,-0.7988,0.0,0.0,0.0,0.0,-0.7988,-0.7988,-0.7988,-0.7988,-0.7988,-0.7988,-0.7988,-0.7988,-0.7988,-0.7988,-0.7988,-0.7988,-0.7988,-0.7988,-0.7988,-0.7988,-0.8088,-0.8538,-0.9236,-1.0167,-1.1243,-1.2516,-1.3769,-1.464,-1.5131,-1.5642,-1.5784,-1.5784,-1.5784,-1.5784,-1.5784,-1.5784,-1.5784,-1.5784,-1.5784,-1.5784,-1.5784,-1.5784,-1.5784,-1.5785,-1.5691,-1.5848,-1.6022,-1.598,-1.6617,-1.7377,-1.7906,-1.8625,-1.932,-1.9754,-2.0147,-2.042,-2.042,-2.0489,-2.0605,-2.0605,-2.0605,-2.0605,-2.0605,-2.078,-2.1128,-2.1731,-2.2101,-2.2478,-2.2852,-2.3038,-2.3187,-2.3372,-2.3482,-2.3545,-2.3692,-2.3801,-2.3984,-2.4274,-2.4515,-2.4767,-2.5004,-2.5194,-2.5465,-2.5793,-2.5438,-2.5001,-2.4451,-2.4176,-2.3667,0.028,0.0142,0.0,0.0,0.0,0.0,0.0,0.0,-0.0149,-0.0694,-0.1501,-0.2521,-0.3781,-0.5188,-0.6389,-0.7089,-0.7637,-0.7988,-0.7988,-0.7988,-0.7988,-0.7988,-0.7988,0.0,0.0,0.0,0.0,-0.7988,-0.7988,-0.7988,-0.7988,-0.7988,-0.7988,-0.7988,-0.7988,-0.7988,-0.7988,-0.7988,-0.7988,-0.7988,-0.7988,-0.7988,-0.7988,-0.8088,-0.8535,-0.9236,-1.0068,-1.1096,-1.237,-1.3522,-1.4346,-1.4885,-1.5445,-1.5689,-1.5683,-1.5784,-1.5784,-1.5784,-1.5784,-1.5784,-1.5784,-1.5784,-1.5784,-1.5784,-1.5784,-1.5711,-1.5631,-1.5451,-1.5508,-1.5583,-1.5517,-1.6063,-1.678,-1.7335,-1.8023,-1.8674,-1.9152,-1.9627,-1.9942,-2.0029,-2.0303,-2.0489,-2.0489,-2.0566,-2.0605,-2.0605,-2.0693,-2.0896,-2.1244,-2.1474,-2.1693,-2.2025,-2.2176,-2.2365,-2.2553,-2.2553,-2.2628,-2.2777,-2.2815,-2.3001,-2.3335,-2.3618,-2.39,-2.4179,-2.4479,-2.4684,-2.4813,-2.463,-2.4237,-2.3709,-2.3604,-2.3275,0.0,0.0,0.0,0.0,0.0,0.0,0.0,0.0,-0.0152,-0.0707,-0.1666,-0.2724,0.0,0.0,-0.6537,-0.7089,-0.7637,-0.7988,-0.7988,-0.7988,-0.7988,0.0,0.0,0.0,0.0,0.0,0.0,-0.7988,0.0,-0.7988,-0.7988,-0.7988,-0.7988,-0.7988,-0.7988,-0.7988,-0.7988,-0.7988,-0.7988,-0.7988,-0.7988,-0.7988,-0.7988,-0.8283,-0.8684,-0.9232,-1.0019,-1.0949,-1.2024,-1.3033,-1.3757,-1.4346,-1.5159,-1.5493,-1.554,-1.573,-1.5784,-1.5778,-1.5764,-1.5771,-1.5784,-1.5784,-1.5771,-1.5758,-1.5758,-1.5605,-1.5371,-1.5357,-1.5325,-1.5294,-1.5432,-1.5777,-1.6299,-1.6884,-1.7335,-1.7813,-1.8456,-1.8944,-1.9301,-1.9478,-1.9912,-2.0264,-2.0264,-2.045,-2.0566,-2.0566,-2.0566,-2.0644,-2.0867,-2.1051,-2.1244,-2.1464,-2.1474,-2.154,-2.1769,-2.1769,-2.1769,-2.1769,-2.1959,-2.2138,-2.2327,-2.2703,-2.3038,-2.3224,-2.3607,-2.365,-2.3326,-2.3677,-2.3447,-2.2662,-2.2951,-2.2938,0.0,0.0,0.0,0.0,0.0,0.0,0.0,-0.0152,-0.0455,-0.101,-0.1817,-0.2773,-0.4079,0.0,0.0,-0.7089,-0.7637,0.0,-0.7988,-0.7988,0.0,0.0,0.0,-0.7988,-0.7988,-0.7988,0.0,0.0,-0.7988,-0.7988,-0.7988,-0.7988,-0.7988,-0.7988,-0.7988,-0.7988,-0.7988,-0.7988,-0.7988,-0.7988,-0.7988,-0.7988,-0.7988,-0.8088,-0.8382,-0.8928,-0.9562,-1.04,-1.1487,-1.2506,-1.3329,-1.41,-1.4879,-1.5309,-1.554,-1.573,-1.5784,-1.5751,-1.5578,-1.5651,-1.5784,-1.5784,-1.5678,-1.5504,-1.5504,-1.5304,-1.503,-1.4803,-1.4733,-1.4687,-1.4682,-1.4895,-1.5252,-1.5922,-1.6386,-1.6878,-1.7318,-1.7925,-1.8407,-1.8585,-1.9231,-1.9833,-1.999,-2.0059,-2.0098,-2.0098,-2.0098,-2.0216,-2.0605,-2.0722,-2.0848,-2.1022,-2.1061,-2.1128,-2.1359,-2.1359,-2.1359,-2.1359,-2.1397,-2.1512,-2.1731,-2.1845,-2.2063,-2.2402,-2.231,-2.2364,-2.2581,-2.2092,-2.1878,-2.1958,-2.19,-2.1957,0.0,0.0,-0.0051,-0.0152,-0.0152,-0.0202,-0.0303,-0.0556,-0.0909,-0.1464,-0.2269,0.0,-0.4529,0.0,0.0,0.0,0.0,0.0,-0.7988,-0.7988,-0.7988,0.0,-0.7988,0.0,-0.7988,-0.7988,-0.7988,0.0,-0.7988,-0.7988,-0.7988,-0.7988,-0.7988,-0.7988,-0.7988,-0.7988,-0.7988,-0.7988,-0.7988,-0.7988,-0.7988,-0.7988,-0.7988,-0.7988,-0.8233,-0.8627,0.0,-0.9809,-1.0752,-1.1683,-1.2608,-1.3528,-1.44,-1.4981,-1.5356,-1.5689,-1.5752,-1.5618,-1.5451,-1.5418,-1.5451,-1.5451,-1.5337,-1.5204,-1.5204,-1.5003,-1.4736,-1.4569,-1.4429,-1.4331,-1.4404,-1.4482,-1.4734,-1.5284,-1.5658,-1.5948,-1.6345,-1.687,-1.748,-1.8046,-1.8625,-1.9112,-1.9429,-1.9508,-1.9508,-1.9508,-1.942,-1.9499,-1.9863,-2.0216,-2.0498,-2.0625,-2.0702,-2.0809,-2.0925,-2.0925,-2.0925,-2.0925,-2.0925,-2.1041,-2.1244,-2.1042,-2.1083,-2.1442,-2.1199,-2.1071,-2.1083,-2.0782,-2.0685,-2.0787,-2.0823,-2.1071,0.0,-0.0051,-0.0101,-0.0354,-0.0455,-0.0556,-0.0858,-0.1162,-0.1515,-0.2118,0.0,-0.4079,-0.5131,-0.6137,-0.6995,-0.7497,0.0,-0.7988,-0.7988,-0.7988,-0.7988,-0.7988,-0.7988,-0.7988,-0.7988,-0.7988,-0.7988,-0.7988,-0.7988,-0.7988,-0.7988,-0.7988,-0.7988,-0.7988,-0.7988,-0.7988,-0.7988,-0.7988,-0.7988,-0.7988,-0.7988,-0.7988,-0.7988,-0.7988,-0.8137,-0.8432,-0.8627,0.0,-1.0019,-1.0806,-1.1736,-1.2807,-1.3817,-1.4544,-1.5083,-1.5594,-1.5598,-1.5391,-1.5351,-1.515,-1.4955,-1.4995,-1.4981,-1.4948,-1.4948,-1.4696,-1.4462,-1.4462,-1.4282,-1.4124,-1.4321,-1.4356,-1.4482,-1.4915,-1.5006,-1.5124,-1.5484,-1.594,-1.6591,-1.7594,-1.7965,-1.8256,-1.8714,-1.8794,-1.8794,-1.8794,-1.8625,-1.8585,-1.8754,-1.9587,-2.0186,-2.0186,-2.042,-2.0566,-2.0566,-2.0566,-2.0605,-2.0605,-2.0546,-2.0604,-2.0778,-2.0333,-2.017,-2.0434,-2.0179,-1.9824,-1.9422,-1.9686,-1.9685,-1.9506,-1.9813,-2.0237,0.0,-0.0152,-0.0354,-0.0404,-0.0758,-0.1111,-0.1412,-0.1816,0.0,0.0,0.0,-0.4834,-0.5689,-0.6539,0.0,-0.7547,0.0,0.0,0.0,0.0,-0.7988,0.0,0.0,0.0,0.0,0.0,0.0,0.0,0.0,-0.7988,-0.7988,-0.7988,-0.7988,-0.7988,-0.7988,-0.7988,-0.7988,-0.7988,-0.7988,-0.7988,-0.7988,-0.7988,-0.7988,-0.7988,-0.8137,-0.8382,-0.8432,0.0,-0.9727,-1.0314,-1.1145,-1.2219,-1.3227,-1.41,-1.4838,-1.5356,-1.5504,-1.5357,-1.5169,-1.4843,-1.4636,-1.4928,-1.4796,-1.4596,-1.4596,-1.4396,-1.4162,-1.4162,-1.4128,-1.413,-1.4124,-1.4166,-1.4201,-1.4447,-1.4524,-1.4608,-1.4817,-1.5228,-1.5809,-1.655,-1.6829,-1.7147,-1.7602,-1.7683,-1.7683,-1.7683,-1.7642,-1.7642,-1.7683,-1.8736,-1.9548,-1.9715,-2.0108,-2.0342,-2.0342,-2.0489,-2.0605,-2.0605,-2.0225,-2.0029,-2.0067,-1.9693,-1.9468,-1.9514,-1.9251,-1.9088,-1.9019,-1.8831,-1.8822,-1.8942,-1.9164,-1.9518,-0.0151,-0.0404,-0.0707,-0.111,-0.1615,-0.212,-0.2571,0.0,0.0,0.0,-0.4983,-0.5689,-0.6489,0.0,0.0,0.0,0.0,0.0,0.0,0.0,0.0,0.0,0.0,0.0,0.0,0.0,0.0,0.0,0.0,-0.7988,-0.7988,-0.7988,-0.7988,-0.7988,-0.7988,-0.7988,-0.7988,-0.7988,-0.7988,-0.7988,-0.7988,-0.7988,-0.7988,-0.7988,-0.8088,-0.8187,-0.8187,0.0,-0.9225,-0.9624,-1.056,-1.1878,-1.2737,-1.3661,-1.4567,-1.504,-1.5133,-1.4942,-1.4792,-1.4543,-1.4322,-1.4462,-1.4409,-1.4295,-1.4295,-1.4202,-1.4088,-1.4088,-1.4088,-1.4088,-1.4088,-1.4088,-1.4124,-1.4201,-1.4243,-1.4286,-1.4482,-1.4734,-1.5068,-1.5616,-1.5891,-1.6131,-1.646,-1.6509,-1.6509,-1.6509,-1.6419,-1.6419,-1.6501,-1.7277,-1.8095,-1.8825,-1.9429,-1.9824,-1.9912,-2.0014,-2.0081,-2.0081,-1.9787,-1.959,-1.959,-1.918,-1.8955,-1.8955,-1.8595,-1.8439,-1.8439,-1.831,-1.8347,-1.8539,-1.864,-1.8898,-0.0505,-0.0808,-0.1212,-0.1967,-0.2623,-0.3228,-0.3828,-0.4331,0.0,0.0,-0.5937,-0.6489,-0.7138,0.0,0.0,0.0,0.0,0.0,0.0,0.0,0.0,0.0,0.0,0.0,0.0,0.0,0.0,0.0,0.0,0.0,-0.7988,-0.7988,-0.7988,-0.7988,-0.7988,-0.7988,-0.7988,-0.7988,-0.7988,-0.7988,-0.7988,-0.7988,-0.7988,-0.7988,-0.7988,-0.7988,-0.7988,0.0,0.0,-0.9084,-1.0019,-1.1336,-1.2098,-1.2999,-1.3939,-1.4425,-1.4559,-1.4423,-1.4421,-1.4286,-1.4088,-1.4088,-1.4088,-1.4088,-1.4088,-1.4088,-1.4088,-1.4088,-1.4088,-1.4088,-1.4088,-1.4088,-1.4088,-1.4088,-1.4088,-1.4124,-1.4279,-1.4356,-1.4447,-1.4873,-1.5075,-1.5269,-1.5443,-1.5484,-1.5484,-1.5484,-1.536,-1.5289,-1.5389,-1.5752,-1.6368,-1.7376,-1.832,-1.9016,-1.9191,-1.9277,-1.9335,-1.9344,-1.9211,-1.9124,-1.9124,-1.8695,-1.8461,-1.8461,-1.8149,-1.8008,-1.8008,-1.8008,-1.8076,-1.8236,-1.8236,-1.8405,-0.101,-0.1515,-0.2017,-0.2573,-0.3328,-0.4083,-0.488,0.0,0.0,-0.6489,-0.6889,-0.7188,-0.7494,-0.7793,-0.7992,0.0,0.0,0.0,0.0,0.0,0.0,0.0,0.0,0.0,0.0,0.0,0.0,0.0,0.0,0.0,-0.7988,-0.7988,-0.7988,-0.7988,-0.7988,-0.7988,-0.7988,-0.7988,-0.7988,-0.7988,-0.7988,-0.7988,-0.7988,-0.7988,-0.7988,-0.7988,-0.7988,0.0,0.0,-0.8985,-0.9579,-1.0248,-1.1072,-1.1899,-1.2628,-1.3181,-1.3599,-1.3931,-1.413,-1.4157,-1.4088,-1.4088,-1.4088,-1.4088,-1.4088,-1.4088,-1.4088,-1.4088,-1.4088,-1.4088,-1.4088,-1.4088,-1.4088,-1.4088,-1.4088,-1.413,-1.4124,-1.4124,-1.4208,-1.4398,-1.4482,-1.4566,-1.4776,-1.4776,-1.4776,-1.4776,-1.4776,-1.4677,-1.4444,-1.4612,-1.478,-1.4827,-1.6526,-1.7744,-1.7939,-1.8196,-1.8388,-1.8592,-1.8533,-1.8482,-1.8482,-1.8197,-1.8066,-1.8066,-1.8027,-1.8008,-1.8008,-1.8008,-1.8008,-1.8042,-1.8042,-1.8144,-0.1514,-0.2169,-0.2873,-0.3581,-0.4485,-0.5338,-0.5834,0.0,-0.6686,-0.7194,-0.7344,-0.7543,-0.7793,-0.7942,-0.7988,-0.7988,0.0,0.0,0.0,0.0,0.0,0.0,0.0,0.0,0.0,0.0,0.0,0.0,0.0,0.0,-0.7988,-0.7988,-0.7988,-0.7988,-0.7988,-0.7988,-0.7988,-0.7988,-0.7988,-0.7988,-0.7988,-0.7988,-0.7988,-0.7988,-0.7988,-0.7988,-0.7988,0.0,0.0,-0.8496,-0.897,-0.9577,-1.02,-1.0917,-1.1646,-1.2321,-1.2839,-1.3211,-1.3441,-1.3615,-1.3695,-1.3695,-1.361,-1.3525,-1.3779,-1.387,-1.387,-1.387,-1.387,-1.3913,-1.4046,-1.4088,-1.4088,-1.4088,-1.4088,-1.4088,-1.4088,-1.4088,-1.4124,-1.4201,-1.4201,-1.4243,-1.4334,-1.4328,-1.4266,-1.4083,-1.4056,-1.3954,-1.3654,-1.3807,-1.391,-1.3902,-1.5327,-1.6384,-1.6561,-1.6923,-1.7194,-1.7414,-1.7483,-1.7532,-1.7672,-1.7777,-1.7818,-1.7818,-1.794,-1.8008,-1.8008,-1.8008,-1.8008,-1.8008,-1.8008,-1.8042,-0.2117,-0.2873,-0.3677,-0.4638,-0.5489,-0.6239,0.0,0.0,-0.7391,-0.7643,-0.7693,-0.7793,-0.7942,-0.7988,-0.7988,-0.7988,0.0,-0.7988,0.0,0.0,0.0,0.0,0.0,0.0,0.0,0.0,0.0,0.0,0.0,0.0,-0.7988,-0.7988,-0.7988,-0.7988,-0.7988,-0.7988,-0.7988,-0.7988,-0.7988,-0.7988,-0.7988,-0.7988,-0.7988,-0.7941,-0.7924,-0.7921,-0.7877,0.0,0.0,-0.8092,-0.8401,-0.8893,-0.9301,-0.9879,-1.0543,-1.1216,-1.1833,-1.2386,-1.2685,-1.2966,-1.3179,-1.3137,-1.3009,-1.2924,-1.3045,-1.3264,-1.3392,-1.3392,-1.3476,-1.3568,-1.3828,-1.387,-1.387,-1.387,-1.387,-1.387,-1.387,-1.387,-1.3913,-1.3955,-1.3997,-1.3971,-1.3968,-1.3955,-1.3854,-1.352,-1.3473,-1.3367,-1.3113,-1.3216,-1.3253,-1.3165,-1.4035,-1.4797,-1.5233,-1.5568,-1.5875,-1.6084,-1.6378,-1.6656,-1.6846,-1.7235,-1.751,-1.7535,-1.7784,-1.7896,-1.7896,-1.7974,-1.8008,-1.8008,-1.8008,-1.8008,-0.2822,-0.3577,-0.4334,-0.5641,-0.6189,-0.6587,0.0,0.0,-0.7696,-0.7939,-0.7988,-0.7988,-0.7988,-0.7988,-0.7988,-0.7988,-0.7988,0.0,0.0,0.0,0.0,0.0,0.0,0.0,0.0,0.0,0.0,0.0,0.0,0.0,-0.7988,-0.7988,-0.7988,-0.7988,-0.7988,-0.7988,-0.7988,-0.7988,-0.7988,-0.7988,-0.7988,-0.7988,-0.7985,-0.7882,-0.7814,0.0,0.0,0.0,0.0,-0.7879,-0.802,-0.8049,-0.8394,-0.8783,-0.9296,-0.9763,-1.0511,-1.137,-1.1843,-1.2314,-1.2662,-1.2491,-1.2406,-1.232,-1.1843,-1.2186,-1.2705,-1.2705,-1.2881,-1.3137,-1.3355,-1.3398,-1.3398,-1.3398,-1.3398,-1.3398,-1.3398,-1.3398,-1.3483,-1.3652,-1.3695,-1.3688,-1.3612,-1.3606,-1.3507,-1.326,-1.3213,-1.3106,-1.2831,-1.2829,-1.2677,-1.2345,-1.2496,-1.2996,-1.396,-1.419,-1.441,-1.4609,-1.5365,-1.5868,-1.6009,-1.6586,-1.7003,-1.7201,-1.7535,-1.7706,-1.7706,-1.7896,-1.8008,-1.8008,-1.8008,-1.8008,-0.3124,-0.4131,-0.5037,-0.6039,-0.6739,-0.7294,-0.7543,-0.7743,-0.7892,-0.7988,-0.7988,-0.7988,-0.7988,-0.7988,-0.7988,-0.7988,-0.7988,0.0,0.0,0.0,0.0,0.0,0.0,0.0,0.0,0.0,0.0,0.0,0.0,0.0,-0.7988,-0.7988,-0.7988,-0.7988,-0.7988,-0.7988,-0.7988,-0.7988,-0.7988,-0.7988,-0.7884,-0.7882,-0.7879,-0.7733,-0.7665,0.0,0.0,0.0,0.0,-0.7533,-0.7517,-0.7413,-0.7685,-0.8108,-0.8585,-0.906,-0.9685,-1.0419,-1.0895,-1.1154,-1.1284,-1.1413,-1.1246,-1.0939,-1.0809,-1.1327,-1.202,-1.202,-1.2192,-1.2406,-1.2662,-1.2711,-1.2747,-1.2875,-1.2918,-1.2918,-1.2918,-1.2918,-1.2911,-1.2816,-1.2904,-1.294,-1.2749,-1.2825,-1.2889,-1.2726,-1.2719,-1.2645,-1.2485,-1.2445,-1.2405,-1.2311,-1.2378,-1.2566,-1.2996,-1.336,-1.3622,-1.3848,-1.4446,-1.4867,-1.5037,-1.5754,-1.6219,-1.6394,-1.689,-1.7279,-1.7564,-1.7716,-1.7862,-1.8008,-1.8008,-1.8008,0.0,-0.4485,-0.5441,-0.6437,-0.7141,0.0,0.0,-0.7892,-0.7988,-0.7988,-0.7988,-0.7988,-0.7988,-0.7988,-0.7988,-0.7988,-0.7988,0.0,0.0,0.0,0.0,0.0,0.0,0.0,0.0,0.0,0.0,0.0,0.0,0.0,-0.7988,-0.7988,-0.7988,-0.7988,-0.7988,-0.7988,-0.7988,-0.7988,-0.7961,-0.7901,-0.7858,-0.7784,-0.7726,-0.758,-0.7512,0.0,0.0,0.0,0.0,-0.7285,-0.7227,-0.7095,-0.7279,-0.7588,-0.7984,-0.8336,-0.8859,-0.9419,-0.9806,-1.0024,-1.0111,-1.0197,-0.9941,-0.9637,-0.9637,-1.0289,-1.1068,-1.1154,-1.1241,-1.1413,-1.1671,-1.1714,-1.18,-1.2015,-1.2057,-1.2077,-1.207,-1.2047,-1.202,-1.1928,-1.2004,-1.2042,-1.1936,-1.2052,-1.2115,-1.2107,-1.2062,-1.2111,-1.2177,-1.2194,-1.2231,-1.2298,-1.2305,-1.2342,-1.2489,-1.279,-1.3046,-1.3163,-1.363,-1.3985,-1.4186,-1.4867,-1.5338,-1.5578,-1.6228,-1.676,-1.7141,-1.7501,-1.775,-1.7896,-1.7974,-1.8008,0.0,-0.4585,0.0,0.0,0.0,0.0,0.0,-0.7988,0.0,-0.7988,-0.7988,-0.7988,-0.7988,-0.7988,-0.7988,-0.7988,-0.7988,0.0,0.0,0.0,0.0,0.0,0.0,0.0,0.0,0.0,0.0,0.0,0.0,0.0,-0.7988,-0.7988,-0.7988,-0.7988,-0.7978,-0.7975,-0.7975,-0.7975,-0.7897,-0.7794,-0.7784,-0.7709,-0.758,-0.7424,-0.7402,0.0,0.0,0.0,0.0,-0.7095,-0.7095,-0.7095,-0.7095,-0.7279,-0.7507,-0.772,-0.8069,-0.85,-0.8763,-0.8978,-0.9061,-0.889,-0.8719,-0.8548,-0.8548,-0.9161,-0.9951,-1.012,-1.0164,-1.0246,-1.0419,-1.0463,-1.0549,-1.0809,-1.0885,-1.0898,-1.0858,-1.0888,-1.0885,-1.0967,-1.0963,-1.0999,-1.1101,-1.1177,-1.1209,-1.1297,-1.1335,-1.1484,-1.1892,-1.1966,-1.204,-1.2261,-1.2268,-1.2268,-1.2305,-1.2489,-1.2562,-1.2562,-1.2936,-1.3236,-1.3419,-1.3949,-1.441,-1.4796,-1.5578,-1.6149,-1.6568,-1.7295,-1.7638,-1.7672,-1.7896,-1.7974,-0.363,0.0,-0.5787,-0.6939,-0.754,-0.7942,0.0,-0.7988,-0.7988,-0.7988,0.0,0.0,-0.7988,-0.7988,-0.7988,-0.7988,-0.7988,0.0,0.0,0.0,0.0,0.0,0.0,0.0,0.0,0.0,0.0,0.0,0.0,-0.7988,-0.7988,-0.7988,-0.7988,-0.7988,-0.7877,-0.7865,-0.7865,-0.7865,-0.779,-0.7648,-0.7533,-0.7458,-0.7421,-0.7265,-0.7149,0.0,0.0,0.0,-0.7095,-0.7095,-0.7095,-0.7095,-0.7095,-0.7279,-0.7507,-0.7547,-0.7764,-0.8069,-0.8288,-0.8288,-0.8201,-0.8157,-0.8116,-0.8072,-0.8072,-0.8464,-0.8942,-0.8986,-0.8986,-0.9026,-0.924,-0.9283,-0.9371,-0.9584,-0.9642,-0.9691,-0.9681,-0.9756,-0.975,-0.9617,-0.9691,-0.9734,-0.9576,-0.9807,-1.0062,-1.0223,-1.0519,-1.085,-1.126,-1.1446,-1.1669,-1.204,-1.2077,-1.212,-1.2298,-1.2342,-1.2378,-1.2378,-1.2599,-1.2753,-1.2826,-1.3229,-1.3659,-1.4049,-1.5098,-1.5771,-1.6149,-1.6786,-1.7176,-1.7304,-1.7647,-1.7784,-0.377,-0.4985,-0.5989,-0.6986,-0.7587,-0.7988,-0.7988,0.0,0.0,0.0,0.0,0.0,0.0,0.0,0.0,0.0,0.0,0.0,0.0,0.0,0.0,0.0,0.0,0.0,0.0,0.0,0.0,0.0,0.0,-0.7988,-0.7988,-0.7988,-0.7958,-0.7887,-0.7855,-0.7811,-0.7811,-0.7746,-0.7641,-0.7495,-0.7456,-0.7333,-0.7261,-0.7136,-0.7095,0.0,0.0,0.0,-0.7095,-0.7095,-0.7095,-0.7095,-0.7095,-0.7187,-0.7323,-0.7323,-0.7411,-0.754,-0.7669,-0.7628,-0.7544,-0.7544,-0.7544,-0.7544,-0.7544,-0.7716,-0.7977,-0.8201,-0.8288,-0.8288,-0.8416,-0.846,-0.848,-0.8607,-0.8687,-0.8695,-0.8611,-0.8656,-0.8609,-0.8413,-0.845,-0.8531,-0.845,-0.8703,-0.9013,-0.9311,-0.9609,-0.9986,-1.0475,-1.0738,-1.1037,-1.1521,-1.1669,-1.1855,-1.215,-1.2157,-1.2187,-1.2298,-1.2415,-1.2452,-1.2452,-1.2753,-1.3156,-1.3666,-1.4525,-1.5133,-1.5507,-1.6149,-1.6577,-1.6786,-1.727,-1.7476,-0.4057,-0.5233,-0.6239,-0.6989,-0.7587,-0.7988,-0.7988,0.0,0.0,0.0,0.0,0.0,0.0,0.0,0.0,0.0,0.0,0.0,0.0,0.0,0.0,0.0,0.0,0.0,0.0,0.0,0.0,0.0,0.0,-0.7988,-0.7988,-0.7968,-0.7894,-0.7814,-0.7767,-0.7743,-0.7743,-0.7624,-0.7489,-0.7336,-0.7336,-0.7265,-0.7095,-0.7095,-0.7095,-0.7095,0.0,0.0,-0.7095,-0.7095,-0.7095,-0.7095,-0.7095,-0.7095,-0.7095,-0.7095,-0.7095,-0.7095,-0.7095,-0.7095,-0.7095,-0.7095,-0.7095,-0.7095,-0.7095,-0.7095,-0.7187,-0.7632,-0.7764,-0.7764,-0.7764,-0.7746,-0.7781,-0.7804,-0.7816,-0.7784,-0.7664,-0.7656,-0.7631,-0.7435,-0.7407,-0.748,-0.7629,-0.7829,-0.8063,-0.8437,-0.8661,-0.9041,-0.9576,-0.9841,-1.0212,-1.085,-1.1111,-1.1409,-1.1818,-1.1892,-1.2003,-1.2224,-1.2268,-1.2305,-1.2305,-1.2489,-1.2826,-1.3346,-1.3876,-1.4338,-1.4724,-1.5401,-1.5868,-1.6167,-1.6716,-1.6994,-0.436,-0.5536,-0.6487,-0.7039,-0.7587,-0.7988,-0.7988,0.0,0.0,0.0,0.0,0.0,0.0,0.0,0.0,0.0,0.0,0.0,0.0,0.0,0.0,0.0,0.0,0.0,0.0,0.0,0.0,0.0,0.0,-0.7988,-0.7988,-0.7916,-0.7834,-0.7811,-0.757,-0.7438,-0.7438,-0.7463,-0.7329,-0.7132,-0.7132,-0.7119,-0.7095,-0.7095,-0.7095,-0.7095,0.0,-0.7095,-0.7095,-0.7095,-0.7095,-0.7095,-0.7095,-0.7095,-0.7095,-0.7095,-0.7095,-0.7095,-0.7095,-0.7095,-0.7095,-0.7095,-0.7095,-0.7095,-0.7095,-0.7095,-0.7095,-0.7187,-0.7228,-0.7228,-0.7228,-0.7138,-0.7042,-0.7061,-0.7024,-0.698,-0.6973,-0.7006,-0.701,-0.6984,-0.6976,-0.7019,-0.7015,-0.7215,-0.7373,-0.7411,-0.7748,-0.8127,-0.8594,-0.8818,-0.9231,-0.9992,-1.0255,-1.0625,-1.1186,-1.1409,-1.1632,-1.2003,-1.2224,-1.2305,-1.2305,-1.2489,-1.2636,-1.2746,-1.3156,-1.3586,-1.397,-1.4374,-1.484,-1.5382,-1.5798,-1.6158,-0.4591,-0.5792,-0.6739,-0.7291,-0.769,-0.7988,-0.7988,0.0,0.0,0.0,0.0,0.0,0.0,0.0,0.0,0.0,0.0,0.0,0.0,0.0,0.0,0.0,0.0,0.0,0.0,0.0,0.0,0.0,0.0,0.0,-0.7919,-0.7848,-0.7692,-0.7392,-0.726,-0.7018,-0.6712,-0.6712,-0.6767,-0.6922,-0.6786,-0.6786,-0.6922,-0.6922,-0.701,-0.7095,0.0,-0.7095,-0.7095,-0.7095,-0.7095,-0.7095,-0.7095,-0.7095,-0.7095,-0.7095,-0.7095,-0.7095,-0.7095,-0.7095,-0.7095,-0.7095,-0.7095,-0.7095,-0.7095,-0.7095,-0.7095,-0.7095,-0.7095,-0.7078,-0.7001,-0.6933,-0.6846,-0.6722,-0.6658,-0.6614,-0.6537,-0.6539,-0.6563,-0.6563,-0.6563,-0.6563,-0.6563,-0.6756,-0.6872,-0.6872,-0.7134,-0.7403,-0.7718,-0.794,-0.8322,-0.9008,-0.9273,-0.9685,-1.04,-1.0625,-1.1111,-1.1966,-1.2194,-1.2305,-1.2305,-1.2378,-1.2452,-1.2452,-1.2716,-1.3003,-1.3295,-1.3695,-1.4129,-1.4597,-1.4974,-1.5294,-0.4821,-0.6005,-0.6945,-0.7547,0.0,-0.7988,-0.7988,0.0,0.0,0.0,0.0,0.0,0.0,0.0,0.0,0.0,0.0,0.0,0.0,0.0,0.0,0.0,0.0,0.0,0.0,0.0,0.0,0.0,0.0,0.0,-0.7818,-0.7698,-0.7419,-0.6926,-0.6794,-0.6454,-0.5949,-0.5813,-0.6035,-0.6526,-0.6343,-0.6343,-0.6526,-0.6615,-0.6704,-0.6877,-0.6918,-0.6918,-0.6918,-0.6918,-0.6918,-0.6918,-0.6918,-0.6918,-0.6918,-0.6918,-0.6918,-0.6918,-0.6918,-0.6918,-0.6918,-0.6918,-0.6918,-0.6918,-0.6918,-0.6918,-0.6918,-0.6918,-0.6939,-0.689,-0.6913,-0.6859,-0.6807,-0.6536,-0.6487,-0.6433,-0.6323,-0.63,-0.63,-0.63,-0.63,-0.63,-0.63,-0.6412,-0.6525,-0.6525,-0.6676,-0.683,-0.7026,-0.718,-0.7484,-0.8059,-0.8284,-0.8775,-0.9614,-0.9992,-1.0625,-1.1632,-1.204,-1.2268,-1.2305,-1.2305,-1.2305,-1.2305,-1.2452,-1.2636,-1.282,-1.3119,-1.3484,-1.3912,-1.415,-1.4394,-0.5109,-0.6101,-0.6995,-0.7789,-0.7988,0.0,-0.7988,-0.7988,0.0,0.0,0.0,0.0,0.0,0.0,0.0,0.0,0.0,0.0,0.0,0.0,0.0,0.0,0.0,0.0,0.0,0.0,0.0,0.0,0.0,0.0,-0.7811,-0.7319,-0.6939,-0.6731,-0.611,-0.5688,-0.546,-0.5008,-0.5139,-0.5764,-0.5764,-0.5764,-0.5808,-0.6035,-0.6171,-0.6171,-0.6387,-0.6428,-0.6428,-0.6428,-0.6428,-0.6428,-0.6428,-0.6428,-0.6428,-0.6428,-0.6428,-0.6428,-0.6428,-0.6428,-0.6428,-0.6428,-0.6428,-0.6428,-0.6428,-0.6428,-0.6428,-0.6428,-0.639,-0.6427,-0.6804,-0.6824,-0.6675,-0.6552,-0.6412,-0.6313,-0.6303,-0.63,-0.63,-0.63,-0.63,-0.63,-0.63,-0.63,-0.6338,-0.6338,-0.6338,-0.6412,-0.6602,-0.6641,-0.6834,-0.7261,-0.7446,-0.7978,-0.8965,-0.976,-1.04,-1.085,-1.1595,-1.2114,-1.2298,-1.2305,-1.2305,-1.2305,-1.2305,-1.2415,-1.2636,-1.2636,-1.2863,-1.3266,-1.3302,-1.3513,-0.4925,-0.5994,-0.6891,-0.7571,-0.7892,0.0,0.0,-0.7988,-0.7988,0.0,0.0,0.0,0.0,0.0,0.0,0.0,0.0,0.0,0.0,0.0,0.0,0.0,0.0,0.0,0.0,0.0,0.0,0.0,0.0,0.0,-0.7441,-0.7018,-0.6512,-0.5933,-0.5342,-0.483,-0.4302,-0.3941,-0.3849,-0.3981,-0.4563,-0.4919,-0.5095,-0.5186,-0.5411,-0.5683,-0.5727,-0.5855,-0.5985,-0.5985,-0.5985,-0.5985,-0.5985,-0.5985,-0.5985,-0.5985,-0.5985,-0.5985,-0.5985,-0.5985,-0.5985,-0.5985,-0.5985,-0.5985,-0.5985,-0.5985,-0.5985,-0.5985,-0.5954,-0.6017,-0.6414,-0.6471,-0.6404,-0.6376,-0.6337,-0.63,-0.63,-0.63,-0.63,-0.63,-0.63,-0.63,-0.63,-0.63,-0.63,-0.63,-0.63,-0.6338,-0.6412,-0.6412,-0.6528,-0.6795,-0.7103,-0.7561,-0.8203,-0.8775,-0.9349,-0.9992,-1.1037,-1.1781,-1.2114,-1.2114,-1.215,-1.2305,-1.2305,-1.2342,-1.2415,-1.2415,-1.2562,-1.282,-1.282,-1.2966,-0.4742,-0.5854,-0.6821,0.0,0.0,0.0,-0.7988,-0.7988,0.0,0.0,0.0,0.0,0.0,0.0,0.0,0.0,0.0,0.0,0.0,0.0,0.0,0.0,0.0,0.0,0.0,0.0,0.0,0.0,0.0,0.0,0.0,-0.6645,-0.6034,-0.5193,-0.4563,-0.3896,-0.3184,-0.2825,-0.2555,-0.2419,-0.3092,-0.3626,-0.4115,-0.4204,-0.4385,-0.4701,-0.4879,-0.501,-0.5139,-0.523,-0.5275,-0.5275,-0.5275,-0.5275,-0.5275,-0.5275,-0.5275,-0.5275,-0.5275,-0.5275,-0.5275,-0.5275,-0.5275,-0.5275,-0.5275,-0.5275,-0.5275,-0.5275,-0.525,-0.5267,-0.5588,-0.5844,-0.6015,-0.5989,-0.6025,-0.6067,-0.6067,-0.6067,-0.6067,-0.6067,-0.6141,-0.618,-0.618,-0.6261,-0.63,-0.63,-0.63,-0.63,-0.63,-0.63,-0.6335,-0.649,-0.6795,-0.7142,-0.7476,-0.7902,-0.8441,-0.9165,-1.0137,-1.0956,-1.1706,-1.1781,-1.1929,-1.2187,-1.2224,-1.2224,-1.2305,-1.2305,-1.2378,-1.2526,-1.2526,-1.2562,-0.4614,-0.5792,0.0,0.0,0.0,0.0,0.0,0.0,0.0,0.0,0.0,0.0,0.0,0.0,0.0,0.0,0.0,0.0,0.0,0.0,0.0,0.0,0.0,0.0,0.0,0.0,0.0,0.0,0.0,0.0,0.0,-0.6149,-0.5364,-0.4694,-0.3715,-0.2869,-0.2199,-0.166,-0.1391,-0.1391,-0.1391,-0.1928,-0.2911,-0.3092,-0.3183,-0.3227,-0.3671,-0.3892,-0.3894,-0.4164,-0.43,-0.43,-0.43,-0.43,-0.43,-0.43,-0.43,-0.43,-0.43,-0.43,-0.43,-0.43,-0.43,-0.43,-0.43,-0.43,-0.43,-0.43,-0.4188,-0.4099,-0.4263,-0.4986,-0.5588,-0.5339,-0.544,-0.5598,-0.5598,-0.5598,-0.5598,-0.5598,-0.575,-0.5899,-0.5899,-0.6099,-0.63,-0.63,-0.63,-0.63,-0.63,-0.63,-0.63,-0.63,-0.649,-0.6676,-0.6865,-0.7249,-0.7748,-0.8365,-0.8775,-0.9604,-1.1037,-1.1298,-1.1595,-1.2003,-1.2003,-1.2077,-1.2298,-1.2305,-1.2305,-1.2305,-1.2305,-1.2305,-0.4324,0.0,0.0,0.0,0.0,0.0,0.0,0.0,0.0,0.0,0.0,0.0,0.0,0.0,0.0,0.0,0.0,0.0,0.0,0.0,0.0,0.0,0.0,0.0,0.0,0.0,0.0,0.0,0.0,0.0,0.0,-0.538,-0.4561,-0.3673,-0.2734,-0.2018,-0.166,-0.1166,-0.0897,-0.0897,-0.0897,-0.1256,-0.1838,-0.1928,-0.2017,-0.2242,-0.2376,-0.2598,-0.2955,-0.3224,-0.3315,-0.3315,-0.3315,-0.3315,-0.3315,-0.3315,-0.3315,-0.3315,-0.3315,-0.3315,-0.3315,-0.3315,-0.3315,-0.3315,-0.3315,-0.3315,-0.3315,-0.3315,-0.3299,-0.3255,-0.3183,-0.3484,-0.3938,-0.4511,-0.4696,-0.4774,-0.4774,-0.4774,-0.4815,-0.4935,-0.5126,-0.5315,-0.5434,-0.5786,-0.6022,-0.6022,-0.618,-0.63,-0.63,-0.63,-0.63,-0.63,-0.6335,-0.649,-0.6676,-0.6791,-0.7061,-0.7526,-0.794,-0.8846,-1.04,-1.0663,-1.1037,-1.1558,-1.1595,-1.1669,-1.1892,-1.2003,-1.2077,-1.2077,-1.2224,-1.2305,-0.4138,0.0,0.0,0.0,0.0,0.0,0.0,0.0,0.0,0.0,0.0,0.0,0.0,0.0,0.0,0.0,0.0,0.0,0.0,0.0,0.0,0.0,0.0,0.0,0.0,0.0,0.0,0.0,0.0,0.0,0.0,-0.4683,-0.3892,-0.2777,-0.2017,-0.1436,-0.0987,-0.0628,-0.0404,-0.0404,-0.0404,-0.0584,-0.0853,-0.1032,-0.1211,-0.139,-0.148,-0.1749,-0.2061,-0.224,-0.2286,-0.2286,-0.2286,-0.2286,-0.2286,-0.2286,-0.2286,-0.2286,-0.2286,-0.2286,-0.2286,-0.2286,-0.2286,-0.2286,-0.2286,-0.2286,-0.2286,-0.2286,-0.2286,-0.2269,-0.2193,-0.2241,-0.2574,-0.3525,-0.3837,-0.3876,-0.3876,-0.3876,-0.3915,-0.4034,-0.4307,-0.4577,-0.4771,-0.5237,-0.5589,-0.5667,-0.5944,-0.618,-0.63,-0.63,-0.63,-0.63,-0.63,-0.6335,-0.649,-0.649,-0.6602,-0.6949,-0.7249,-0.7936,-0.9079,-0.969,-1.0255,-1.0775,-1.0962,-1.1149,-1.1335,-1.1558,-1.1669,-1.1744,-1.1892,-1.2003,-0.3987,0.0,0.0,0.0,0.0,0.0,0.0,0.0,0.0,0.0,0.0,0.0,0.0,0.0,0.0,0.0,0.0,0.0,0.0,0.0,0.0,0.0,0.0,0.0,0.0,0.0,0.0,0.0,0.0,0.0,0.0,-0.4026,-0.3223,-0.2059,-0.1569,-0.1031,-0.0403,-0.0135,0.0,0.0,0.0,0.0,0.0,-0.0449,-0.0628,-0.0673,-0.0942,-0.1121,-0.13,-0.1345,-0.1345,-0.1345,-0.1345,-0.1345,-0.1345,-0.1345,-0.1345,-0.1345,-0.1345,-0.1345,-0.1345,-0.1345,-0.1345,-0.1345,-0.1345,-0.1345,-0.1345,-0.1345,-0.1345,-0.1339,-0.1267,-0.1239,-0.1455,-0.2387,-0.2788,-0.2937,-0.2937,-0.2937,-0.2937,-0.2976,-0.3329,-0.3722,-0.3951,-0.4496,-0.5004,-0.5282,-0.567,-0.598,-0.6261,-0.63,-0.63,-0.63,-0.63,-0.63,-0.63,-0.63,-0.6374,-0.6563,-0.6753,-0.7019,-0.7407,-0.8556,-0.9392,-0.9765,-1.018,-1.0475,-1.07,-1.0887,-1.1074,-1.1298,-1.1335,-1.1446,0.0,-0.4448,0.0,0.0,0.0,0.0,0.0,0.0,0.0,0.0,0.0,0.0,0.0,0.0,0.0,0.0,0.0,0.0,0.0,0.0,0.0,0.0,0.0,0.0,0.0,0.0,0.0,0.0,0.0,0.0,-0.3583,-0.291,-0.2239,-0.1569,-0.0941,-0.0538,-0.0403,-0.0135,0.0,0.0,0.0,0.0,0.0,-0.009,-0.0135,-0.018,-0.0448,-0.0583,-0.0628,-0.0807,-0.0852,-0.0852,-0.0852,-0.0852,-0.0852,-0.0852,-0.0852,-0.0852,-0.0852,-0.0852,-0.0852,-0.0852,-0.0852,-0.0852,-0.0852,-0.0852,-0.0852,-0.0852,-0.0852,-0.0848,-0.0831,-0.0813,-0.0878,-0.1016,-0.1393,-0.1688,-0.1688,-0.1688,-0.1726,-0.1881,-0.2273,-0.2666,-0.302,-0.3759,-0.4577,-0.5401,-0.5747,-0.598,-0.6261,-0.63,-0.63,-0.63,-0.63,-0.63,-0.63,-0.63,-0.6338,-0.6377,-0.6563,-0.6714,-0.6795,-0.7791,-0.8556,-0.897,-0.9193,-0.9496,-0.9846,-1.0067,-1.0255,-1.0481,-1.0775,-1.0962,0.0,0.0,0.0,0.0,0.0,0.0,0.0,0.0,0.0,0.0,0.0,0.0,0.0,0.0,0.0,0.0,0.0,0.0,0.0,0.0,0.0,0.0,0.0,0.0,0.0,0.0,0.0,0.0,0.0,-0.3537,-0.2599,-0.2061,-0.1524,-0.0942,-0.0583,-0.0359,-0.0224,-0.009,0.0,0.0,0.0,0.0,0.0,0.0,0.0,0.0,-0.0135,-0.0224,-0.0224,-0.0314,-0.0359,-0.0359,-0.0359,-0.0359,-0.0359,-0.0359,-0.0359,-0.0359,-0.0359,-0.0359,-0.0359,-0.0359,-0.0359,-0.0359,-0.0359,-0.0359,-0.0359,-0.0359,-0.0359,-0.0358,-0.0355,-0.0348,-0.034,-0.0333,-0.0645,-0.0982,-0.0982,-0.0982,-0.0982,-0.1099,-0.1373,-0.1727,-0.2159,-0.3096,-0.407,-0.5012,-0.5437,-0.5747,-0.606,-0.6219,-0.63,-0.63,-0.63,-0.63,-0.63,-0.63,-0.63,-0.63,-0.6412,-0.6451,-0.6451,-0.7065,-0.7561,-0.7978,-0.828,-0.8546,-0.8742,-0.9046,-0.9273,-0.9496,-0.9798,-1.0024,0.0,0.0,0.0,0.0,0.0,0.0,0.0,0.0,0.0,0.0,0.0,0.0,0.0,0.0,0.0,0.0,0.0,0.0,0.0,0.0,0.0,0.0,0.0,0.0,0.0,0.0,0.0,0.0,0.0,-0.2599,-0.1705,-0.1391,-0.0987,-0.0403,-0.0359,-0.0224,0.0,0.0,0.0,0.0,0.0,0.0,0.0,0.0,0.0,0.0,0.0,0.0,0.0,0.0,0.0,0.0,0.0,0.0,0.0,0.0,0.0,0.0,0.0,0.0,0.0,0.0,0.0,0.0,0.0,0.0,0.0,0.0,0.0,0.0,0.0,0.0,0.0,0.0,-0.0245,-0.0513,-0.0511,-0.051,-0.051,-0.051,-0.0668,-0.1021,-0.1533,-0.2511,-0.3524,-0.4426,-0.4932,-0.5359,-0.5747,-0.606,-0.6219,-0.6219,-0.6261,-0.63,-0.63,-0.63,-0.63,-0.63,-0.63,-0.63,-0.63,-0.6451,-0.6718,-0.703,-0.7442,-0.7668,-0.7706,-0.8021,-0.8289,-0.8513,-0.8699,-0.8965,0.0,0.0,0.0,0.0,0.0,0.0,0.0,0.0,0.0,0.0,0.0,0.0,0.0,0.0,0.0,0.0,0.0,0.0,0.0,0.0,0.0,0.0,0.0,0.0,0.0,0.0,0.0,0.0,-0.2286,-0.1749,-0.1211,-0.0762,-0.0493,-0.0403,-0.018,-0.0045,0.0,0.0,0.0,0.0,0.0,0.0,0.0,0.0,0.0,0.0,0.0,0.0,0.0,0.0,0.0,0.0,0.0,0.0,0.0,0.0,0.0,0.0,0.0,0.0,0.0,0.0,0.0,0.0,0.0,0.0,0.0,0.0,0.0,0.0,0.0,0.0,0.0,0.0,-0.0041,-0.0081,-0.0079,-0.0079,-0.0079,-0.0079,-0.0393,-0.0864,-0.1493,-0.2158,-0.2901,-0.3802,-0.4426,-0.4932,-0.5321,-0.5709,-0.5941,-0.5941,-0.618,-0.63,-0.63,-0.63,-0.63,-0.63,-0.63,-0.63,-0.63,-0.6338,-0.6377,-0.6416,-0.683,-0.7096,-0.7296,-0.7334,-0.745,-0.7672,-0.7859,-0.7974,0.0,0.0,0.0,0.0,0.0,0.0,0.0,0.0,0.0,0.0,0.0,0.0,0.0,0.0,0.0,0.0,0.0,0.0,0.0,0.0,0.0,0.0,0.0,0.0,0.0,0.0,0.0,0.0,-0.1435,-0.1031,-0.0718,-0.0359,-0.018,-0.018,-0.0045,0.0,0.0,0.0,0.0,0.0,0.0,0.0,0.0,0.0,0.0,0.0,0.0,0.0,0.0,0.0,0.0,0.0,0.0,0.0,0.0,0.0,0.0,0.0,0.0,0.0,0.0,0.0,0.0,0.0,0.0,0.0,0.0,0.0,0.0,0.0,0.0,0.0,0.0,0.0,0.0,0.0,0.0,0.0,0.0,0.0,-0.0236,-0.0589,-0.11,-0.1649,-0.2276,-0.3098,-0.3643,-0.419,-0.4735,-0.5162,-0.5434,-0.5553,-0.5864,-0.606,-0.606,-0.6219,-0.63,-0.63,-0.63,-0.63,-0.63,-0.63,-0.63,-0.63,-0.649,-0.6602,-0.6683,-0.6795,-0.6911,-0.6984,-0.7211,-0.7365,0.0,0.0,0.0,0.0,0.0,0.0,0.0,0.0,0.0,0.0,0.0,0.0,0.0,0.0,0.0,0.0,0.0,0.0,0.0,0.0,0.0,0.0,0.0,0.0,0.0,0.0,0.0,0.0,-0.0807,-0.0538,-0.0314,-0.009,0.0,0.0,0.0,0.0,0.0,0.0,0.0,0.0,0.0,0.0,0.0,0.0,0.0,0.0,0.0,0.0,0.0,0.0,0.0,0.0,0.0,0.0,0.0,0.0,0.0,0.0,0.0,0.0,0.0,0.0,0.0,0.0,0.0,0.0,0.0,0.0,0.0,0.0,0.0,0.0,0.0,0.0,0.0,0.0,0.0,0.0,0.0,0.0,-0.0118,-0.0353,-0.0668,-0.1061,-0.161,-0.2395,-0.2823,-0.3329,-0.3917,-0.4421,-0.4771,-0.4968,-0.5395,-0.5705,-0.5747,-0.5986,-0.6145,-0.618,-0.618,-0.6219,-0.63,-0.63,-0.63,-0.63,-0.63,-0.63,-0.63,-0.6451,-0.6528,-0.6525,-0.6676,-0.683,0.0,0.0,0.0,0.0,0.0,0.0,0.0,0.0,0.0,0.0,0.0,0.0,0.0,0.0,0.0,0.0,0.0,0.0,0.0,0.0,0.0,0.0,0.0,0.0,0.0,0.0,0.0,0.0,-0.0448,-0.0314,-0.0045,0.0,0.0,0.0,0.0,0.0,0.0,0.0,0.0,0.0,0.0,0.0,0.0,0.0,0.0,0.0,0.0,0.0,0.0,0.0,0.0,0.0,0.0,0.0,0.0,0.0,0.0,0.0,0.0,0.0,0.0,0.0,0.0,0.0,0.0,0.0,0.0,0.0,0.0,0.0,0.0,0.0,0.0,0.0,0.0,0.0,0.0,0.0,0.0,0.0,0.0,-0.0079,-0.0314,-0.051,-0.0864,-0.1572,-0.2002,-0.2431,-0.2824,-0.345,-0.3956,-0.4146,-0.4691,-0.5121,-0.5318,-0.5518,-0.5715,-0.5902,-0.5941,-0.6022,-0.63,-0.63,-0.63,-0.63,-0.63,-0.63,-0.63,-0.63,-0.63,-0.63,-0.6338,-0.6338,0.0,0.0,0.0,0.0,0.0,0.0,0.0,0.0,0.0,0.0,0.0,0.0,0.0,0.0,0.0,0.0,0.0,0.0,0.0,0.0,0.0,0.0,0.0,0.0,0.0,0.0,0.0,0.0,0.0,-0.009,0.0,0.0,0.0,0.0,0.0,0.0,0.0,0.0,0.0,0.0,0.0,0.0,0.0,0.0,0.0,0.0,0.0,0.0,0.0,0.0,0.0,0.0,0.0,0.0,0.0,0.0,0.0,0.0,0.0,0.0,0.0,0.0,0.0,0.0,0.0,0.0,0.0,0.0,0.0,0.0,0.0,0.0,0.0,0.0,0.0,0.0,0.0,0.0,0.0,0.0,0.0,-0.0079,-0.0275,-0.0353,-0.0589,-0.1061,-0.1256,-0.153,-0.196,-0.2469,-0.286,-0.3056,-0.3761,-0.4307,-0.4499,-0.4813,-0.5168,-0.5476,-0.5512,-0.5631,-0.5831,-0.5983,-0.606,-0.606,-0.6219,-0.63,-0.63,-0.63,-0.63,-0.63,-0.63,-0.63,0.0,0.0,0.0,0.0,0.0,0.0,0.0,0.0,0.0,0.0,0.0,0.0,0.0,0.0,0.0,0.0,0.0,0.0,0.0,0.0,0.0,0.0,0.0,0.0,0.0,0.0,0.0,0.0,0.0,0.0,0.0,0.0,0.0,0.0,0.0,0.0,0.0,0.0,0.0,0.0,0.0,0.0,0.0,0.0,0.0,0.0,0.0,0.0,0.0,0.0,0.0,0.0,0.0,0.0,0.0,0.0,0.0,0.0,0.0,0.0,0.0,0.0,0.0,0.0,0.0,0.0,0.0,0.0,0.0,0.0,0.0,0.0,0.0,0.0,0.0,0.0,0.0,0.0,0.0,0.0,0.0,-0.0039,-0.0157,-0.0196,-0.0314,-0.0667,-0.0707,-0.0825,-0.1216,-0.1568,-0.1844,-0.208,-0.2784,-0.3331,-0.3561,-0.3995,-0.4423,-0.4776,-0.4932,-0.5087,-0.5285,-0.5553,-0.5705,-0.5705,-0.5944,-0.6103,-0.618,-0.6261,-0.63,-0.63,-0.63,-0.63,0.0,0.0,0.0,0.0,0.0,0.0,0.0,0.0,0.0,0.0,0.0,0.0,0.0,0.0,0.0,0.0,0.0,0.0,0.0,0.0,0.0,0.0,0.0,0.0,0.0,0.0,0.0,0.0,0.0,0.0,0.0,0.0,0.0,0.0,0.0,0.0,0.0,0.0,0.0,0.0,0.0,0.0,0.0,0.0,0.0,0.0,0.0,0.0,0.0,0.0,0.0,0.0,0.0,0.0,0.0,0.0,0.0,0.0,0.0,0.0,0.0,0.0,0.0,0.0,0.0,0.0,0.0,0.0,0.0,0.0,0.0,0.0,0.0,0.0,0.0,0.0,0.0,0.0,0.0,0.0,0.0,0.0,0.0,0.0,-0.0079,-0.0275,-0.0275,-0.0353,-0.055,-0.0746,-0.0982,-0.1257,-0.1804,-0.2235,-0.2431,-0.3017,-0.3487,-0.3763,-0.4151,-0.4462,-0.4659,-0.5049,-0.5282,-0.5282,-0.5479,-0.5673,-0.586,-0.6141,-0.63,-0.63,-0.63,-0.63,0.0538,0.0,0.0,0.0,0.0,0.0,0.0,0.0,0.0,0.0,0.0,0.0,0.0,0.0,0.0,0.0,0.0,0.0,0.0,0.0,0.0,0.0,0.0,0.0,0.0,0.0,0.0,0.0,0.0,0.0,0.0,0.0,0.0,0.0,0.0,0.0,0.0,0.0,0.0,0.0,0.0,0.0,0.0,0.0,0.0,0.0,0.0,0.0,0.0,0.0,0.0,0.0,0.0,0.0,0.0,0.0,0.0132,0.0308,0.0268,0.0404,0.0494,0.0494,0.0494,0.0494,0.0494,0.0494,0.0492,0.0485,0.0395,0.0261,0.0042,0.0,0.0,0.0,0.0,0.0,0.0,0.0,0.0,0.0,0.0,0.0,0.0,0.0,0.0,-0.0079,-0.0079,-0.0118,-0.0157,-0.0353,-0.051,-0.055,-0.0982,-0.1374,-0.161,-0.204,-0.2469,-0.2823,-0.3096,-0.3409,-0.3759,-0.4034,-0.4345,-0.4657,-0.4854,-0.5049,-0.5237,-0.5744,-0.6099,-0.63,-0.63,-0.63,0.0,0.0,0.0,0.0,0.0,0.0,0.0314,0.0314,0.0,0.0,0.0,0.0,0.0,0.0,0.0,0.0,0.0,0.0,0.0,0.0,0.0,0.0,0.0,0.0,0.0,0.0,0.0,0.0,0.0,0.0,0.0,0.0,0.0,0.0,0.0,0.0,0.0,0.0,0.0,0.0,0.0,0.0,0.0,0.0,0.0,0.0,0.0082,0.0121,0.012,0.0326,0.0286,0.0123,0.0124,0.0166,0.025,0.0341,0.0472,0.0645,0.0739,0.0873,0.0961,0.0961,0.0961,0.0961,0.0961,0.0961,0.0958,0.0947,0.0767,0.0589,0.041,0.0242,0.012,0.0118,0.0079,0.0,0.0,0.0,0.0,0.0,0.0,0.0,0.0,0.0,0.0,0.0,0.0,0.0,0.0,-0.0118,-0.0157,-0.0157,-0.0471,-0.0707,-0.0864,-0.1256,-0.1569,-0.1804,-0.2118,-0.243,-0.2741,-0.3096,-0.3409,-0.3722,-0.3995,-0.4307,-0.4613,-0.5315,-0.5786,-0.6025,-0.6103,-0.6141,0.0,0.0,0.0,0.0,0.0,0.0,0.0897,0.0807,0.0762,0.0,0.0,0.0,0.0,0.0,0.0,0.0,0.0,0.0,0.0,0.0,0.0,0.0,0.0,0.0,0.0,0.0,0.0,0.0,0.0,0.0,0.0,0.0,0.0,0.0,0.0,0.0,0.0,0.0,0.0,0.0,0.0,0.0,0.0,0.0042,0.0041,0.0041,0.0284,0.0401,0.0432,0.0825,0.0746,0.0354,0.0402,0.0527,0.0732,0.0915,0.1007,0.1091,0.1302,0.1429,0.1429,0.147,0.147,0.147,0.1512,0.1512,0.1469,0.1424,0.1237,0.1053,0.0972,0.0678,0.0393,0.0393,0.0196,0.0079,0.0079,0.0118,0.0118,0.0118,0.0039,0.0,0.0,0.0,0.0,0.0,0.0,0.0,0.0,0.0,0.0,0.0,-0.0157,-0.0275,-0.0275,-0.0628,-0.0825,-0.0825,-0.1255,-0.1568,-0.1764,-0.2118,-0.2433,-0.2668,-0.3057,-0.3485,-0.3912,-0.4813,-0.5323,-0.5521,-0.5709,-0.5822,0.0,0.0,0.0,0.0,0.0,0.0,0.1615,0.1436,0.1256,0.0,0.0,0.0,0.0,0.0,0.0,0.0,0.0,0.0,0.0,0.0,0.0,0.0,0.0,0.0,0.0,0.0,0.0,0.0,0.0,0.0,0.0,0.0,0.0,0.0,0.0,0.0,0.0,0.0,0.0,0.0,0.0,0.0,0.0,0.0164,0.0243,0.0277,0.0633,0.0907,0.1139,0.1372,0.1177,0.0786,0.1027,0.1226,0.1425,0.146,0.1677,0.1969,0.2006,0.2186,0.2354,0.2519,0.2603,0.2603,0.2771,0.2729,0.2509,0.2137,0.1971,0.1856,0.154,0.13,0.1061,0.0825,0.0628,0.051,0.0707,0.0707,0.0707,0.0707,0.0314,0.0,0.0,0.0,0.0,0.0,0.0,0.0,0.0,0.0,0.0,0.0,-0.0039,-0.0039,-0.0039,-0.0275,-0.0432,-0.0432,-0.0667,-0.0903,-0.1099,-0.1178,-0.1413,-0.1842,-0.2234,-0.2547,-0.2823,-0.4151,-0.4857,-0.4896,-0.5085,-0.5279,0.0,0.0,0.0,0.3448,0.0,0.0,0.0,0.2376,0.2286,0.2152,0.0,0.0,0.0,0.0,0.0,0.0,0.0,0.0,0.0,0.0,0.0,0.0,0.0,0.0,0.0,0.0,0.0,0.0,0.0,0.0,0.0,0.0,0.0,0.0,0.0,0.0,0.0,0.0,0.0,0.0,0.0083,0.0164,0.016,0.048,0.0675,0.0825,0.1334,0.1688,0.1923,0.2313,0.243,0.2314,0.2002,0.2041,0.2238,0.2422,0.2633,0.2836,0.2952,0.3167,0.3368,0.3447,0.3568,0.3649,0.3772,0.3649,0.3438,0.32,0.2966,0.2743,0.2429,0.2117,0.1805,0.1491,0.1334,0.1256,0.1256,0.1334,0.1412,0.1412,0.1059,0.0667,0.0236,0.0157,0.0118,0.0,0.0,0.0,0.0,0.0,0.0,0.0,0.0,0.0,0.0,-0.0079,-0.0157,-0.0157,-0.0236,-0.0393,-0.0589,-0.0589,-0.0825,-0.1256,-0.1452,-0.1649,-0.1884,-0.2743,-0.3444,-0.4073,-0.4307,-0.4499,0.0,0.0,0.0,0.0,0.0,0.4072,0.0,0.0,0.0,0.3253,0.0,0.0,0.0,0.0,0.0,0.0,0.0,0.0,0.0,0.0,0.0,0.0,0.0,0.0,0.0,0.018,0.0135,0.0135,0.0134,0.0134,0.0134,0.0133,0.0088,0.0043,0.0043,0.0043,0.0042,0.0042,0.0083,0.0122,0.0324,0.044,0.051,0.0942,0.1295,0.1571,0.2235,0.2626,0.2862,0.3407,0.38,0.3958,0.3136,0.294,0.3215,0.3526,0.368,0.3759,0.3956,0.4151,0.4263,0.4302,0.446,0.4618,0.4579,0.446,0.4341,0.4302,0.399,0.364,0.3405,0.3095,0.2704,0.2273,0.2155,0.2116,0.1959,0.2077,0.2194,0.2194,0.2077,0.1647,0.0667,0.0432,0.0353,0.0157,0.0079,0.0039,0.0039,0.0039,0.0,0.0,0.0,0.0,0.0,0.0,0.0,0.0,0.0,-0.0079,-0.0236,-0.0236,-0.0393,-0.0707,-0.0746,-0.0904,-0.11,-0.1295,-0.1959,-0.3056,-0.337,-0.3604,0.0,0.0,0.0,0.0,0.5369,0.0,0.0,0.0,0.4493,0.4326,0.0,0.0,0.0,0.0,0.0,0.0,0.0,0.0,0.0,0.0,0.0,0.0,0.0,0.0,0.0,0.0762,0.0628,0.0628,0.0618,0.0612,0.0612,0.0558,0.0466,0.0254,0.0254,0.0253,0.0253,0.0248,0.0367,0.0529,0.0717,0.0945,0.1218,0.1804,0.2157,0.2393,0.3255,0.3722,0.3951,0.4384,0.4657,0.481,0.4146,0.4148,0.4504,0.4543,0.4657,0.4807,0.4849,0.4888,0.4927,0.5124,0.5282,0.544,0.5243,0.5162,0.5124,0.4965,0.4849,0.4732,0.4343,0.407,0.3795,0.3329,0.3093,0.3015,0.3173,0.3212,0.3212,0.3212,0.3212,0.2782,0.1414,0.0982,0.0746,0.055,0.0393,0.0275,0.0275,0.0118,0.0,0.0,0.0,0.0,0.0,0.0,0.0,0.0,0.0,0.0,-0.0039,-0.0039,-0.0039,-0.0118,-0.0275,-0.0393,-0.0432,-0.0628,-0.1098,-0.1803,-0.2195,-0.2508,0.0,0.0,0.0,0.0,0.0,0.0,0.5722,0.0,0.5323,0.0,0.0,0.0,0.0,0.0,0.0,0.0,0.4446,0.0,0.0,0.0,0.0,0.0,0.0,0.0,0.0,0.0,0.0,0.0,0.1157,0.1151,0.1066,0.1141,0.1004,0.0661,0.0661,0.0656,0.0648,0.0641,0.0837,0.1194,0.1498,0.1765,0.2041,0.2784,0.3251,0.3485,0.4187,0.4616,0.481,0.5087,0.5359,0.5509,0.5237,0.5124,0.5049,0.5168,0.5285,0.5359,0.5359,0.5434,0.555,0.5789,0.5948,0.5986,0.5909,0.5786,0.5628,0.555,0.5434,0.5282,0.5007,0.4851,0.4696,0.4268,0.4187,0.4185,0.4151,0.4226,0.4341,0.4341,0.4229,0.3878,0.3056,0.2234,0.153,0.1216,0.0864,0.0667,0.0667,0.0471,0.0314,0.0196,0.0157,0.0118,0.0,0.0,0.0,0.0,0.0,0.0,0.0,0.0,0.0,0.0,-0.0079,-0.0118,-0.0118,-0.0196,-0.0393,-0.0667,-0.1216,-0.157,0.7095,0.0,0.0,0.0,0.0,0.0,0.0,0.0,0.0,0.0,0.0,0.0,0.0,0.0,0.0,0.0,0.0,0.5061,0.0,0.0,0.0,0.0,0.0,0.0,0.0,0.0,0.0,0.1722,0.1879,0.1914,0.1831,0.1903,0.1761,0.137,0.1289,0.1239,0.1256,0.1295,0.153,0.1921,0.243,0.2743,0.2978,0.3761,0.4229,0.446,0.5004,0.5318,0.5476,0.5712,0.5867,0.6018,0.6018,0.5825,0.5595,0.5754,0.5792,0.5792,0.5792,0.5867,0.606,0.6219,0.63,0.63,0.63,0.618,0.6018,0.6018,0.5909,0.5754,0.5515,0.5476,0.5359,0.5012,0.5049,0.5124,0.4971,0.5049,0.5162,0.5162,0.5049,0.4854,0.4499,0.3444,0.2469,0.1999,0.1608,0.1295,0.1178,0.0981,0.0785,0.0589,0.051,0.0393,0.0275,0.0157,0.0039,0.0,0.0,0.0,0.0,0.0,0.0,0.0,0.0,0.0,0.0,0.0,0.0,0.0,-0.051,-0.0825,0.0,0.0,0.0,0.7095,0.0,0.0,0.0,0.0,0.6258,0.0,0.0,0.0,0.0,0.0,0.0,0.5572,0.0,0.0,0.0,0.0,0.0,0.0,0.0,0.0,0.0,0.0,0.0,0.2853,0.2837,0.2924,0.3126,0.2905,0.2673,0.2474,0.2277,0.2158,0.2156,0.2353,0.255,0.2787,0.345,0.3839,0.4068,0.4691,0.5085,0.5282,0.5705,0.586,0.5902,0.618,0.63,0.63,0.63,0.6261,0.6261,0.6261,0.6261,0.6261,0.6261,0.63,0.63,0.63,0.63,0.63,0.63,0.63,0.63,0.63,0.63,0.6219,0.5941,0.5899,0.5825,0.5637,0.5559,0.5598,0.5559,0.5559,0.5598,0.5598,0.5559,0.5518,0.5282,0.4423,0.3528,0.2863,0.2589,0.2314,0.1921,0.1685,0.149,0.1296,0.1021,0.0864,0.0864,0.051,0.0196,0.0,0.0,0.0,0.0,0.0,0.0,0.0,0.0,0.0,0.0,0.0,0.0,0.0,-0.0236,-0.0314,0.0,0.0,0.7071,0.698,0.0,0.0,0.0,0.0,0.0,0.0,0.0,0.0,0.0,0.0,0.6064,0.6064,0.6064,0.0,0.0,0.0,0.0,0.0,0.0,0.0,0.0,0.0,0.0,0.3888,0.402,0.4082,0.4001,0.3894,0.3722,0.3372,0.3134,0.2978,0.2978,0.3253,0.3526,0.3878,0.4343,0.4696,0.4927,0.5392,0.5628,0.5709,0.6022,0.618,0.618,0.6261,0.63,0.63,0.63,0.63,0.63,0.63,0.63,0.63,0.63,0.63,0.63,0.63,0.63,0.63,0.63,0.63,0.63,0.63,0.63,0.6261,0.618,0.618,0.6141,0.6067,0.6064,0.6064,0.6064,0.6064,0.6064,0.6064,0.6064,0.5986,0.5747,0.5395,0.489,0.3995,0.3567,0.3253,0.2938,0.2586,0.2314,0.2119,0.1883,0.1648,0.1372,0.0942,0.055,0.0236,0.0196,0.0157,0.0,0.0,0.0,0.0,0.0,0.0,0.0,0.0,0.0,0.0,-0.0079,-0.0118,0.7095,0.7058,0.0,0.691,0.6848,0.0,0.6559,0.0,0.0,0.0,0.0,0.0,0.0,0.0,0.0,0.63,0.63,0.63,0.0,0.6141,0.0,0.0,0.0,0.0,0.0,0.0,0.4735,0.4735,0.4854,0.4893,0.0,0.0,0.4618,0.4348,0.4109,0.3954,0.3954,0.4229,0.4465,0.4735,0.5124,0.5392,0.5515,0.5864,0.606,0.606,0.6219,0.63,0.63,0.63,0.63,0.63,0.63,0.63,0.63,0.63,0.63,0.63,0.63,0.63,0.63,0.63,0.63,0.63,0.63,0.63,0.63,0.63,0.63,0.63,0.63,0.63,0.63,0.63,0.63,0.63,0.63,0.63,0.63,0.63,0.63,0.6261,0.606,0.606,0.5747,0.4851,0.4501,0.4231,0.3917,0.3643,0.3372,0.3095,0.2899,0.2508,0.1882,0.1491,0.1099,0.0668,0.055,0.0471,0.0314,0.0236,0.0196,0.0118,0.0118,0.0079,0.0,0.0,0.0,0.0,0.0,0.0]}]]